[[{"header":{"parameterUnit":"m.s-1","parameterCategory":1,"la1":30.6,"la2":29.2853,"lo1":-89.7004,"lo2":-87.6739,"dx":0.0162,"dy":0.0183,"nx":112,"ny":82,"refTime":"2022-11-11T18:00:00:Z","depth":0,"parameterNumber":2,"parameterNumberName":"U-component_of_WINDS"},"data":[0.0,0.0,0.0,0.0,0.0,0.0,0.0,0.0,0.0,0.0,0.0,0.0,0.0,0.0,0.0,0.0,0.0,0.0,0.0,0.0,0.0,0.0,0.0,0.0,0.0,0.0,0.0,0.0,0.0,0.0,0.0,0.0,0.0,0.0,0.0,0.0,0.0,0.0,0.0,0.0,0.0,0.0,0.0,0.0,0.0,0.0,0.0,0.0,0.0,0.0,0.0,0.0,0.0,0.0,0.0,0.0,0.0,0.0,0.0,0.0,0.0,0.0,0.0,0.0,0.0,0.0,0.0,0.0,0.0,0.0,0.0,0.0,0.0,0.0,0.0,0.0,0.0,0.0,0.0,0.0,0.0,0.0,0.0,0.0,0.0,0.0,0.0,0.0,0.0,0.0,0.0,7.4478,7.8479,8.1672,8.3287,8.2774,8.1709,8.0094,0.0,0.0,0.0,0.0,0.0,0.0,0.0,0.0,0.0,0.0,0.0,0.0,0.0,0.0,0.0,0.0,0.0,0.0,0.0,0.0,0.0,0.0,0.0,0.0,0.0,0.0,0.0,0.0,0.0,0.0,0.0,0.0,0.0,0.0,0.0,0.0,0.0,0.0,0.0,0.0,0.0,0.0,0.0,0.0,0.0,0.0,0.0,0.0,0.0,0.0,0.0,0.0,0.0,0.0,0.0,0.0,0.0,0.0,0.0,0.0,0.0,0.0,0.0,0.0,0.0,0.0,0.0,0.0,0.0,0.0,0.0,0.0,0.0,0.0,0.0,0.0,0.0,0.0,0.0,0.0,0.0,0.0,0.0,0.0,0.0,0.0,0.0,0.0,0.0,0.0,0.0,0.0,0.0,0.0,0.0,0.0,0.0,0.0,0.0,0.0,0.0,0.0,0.0,0.0,7.4147,7.8405,8.0167,8.1672,8.3287,8.3287,8.2553,8.0938,0.0,0.0,0.0,0.0,0.0,0.0,0.0,0.0,0.0,0.0,0.0,0.0,0.0,0.0,0.0,0.0,0.0,0.0,0.0,0.0,0.0,0.0,0.0,0.0,0.0,0.0,0.0,0.0,0.0,0.0,0.0,0.0,0.0,0.0,0.0,0.0,0.0,0.0,0.0,0.0,0.0,0.0,0.0,0.0,0.0,0.0,0.0,0.0,0.0,0.0,0.0,0.0,0.0,0.0,0.0,0.0,0.0,0.0,0.0,0.0,0.0,0.0,0.0,0.0,0.0,0.0,0.0,0.0,0.0,0.0,0.0,0.0,0.0,0.0,0.0,0.0,0.0,0.0,0.0,0.0,0.0,0.0,0.0,0.0,0.0,0.0,0.0,0.0,0.0,0.0,0.0,0.0,0.0,0.0,0.0,0.0,0.0,0.0,0.0,0.0,0.0,0.0,0.0,7.4515,7.7157,8.0718,8.2223,8.3618,8.5233,8.4939,8.4022,8.2406,7.7997,0.0,0.0,0.0,0.0,0.0,0.0,0.0,0.0,0.0,0.0,0.0,0.0,0.0,0.0,0.0,0.0,0.0,0.0,0.0,0.0,0.0,0.0,0.0,0.0,0.0,0.0,0.0,0.0,0.0,0.0,0.0,0.0,0.0,0.0,0.0,0.0,0.0,0.0,0.0,0.0,0.0,0.0,0.0,0.0,0.0,0.0,0.0,0.0,0.0,0.0,0.0,0.0,0.0,0.0,0.0,0.0,0.0,0.0,0.0,0.0,0.0,0.0,0.0,0.0,0.0,0.0,0.0,0.0,0.0,0.0,0.0,0.0,0.0,0.0,0.0,0.0,0.0,0.0,0.0,0.0,0.0,0.0,0.0,0.0,0.0,0.0,0.0,0.0,0.0,0.0,0.0,0.0,0.0,0.0,0.0,0.0,0.0,0.0,0.0,0.0,0.0,0.0,7.7084,7.958,8.2186,8.3765,8.527,8.6885,8.6444,8.5416,8.3801,7.9786,0.0,0.0,0.0,0.0,0.0,0.0,0.0,0.0,0.0,0.0,0.0,0.0,0.0,0.0,0.0,0.0,0.0,0.0,0.0,0.0,0.0,0.0,0.0,0.0,0.0,0.0,0.0,0.0,0.0,0.0,0.0,0.0,0.0,0.0,0.0,0.0,0.0,0.0,0.0,0.0,0.0,0.0,0.0,0.0,0.0,0.0,0.0,0.0,0.0,0.0,0.0,0.0,0.0,0.0,0.0,0.0,0.0,0.0,0.0,0.0,0.0,0.0,0.0,0.0,0.0,0.0,0.0,0.0,0.0,0.0,0.0,0.0,0.0,0.0,0.0,0.0,0.0,0.0,0.0,0.0,0.0,0.0,0.0,0.0,0.0,0.0,0.0,0.0,0.0,0.0,0.0,0.0,0.0,0.0,0.0,0.0,0.0,0.0,0.0,0.0,0.0,0.0,7.7084,7.98,8.2994,8.4095,8.527,8.6885,8.6958,8.6224,8.4609,8.105,0.0,0.0,0.0,0.0,0.0,0.0,0.0,0.0,0.0,0.0,0.0,0.0,0.0,0.0,0.0,0.0,0.0,0.0,0.0,0.0,0.0,0.0,0.0,0.0,0.0,0.0,0.0,0.0,0.0,0.0,0.0,0.0,0.0,0.0,0.0,0.0,0.0,0.0,0.0,0.0,0.0,0.0,0.0,0.0,0.0,0.0,0.0,0.0,0.0,0.0,0.0,0.0,0.0,0.0,0.0,0.0,0.0,0.0,0.0,0.0,0.0,0.0,0.0,0.0,0.0,0.0,0.0,0.0,0.0,0.0,0.0,0.0,0.0,0.0,0.0,0.0,0.0,0.0,0.0,0.0,0.0,0.0,0.0,0.0,0.0,0.0,0.0,0.0,0.0,0.0,0.0,0.0,0.0,0.0,0.0,0.0,0.0,0.0,0.0,0.0,0.0,0.0,7.7965,8.0938,0.0,8.4572,8.5783,8.6921,8.6995,8.6518,8.5416,0.0,0.0,0.0,0.0,0.0,0.0,0.0,0.0,0.0,0.0,0.0,0.0,0.0,0.0,0.0,0.0,0.0,0.0,0.0,0.0,0.0,0.0,0.0,0.0,0.0,0.0,0.0,0.0,0.0,0.0,0.0,0.0,0.0,0.0,0.0,0.0,0.0,0.0,0.0,0.0,0.0,0.0,0.0,0.0,0.0,0.0,0.0,0.0,0.0,0.0,0.0,0.0,0.0,0.0,0.0,0.0,0.0,0.0,0.0,0.0,0.0,0.0,0.0,0.0,0.0,0.0,0.0,0.0,0.0,0.0,0.0,0.0,0.0,0.0,0.0,0.0,0.0,0.0,0.0,0.0,0.0,0.0,0.0,0.0,0.0,0.0,0.0,0.0,0.0,0.0,0.0,0.0,0.0,0.0,0.0,0.0,0.0,0.0,0.0,0.0,0.0,0.0,7.5005,7.8626,8.1709,0.0,8.4976,8.6114,8.6921,8.7252,8.6701,8.5123,0.0,0.0,0.0,0.0,0.0,0.0,0.0,0.0,0.0,0.0,0.0,0.0,0.0,0.0,0.0,0.0,0.0,0.0,0.0,0.0,0.0,0.0,0.0,0.0,0.0,0.0,0.0,0.0,0.0,0.0,0.0,0.0,0.0,0.0,0.0,0.0,0.0,0.0,0.0,0.0,0.0,0.0,0.0,0.0,0.0,0.0,0.0,0.0,0.0,0.0,0.0,0.0,0.0,0.0,0.0,0.0,0.0,0.0,0.0,0.0,0.0,0.0,0.0,0.0,0.0,0.0,0.0,0.0,0.0,0.0,0.0,0.0,0.0,0.0,0.0,0.0,0.0,0.0,0.0,0.0,0.0,0.0,0.0,0.0,0.0,0.0,0.0,0.0,0.0,0.0,0.0,0.0,0.0,0.0,0.0,0.0,0.0,0.0,0.0,0.0,0.0,0.0,7.5641,7.8956,8.1929,8.4315,8.5306,8.6114,8.6921,8.7729,8.6811,0.0,0.0,0.0,0.0,0.0,0.0,0.0,0.0,0.0,0.0,0.0,0.0,0.0,0.0,0.0,0.0,0.0,0.0,0.0,0.0,0.0,0.0,0.0,0.0,0.0,0.0,0.0,0.0,0.0,0.0,0.0,0.0,0.0,0.0,0.0,0.0,0.0,0.0,0.0,0.0,0.0,0.0,0.0,0.0,0.0,0.0,0.0,0.0,0.0,0.0,0.0,0.0,0.0,0.0,0.0,0.0,0.0,0.0,0.0,0.0,0.0,0.0,0.0,0.0,0.0,0.0,0.0,0.0,0.0,0.0,0.0,0.0,0.0,0.0,0.0,0.0,0.0,0.0,0.0,0.0,0.0,0.0,0.0,0.0,0.0,0.0,0.0,0.0,0.0,0.0,0.0,0.0,0.0,0.0,0.0,0.0,0.0,0.0,0.0,0.0,0.0,0.0,0.0,7.4725,7.8112,8.1085,8.3508,8.4462,8.527,8.6077,8.6885,8.6481,8.4389,0.0,0.0,0.0,0.0,0.0,0.0,0.0,0.0,0.0,0.0,0.0,0.0,0.0,0.0,0.0,0.0,0.0,0.0,0.0,0.0,0.0,0.0,0.0,0.0,0.0,0.0,0.0,0.0,0.0,0.0,0.0,0.0,0.0,0.0,0.0,0.0,0.0,0.0,0.0,0.0,0.0,0.0,0.0,0.0,0.0,0.0,0.0,0.0,0.0,0.0,0.0,0.0,0.0,0.0,0.0,0.0,0.0,0.0,0.0,0.0,0.0,0.0,0.0,0.0,0.0,0.0,0.0,0.0,0.0,0.0,0.0,0.0,0.0,0.0,0.0,0.0,0.0,0.0,0.0,0.0,0.0,0.0,0.0,0.0,0.0,0.0,0.0,0.0,0.0,0.0,0.0,0.0,0.0,0.0,0.0,0.0,0.0,0.0,0.0,0.0,0.0,0.0,7.4432,7.8038,8.1085,8.3177,8.3838,8.4572,8.571,8.6224,8.582,8.4242,0.0,0.0,0.0,0.0,0.0,0.0,0.0,0.0,0.0,0.0,0.0,0.0,0.0,0.0,0.0,0.0,0.0,0.0,0.0,0.0,0.0,0.0,0.0,0.0,0.0,0.0,0.0,0.0,0.0,0.0,0.0,0.0,0.0,0.0,0.0,0.0,0.0,0.0,0.0,0.0,0.0,0.0,0.0,0.0,0.0,0.0,0.0,0.0,0.0,0.0,0.0,0.0,0.0,0.0,0.0,0.0,0.0,0.0,0.0,0.0,0.0,0.0,0.0,0.0,0.0,0.0,0.0,0.0,0.0,0.0,0.0,0.0,0.0,0.0,0.0,0.0,0.0,0.0,0.0,0.0,0.0,0.0,0.0,0.0,0.0,0.0,0.0,0.0,0.0,0.0,0.0,0.0,0.0,0.0,0.0,0.0,0.0,0.0,0.0,0.0,0.0,0.0,7.4592,7.8516,8.1599,8.3141,8.3361,8.4022,8.5563,8.5747,8.5159,8.3728,0.0,0.0,0.0,0.0,0.0,0.0,0.0,0.0,0.0,0.0,0.0,0.0,0.0,0.0,0.0,0.0,0.0,0.0,0.0,0.0,0.0,0.0,0.0,0.0,0.0,0.0,0.0,0.0,0.0,0.0,0.0,0.0,0.0,0.0,0.0,0.0,0.0,0.0,0.0,0.0,0.0,0.0,0.0,0.0,0.0,0.0,0.0,0.0,0.0,0.0,0.0,0.0,0.0,0.0,0.0,0.0,0.0,0.0,0.0,0.0,6.6821,0.0,0.0,0.0,0.0,0.0,0.0,0.0,0.0,0.0,0.0,0.0,0.0,0.0,0.0,0.0,0.0,0.0,0.0,0.0,0.0,0.0,0.0,0.0,0.0,0.0,0.0,0.0,0.0,0.0,0.0,0.0,0.0,0.0,0.0,0.0,0.0,0.0,0.0,0.0,0.0,0.0,7.5251,7.8883,8.1379,8.2333,8.303,8.3801,8.4756,8.5416,8.5637,8.5306,8.3177,0.0,0.0,0.0,0.0,0.0,0.0,0.0,0.0,0.0,0.0,0.0,0.0,0.0,0.0,0.0,0.0,0.0,0.0,0.0,0.0,0.0,0.0,0.0,0.0,0.0,0.0,0.0,0.0,0.0,0.0,0.0,0.0,0.0,0.0,0.0,0.0,0.0,0.0,0.0,0.0,0.0,0.0,0.0,0.0,0.0,0.0,0.0,0.0,0.0,0.0,0.0,0.0,0.0,0.0,0.0,0.0,0.0,0.0,0.0,0.0,6.8513,0.0,0.0,0.0,0.0,0.0,0.0,0.0,0.0,0.0,0.0,0.0,0.0,0.0,0.0,0.0,0.0,0.0,0.0,0.0,0.0,0.0,0.0,0.0,0.0,0.0,0.0,0.0,0.0,0.0,0.0,0.0,0.0,0.0,0.0,0.0,0.0,0.0,0.0,0.0,0.0,7.5641,7.9323,8.1746,8.215,8.259,8.3324,8.4499,8.4976,8.538,8.5783,8.303,0.0,0.0,0.0,0.0,0.0,0.0,0.0,0.0,0.0,0.0,0.0,0.0,0.0,0.0,0.0,0.0,0.0,0.0,0.0,0.0,0.0,0.0,0.0,0.0,0.0,0.0,0.0,0.0,0.0,0.0,0.0,0.0,0.0,0.0,0.0,0.0,0.0,0.0,0.0,0.0,0.0,0.0,0.0,0.0,0.0,0.0,0.0,0.0,0.0,0.0,0.0,0.0,0.0,0.0,7.3916,7.4435,7.4409,7.4822,7.5515,7.413,7.3091,7.2322,0.0,0.0,0.0,0.0,0.0,0.0,0.0,0.0,0.0,0.0,0.0,0.0,0.0,0.0,0.0,0.0,0.0,0.0,0.0,0.0,0.0,0.0,0.0,0.0,0.0,7.301,7.2165,0.0,0.0,0.0,0.0,0.0,0.0,0.0,0.0,0.0,0.0,0.0,0.0,7.6252,7.9837,8.2186,8.2186,8.2333,8.2994,8.4499,8.4866,8.5306,8.5967,8.3189,7.9972,0.0,0.0,0.0,0.0,0.0,0.0,0.0,0.0,0.0,0.0,0.0,0.0,0.0,0.0,0.0,0.0,0.0,0.0,0.0,0.0,0.0,0.0,0.0,0.0,0.0,0.0,0.0,0.0,0.0,0.0,0.0,0.0,6.3796,6.3906,0.0,0.0,0.0,0.0,0.0,0.0,0.0,0.0,0.0,0.0,0.0,0.0,0.0,0.0,6.9779,7.1982,7.3333,7.3902,7.5455,7.6861,7.8103,7.7905,7.8323,7.9131,7.89,0.0,7.336,7.386,0.0,0.0,0.0,0.0,0.0,0.0,0.0,0.0,0.0,0.0,0.0,0.0,0.0,0.0,0.0,0.0,0.0,0.0,0.0,0.0,0.0,0.0,7.5616,7.5616,7.5102,7.4294,0.0,7.0624,6.8531,6.8311,0.0,0.0,0.0,0.0,0.0,0.0,0.0,0.0,7.7976,8.0571,8.2186,8.2186,8.2847,8.3618,8.4535,8.5894,8.6738,8.6848,8.572,8.3157,7.8946,7.5697,0.0,0.0,0.0,0.0,0.0,0.0,0.0,0.0,0.0,0.0,0.0,0.0,0.0,0.0,0.0,0.0,0.0,0.0,0.0,0.0,0.0,0.0,0.0,0.0,0.0,0.0,0.0,0.0,0.0,6.5375,6.6292,6.6733,6.5999,6.5264,0.0,0.0,0.0,0.0,0.0,0.0,0.0,0.0,0.0,7.0881,7.1688,7.2349,7.2789,7.3854,7.4642,7.5291,7.6771,7.7922,7.8866,7.9133,7.9438,7.9823,7.9823,7.9015,7.7669,7.6092,7.4707,7.3476,0.0,0.0,0.0,0.0,0.0,7.2339,7.4137,7.536,0.0,0.0,0.0,0.0,0.0,0.0,0.0,0.0,0.0,0.0,0.0,0.0,0.0,7.8846,7.8589,7.8112,7.7304,7.5652,7.367,0.0,7.0257,6.9743,6.9743,0.0,0.0,0.0,0.0,7.6783,7.838,8.0718,8.237,8.2847,8.3214,8.3911,8.5159,8.6334,8.7215,8.7655,8.5917,8.3549,8.0607,7.6886,7.2706,0.0,0.0,0.0,0.0,0.0,0.0,0.0,0.0,0.0,0.0,0.0,0.0,0.0,0.0,0.0,0.0,0.0,0.0,0.0,0.0,0.0,0.0,0.0,0.0,0.0,0.0,0.0,0.0,6.7724,6.8752,6.9155,6.8495,6.7577,0.0,0.0,0.0,0.0,0.0,0.0,6.9816,7.1174,7.2496,7.3707,7.4515,7.5249,7.5836,7.5873,7.6117,7.6781,7.8049,7.9058,7.9858,8.0515,8.09,8.1093,8.1093,8.1708,8.2439,7.9015,7.7246,7.6476,7.4553,7.3553,7.336,7.4899,7.5571,7.607,7.7874,7.9008,7.9258,7.7595,0.0,7.6255,7.4764,0.0,0.0,0.0,0.0,7.8332,7.9984,8.0865,8.1305,8.1305,8.1158,8.0828,8.0241,7.9286,7.7635,0.0,7.3083,7.2401,7.1911,0.0,0.0,0.0,0.0,7.7641,7.8772,8.1012,8.2737,8.3361,8.3765,8.4499,8.571,8.6921,8.7625,8.7741,8.5878,8.3768,8.1387,7.7647,7.3843,6.9992,0.0,0.0,0.0,0.0,0.0,0.0,0.0,0.0,0.0,0.0,0.0,0.0,0.0,0.0,0.0,0.0,0.0,0.0,0.0,0.0,0.0,0.0,0.0,0.0,0.0,0.0,0.0,0.0,0.0,7.0146,7.1321,0.0,0.0,0.0,0.0,6.8788,6.9522,7.0697,7.2239,7.312,7.4661,7.7011,7.7892,7.8369,7.8405,7.8405,7.8721,7.9315,8.0042,8.111,8.2451,8.3086,8.3862,8.4632,8.4632,8.5555,8.6824,8.3401,8.1939,8.19,8.1785,8.0746,7.9477,8.04,7.9834,7.8943,8.0787,8.1462,8.1457,8.0873,7.9717,7.8174,7.646,7.6533,0.0,0.0,7.8405,8.0021,8.1636,8.2113,8.215,8.215,8.1562,8.1012,8.0938,7.9727,7.8295,0.0,7.6423,7.5299,7.3602,0.0,7.3549,7.4343,7.5927,7.7679,7.9517,8.1856,8.3361,8.3398,8.4756,8.571,8.5783,8.7949,8.8472,8.6619,8.6511,8.4728,8.104,7.8534,7.5633,7.2259,6.765,0.0,0.0,0.0,0.0,0.0,0.0,0.0,0.0,0.0,0.0,0.0,0.0,0.0,0.0,0.0,0.0,0.0,0.0,0.0,0.0,0.0,0.0,0.0,0.0,0.0,0.0,0.0,0.0,7.3854,7.4001,0.0,0.0,7.3193,7.3854,7.356,7.5763,7.7121,7.7194,7.8442,7.9103,7.8919,7.9727,7.991,7.936,7.936,7.9448,7.9681,8.0779,8.1565,8.2058,8.3098,8.4093,8.4901,8.4901,8.5863,8.7325,8.6094,8.4939,8.3939,8.3362,8.2439,8.1446,8.1911,8.2073,8.2177,8.2485,8.2927,8.3378,8.2755,8.1452,8.0021,7.9433,7.9103,7.9029,7.9543,8.0865,8.226,8.281,8.4132,8.4903,8.3361,8.3141,8.303,8.2003,8.1305,8.0681,7.9837,7.8626,7.7275,7.5923,7.6079,7.6121,7.5187,7.6859,7.8436,7.9135,8.1454,8.3302,8.381,8.5036,8.5724,8.5518,8.7188,8.7414,8.5502,8.4884,8.355,8.0984,7.8549,7.6011,7.3138,6.8895,6.5027,0.0,0.0,0.0,0.0,0.0,0.0,0.0,0.0,0.0,0.0,0.0,0.0,0.0,0.0,0.0,0.0,0.0,0.0,0.0,0.0,0.0,0.0,0.0,0.0,0.0,0.0,7.4808,7.5616,7.5983,7.5836,7.4992,7.6166,7.7047,7.7341,7.936,8.0351,7.98,8.1048,8.1305,8.0241,8.0718,8.0755,8.0204,7.991,7.9889,8.0124,8.144,8.2246,8.2513,8.4133,8.5363,8.6209,8.6478,8.7401,8.8671,8.8671,8.7863,8.6517,8.5632,8.4978,8.445,8.4327,8.4663,8.5105,8.4833,8.5149,8.562,8.5508,8.4168,8.2663,8.2957,8.2076,8.1195,8.2003,8.2994,8.3875,8.4132,8.5416,8.6187,8.4609,8.4425,8.4462,8.3948,8.3398,8.2994,8.303,8.0751,7.8426,7.7021,7.6976,7.663,7.5037,7.6608,7.8107,7.8514,8.0748,8.2649,8.3438,8.4452,8.4965,8.4737,8.5876,8.6002,8.4264,8.3525,8.2362,8.0751,7.8362,7.6382,7.4661,7.0302,6.5586,6.0575,0.0,0.0,0.0,0.0,0.0,0.0,0.0,0.0,0.0,0.0,0.0,0.0,0.0,0.0,0.0,0.0,0.0,0.0,0.0,0.0,0.0,0.0,0.0,7.1468,7.4147,7.5873,7.5139,7.7194,7.8332,7.7524,7.8222,7.9066,7.9837,7.991,7.991,7.991,8.0645,8.1048,8.1048,8.1048,8.1048,8.1048,8.0277,8.0174,8.0824,8.2335,8.3377,8.4091,8.6425,8.7979,8.8863,8.9633,9.0479,9.1213,9.1213,9.0752,8.9867,8.9094,8.8748,8.864,8.788,8.7552,8.7566,8.7847,8.8035,8.8316,8.9124,8.7766,8.5967,8.6738,8.5306,8.3618,8.4389,8.4646,8.4866,8.56,8.582,8.5857,8.5783,8.5196,8.5049,8.6591,8.571,8.5086,8.6559,8.29,7.8889,7.7015,7.5755,7.4791,7.4064,7.5206,0.0,7.7682,7.9822,8.152,8.2227,8.309,8.3585,8.35,8.4258,8.4194,8.3018,8.2291,8.1379,8.0242,7.8044,7.6763,7.6564,7.1803,6.5973,5.9189,0.0,0.0,0.0,0.0,0.0,0.0,0.0,0.0,0.0,0.0,0.0,0.0,0.0,0.0,0.0,0.0,0.0,0.0,0.0,0.0,0.0,0.0,7.345,7.4625,7.6056,7.7341,7.8332,7.958,8.0241,8.0021,8.1269,8.2186,8.2406,8.2957,8.303,8.2443,8.2627,8.248,8.1893,8.1856,8.1856,8.1856,8.2223,8.25,8.2655,8.4663,8.6014,8.6862,8.85,9.0017,9.1479,9.1672,9.1951,9.2202,9.2202,9.175,9.1046,9.0647,8.984,8.8759,8.8074,8.6793,8.5571,8.6869,8.7311,8.7472,8.828,8.7692,8.6591,8.6224,8.527,8.4315,8.4535,8.5453,8.6261,8.5894,8.6664,8.7252,8.6077,8.5637,8.5416,8.5306,8.538,8.5174,8.421,8.2768,8.1159,7.9489,7.7797,7.6292,7.5378,7.6011,0.0,7.709,7.9415,8.0821,8.0507,8.1887,8.2517,8.1678,8.2286,8.2187,8.1012,8.0842,8.0304,7.9431,7.6776,7.3586,6.9957,6.7981,6.5139,0.0,0.0,0.0,0.0,0.0,0.0,0.0,0.0,0.0,0.0,0.0,0.0,0.0,0.0,0.0,0.0,0.0,0.0,0.0,0.0,0.0,0.0,7.3854,7.5799,7.7414,7.7781,7.8332,7.9617,8.0204,8.0755,8.1452,8.2039,8.27,8.3361,8.3508,8.3398,8.292,8.3214,8.3214,8.2737,8.303,8.3337,8.3645,8.4125,8.4435,8.4763,8.6354,8.7487,8.8369,8.9803,9.121,0.0,9.2864,9.2833,9.2633,9.2633,9.2137,0.0,0.0,0.0,0.0,0.0,8.7166,8.6297,8.7582,8.8243,8.861,8.905,8.8683,8.7876,8.7031,8.6004,8.5159,8.5527,8.604,8.6481,8.6334,8.6995,8.7472,8.6518,8.6297,8.6261,8.6151,8.6224,8.591,8.4675,8.3415,0.0,8.0696,7.8638,7.6827,7.5838,7.6082,7.6386,7.6386,7.8279,7.9608,7.9471,8.0709,8.1251,8.0569,8.0395,0.0,0.0,0.0,7.7907,7.7212,7.5578,0.0,0.0,0.0,0.0,0.0,0.0,0.0,0.0,5.091,4.744,0.0,0.0,0.0,0.0,0.0,0.0,0.0,0.0,0.0,0.0,0.0,0.0,0.0,0.0,0.0,0.0,7.6533,7.8148,7.969,7.9396,7.925,7.9837,8.0021,8.0608,8.2039,8.1636,8.1856,8.3287,8.281,8.248,8.248,0.0,0.0,0.0,0.0,8.4986,8.5574,8.5685,8.6088,8.6731,8.7589,8.839,8.9234,9.0915,9.2095,9.2979,9.3599,9.3443,9.2764,9.2679,9.2203,9.1508,9.1432,9.096,9.0152,8.875,8.8294,8.8463,8.9271,0.0,0.0,9.0592,9.0115,8.9381,8.8463,8.7215,8.6187,8.6811,8.6554,8.6224,8.6958,8.7142,8.7142,8.7142,8.7068,8.7215,8.7912,8.7582,8.69,8.633,8.4335,8.2325,8.0997,7.8579,7.6657,7.5946,7.5743,7.5709,7.5709,7.7029,7.8213,7.8788,0.0,0.0,8.0073,7.8669,7.7816,7.7882,7.6491,7.5144,7.4244,7.4212,7.3201,7.1038,7.0421,6.8845,6.634,6.2253,5.9681,5.8419,5.2855,4.8434,0.0,0.0,0.0,0.0,0.0,0.0,0.0,0.0,0.0,0.0,0.0,0.0,0.0,0.0,0.0,7.6533,7.8222,7.9653,8.0645,8.1195,8.1305,8.0828,8.1342,8.1856,8.215,8.2663,8.3067,8.3398,8.3875,8.4132,8.4132,8.4278,0.0,8.4389,8.5064,8.5492,8.5574,8.6281,8.6735,8.6909,0.0,0.0,9.1168,9.3328,9.4749,9.552,9.5125,9.4468,9.3774,9.316,9.2503,9.1634,9.0987,9.0601,9.0391,8.9455,8.9154,8.9307,9.0115,9.0482,9.0592,9.0592,9.0482,9.0115,8.8647,8.7986,0.0,8.7142,8.7362,8.7766,8.7949,8.7986,8.7986,8.7986,8.7472,8.7031,8.7215,8.7619,8.7231,8.4692,8.4251,8.3508,8.0765,7.8443,7.686,7.669,7.6115,7.5709,7.5709,7.7029,7.7807,7.7367,7.8517,7.9329,7.9329,7.7936,7.7289,7.7849,7.6491,7.4712,7.2751,7.2719,7.1718,6.9476,6.9325,6.902,6.8405,6.4188,6.1979,6.154,5.4889,4.9365,0.0,0.0,0.0,0.0,0.0,0.0,0.0,0.0,0.0,0.0,0.0,7.2055,0.0,0.0,7.679,7.8846,7.9837,8.0828,8.2039,8.2553,8.2663,8.226,8.292,8.3398,8.3398,8.3765,8.4022,8.4022,8.4389,8.4609,8.4609,8.4976,8.5196,8.5196,8.589,8.6598,8.7342,8.7754,8.8549,8.9745,9.086,9.2106,9.3327,9.4484,9.5253,9.5741,9.5363,9.4579,9.347,9.2765,9.2159,9.1766,9.1306,9.0852,9.0483,8.9669,8.9417,8.9528,9.0335,9.0592,9.0592,9.0592,9.0592,9.0298,8.8683,8.8206,8.8133,8.7729,8.7876,8.8206,8.8206,8.8206,8.8096,8.7692,8.7288,8.6995,8.6995,8.7325,8.6794,8.4112,8.3904,8.3384,8.0709,7.8991,7.7874,7.7502,7.6792,7.6149,7.5743,7.6724,7.7299,7.6927,7.8213,7.9126,7.9126,7.7264,7.5652,7.4494,7.3718,7.2737,7.1621,7.1591,7.1092,6.9961,6.9662,6.907,6.8047,6.4618,6.2371,6.1075,5.6096,5.095,0.0,0.0,0.0,0.0,0.0,0.0,0.0,0.0,7.1945,7.3597,7.3927,7.4771,7.7524,7.8038,7.8736,8.0901,8.1379,8.1929,8.3251,8.3691,8.3875,8.3875,8.4315,8.4609,8.4609,8.4756,8.4829,8.4829,8.4976,8.5086,8.5086,8.5673,8.604,8.604,8.6764,8.7736,8.891,8.922,9.0276,9.2066,9.2565,9.3447,9.483,9.5097,9.525,9.5189,9.4915,9.4047,9.2699,9.2089,9.1803,9.1803,9.1803,9.14,9.0739,9.0115,8.9895,8.9968,9.0629,9.0849,9.0849,9.0849,9.0849,9.0555,8.9124,8.8683,8.8647,8.85,8.8426,8.8426,8.8426,8.8426,8.8243,8.7435,8.7252,8.7215,8.7031,8.6856,8.6064,8.4041,8.345,8.2571,8.0542,7.9701,7.9058,7.8314,7.757,7.6893,7.6217,7.6826,7.7266,7.713,7.8314,7.8892,7.8216,7.6326,7.3959,7.1018,7.1009,7.1038,7.0919,7.1038,7.1038,7.0889,7.041,6.9175,6.7305,6.4856,6.2361,5.9921,5.637,5.1898,7.5448,7.4037,7.3744,7.5102,7.4882,7.5139,0.0,0.0,7.6974,7.8626,7.8956,7.9286,8.0388,8.0608,8.0901,8.1893,8.2663,8.3214,8.3398,8.4646,8.5527,8.5527,8.4976,8.4609,8.4609,8.5233,8.5673,8.5673,8.6334,8.6738,8.6738,8.6811,8.6885,8.6885,8.7544,8.8046,8.819,8.9553,9.0396,9.0663,9.2726,9.3835,9.407,9.5521,9.5826,9.5142,9.3821,9.2728,9.1912,9.1876,9.1803,9.1803,9.1803,9.173,9.1657,9.1546,9.1546,9.1546,9.162,9.1657,9.1657,9.1657,9.1657,9.151,9.0592,9.0335,9.0188,8.9491,8.9271,8.9271,8.9271,8.9271,8.9087,8.828,8.8059,8.7876,8.7142,8.6211,8.5123,8.3874,8.275,8.1723,8.0476,8.0141,7.9837,7.9092,7.8348,7.7841,7.7739,7.8382,7.8619,7.7942,7.8619,7.7977,7.5232,7.3997,7.2768,7.1018,7.1457,7.1517,7.0919,7.1457,7.1517,7.0919,7.0829,6.9825,6.7996,6.5501,6.3319,6.1079,5.511,5.0402,7.8014,7.7488,7.7414,7.8075,7.8002,7.8112,7.947,7.925,7.9103,8.0241,8.0498,8.0755,8.1562,8.1709,8.1966,0.0,8.3177,8.3728,8.4682,8.538,8.5967,8.6444,8.6187,8.6004,8.6004,8.6297,8.6518,8.6518,8.6811,8.6995,8.6995,8.6995,8.6995,8.6995,8.7298,8.7905,8.8815,8.9473,9.0418,9.18,9.2796,9.3555,9.4048,9.5127,9.5273,9.4476,9.3447,9.2795,9.2537,9.2024,9.2097,9.2501,9.1987,9.1803,9.173,9.1253,9.14,9.173,9.1253,9.14,9.1803,9.1803,9.1803,9.1657,9.0849,9.0592,9.0555,9.0188,9.0115,9.0115,9.0115,9.0115,8.9784,8.85,8.8206,8.7986,8.7178,8.6064,8.4931,8.3874,8.2661,8.1569,8.0376,8.0209,8.0107,7.9803,7.9126,7.8483,7.8044,7.8247,7.7983,7.6875,7.6505,7.5728,7.3934,7.3441,7.2703,7.1588,7.1038,7.0829,7.0889,7.0829,7.0829,7.0889,6.9781,6.8181,6.5975,6.3734,6.1065,5.7815,5.3668,4.9904,7.969,7.9947,8.0131,8.0131,8.0277,8.0461,8.0461,8.0461,8.0608,8.1195,8.1342,8.1525,8.2076,8.237,8.2737,8.3324,8.3765,8.4462,8.5637,8.5967,8.6334,8.6921,8.6995,8.6995,8.6995,8.6995,8.6995,8.6995,8.6995,8.6995,8.6995,8.6995,8.6995,8.6995,8.6995,8.7667,8.896,8.9399,9.061,9.2486,9.2974,9.3498,9.4102,9.4424,9.4319,9.3764,9.2987,9.2848,9.3015,9.217,9.2317,9.3015,9.2134,9.1803,9.1693,9.0665,9.0922,9.1693,9.0886,9.1143,9.1803,9.1803,9.1803,9.1693,9.1106,9.0922,9.085,9.0483,9.0408,9.0408,9.0408,9.0408,9.0154,8.9089,8.8683,8.8209,8.7083,8.5801,8.4532,8.3329,8.2244,8.1125,8.0376,8.0209,8.0209,8.0209,7.9769,7.9228,7.8653,7.8084,7.7278,7.6142,7.4686,7.3682,7.3168,7.2737,7.2109,7.1708,7.059,7.0111,7.038,7.047,7.0271,6.991,6.8876,6.6814,6.3597,6.187,5.9175,5.5365,5.1946,4.8673,7.9984,8.0351,8.0975,8.0975,8.1562,8.2113,8.2113,8.2113,8.2113,8.215,8.215,8.215,8.2186,8.2847,8.3398,8.3398,8.4719,8.5747,8.5783,8.6481,8.6995,8.6995,8.6995,8.6995,0.0,8.6995,8.6995,8.6995,8.6995,8.6995,8.6995,8.6995,8.6995,8.6995,8.6995,8.7399,8.8239,8.9739,9.0926,9.1746,9.3313,9.4064,9.4102,9.3387,9.3051,9.2987,9.2159,9.2281,9.3015,9.217,9.2317,9.3015,9.2134,9.1803,9.162,9.0041,9.0445,9.1693,9.0886,9.1143,9.1803,9.1803,9.1803,9.1803,9.1767,9.1767,9.1509,9.0328,9.0051,9.0051,9.0051,9.0051,9.011,9.0448,8.9931,8.8801,8.6959,8.4988,8.3329,8.2152,8.1029,8.0175,8.0209,8.0209,8.0209,8.0209,8.0175,8.0175,8.0141,7.8241,7.6795,7.6795,7.4065,7.2396,7.3076,7.1279,7.0389,7.0889,7.032,6.9692,6.9093,7.0829,7.0371,6.7295,6.8371,6.6651,6.1635,6.0498,5.8395,5.534,4.9459,4.6352,8.2113,8.2406,8.2737,8.3251,8.3581,8.3801,8.3801,8.3398,8.3141,8.3691,8.292,8.237,8.292,8.3214,8.3581,8.4132,8.5086,8.5967,8.6518,8.6848,8.6995,8.6995,8.6995,0.0,0.0,0.0,0.0,8.6995,8.6995,8.6995,8.6995,8.6995,8.6995,8.6995,8.7509,8.8206,8.9014,8.9993,9.0974,9.1786,9.2283,9.2858,9.3387,9.3114,9.2987,9.2987,9.2699,9.2779,9.3015,9.217,9.2317,9.3015,9.2134,9.1473,9.0886,8.9821,9.0078,9.0886,9.0078,9.0702,9.1803,9.1803,9.1803,9.1803,9.1803,9.1803,9.1694,9.1324,9.0637,9.0006,9.0006,9.0006,8.9906,8.9465,8.9384,8.8874,8.6919,8.5024,8.3242,8.2152,8.0966,8.0209,8.0209,8.0209,8.0209,8.0209,8.0209,8.0209,8.0209,7.7792,7.5861,7.5376,7.2853,7.1359,7.1571,7.0705,7.026,7.0859,6.9482,6.8764,6.9004,6.9632,6.892,6.666,6.619,6.3997,5.9916,5.8316,5.544,5.1774,4.8552,4.5755,8.3361,8.3618,8.3948,8.4462,8.4609,8.4609,8.4609,8.4205,8.3948,8.4462,8.3544,8.281,8.3317,8.3618,8.4095,8.4903,8.593,8.6848,8.7362,8.7435,8.7325,8.7031,8.6995,8.6995,0.0,0.0,0.0,8.6995,8.6995,8.6995,8.6995,8.6995,8.6995,8.6995,8.7766,8.861,8.9417,9.0225,9.0996,9.1803,9.1803,9.2089,9.2566,9.2566,9.2566,9.2566,9.2566,9.2779,9.3015,9.217,9.2317,9.3015,9.2134,9.1326,9.0555,9.0041,9.0188,9.0482,8.9711,9.0445,9.1803,9.1803,9.1803,9.1803,9.1803,9.1803,9.1694,9.1249,9.0284,8.939,8.939,8.9014,8.8785,8.9112,8.918,8.8647,8.6729,8.5086,8.3508,8.1603,8.0706,8.0209,8.0209,7.9734,7.9392,7.9392,7.8908,7.8802,7.9288,7.6748,7.4604,7.4161,7.1965,7.0769,7.1218,7.0021,6.9632,7.053,6.8704,6.7837,6.8256,6.8734,6.7776,6.4907,6.4386,6.2112,5.8108,5.5717,5.301,4.9961,4.7141,4.4733,8.3728,8.4095,8.4682,8.4719,8.4719,8.4719,8.4719,8.4713,8.4639,8.4639,8.3985,8.3471,0.0,0.0,8.4903,8.56,8.7105,8.8133,8.8133,8.8133,8.7876,0.0,0.0,0.0,0.0,0.0,0.0,8.6995,0.0,8.6995,8.6995,8.6995,8.7031,8.7068,8.7839,8.8647,8.9454,9.0262,9.1033,9.1803,9.1803,9.1803,9.1803,9.1803,9.1803,9.1803,9.1803,9.2281,9.2978,9.2134,9.2281,9.2941,9.206,9.1253,9.0555,9.0555,9.0555,9.0445,8.9711,9.0482,9.1803,9.1803,9.1803,9.1803,9.1803,9.1803,9.1546,9.0364,8.9135,8.8259,8.8133,8.7246,8.6961,8.927,8.923,8.8193,8.636,8.532,8.384,8.0777,8.0209,8.0209,8.0209,7.8802,7.7773,7.7882,7.6491,7.5924,7.7555,7.5115,7.3292,7.3292,7.1309,7.053,7.1727,6.9482,6.8555,6.9812,6.8046,6.6969,6.6879,6.8041,6.6779,6.2424,6.3032,6.0978,5.6118,5.3084,5.0984,4.9819,4.5537,4.3215,8.5086,8.5343,8.5637,8.6261,8.6407,8.6407,8.6407,8.5894,8.5521,8.5521,8.4829,8.4132,8.3471,8.4559,0.0,8.4939,8.6261,0.0,8.7325,8.7325,0.0,8.7031,0.0,8.6995,8.6995,8.6995,0.0,0.0,8.6995,8.6995,8.6995,8.6995,8.7288,8.7876,8.8683,8.9491,9.0298,9.1106,9.1583,9.1803,9.1803,9.1803,9.1803,9.1803,9.1803,9.1803,9.1803,9.1913,9.2097,9.1877,9.1913,9.206,9.1216,9.0408,8.9711,8.9711,8.9711,8.9784,9.0188,9.0959,9.1803,9.1803,9.1803,9.1803,9.1803,9.1803,9.1546,9.0364,8.9135,8.8078,8.7151,8.6575,8.661,8.7116,8.7352,8.6931,8.5019,8.4008,8.2811,8.0578,8.0209,8.0209,8.0209,7.799,7.6636,7.7773,7.4644,7.3138,7.581,7.4557,7.3261,7.323,7.1704,7.0799,7.1128,6.9662,6.8675,6.8495,6.7537,6.655,6.5562,6.5617,6.4224,6.1181,6.0537,5.8517,5.4988,5.272,5.0232,4.7759,4.5147,4.3132,8.6187,8.6334,8.6444,8.6885,8.6995,8.6921,8.6559,8.6119,8.5678,8.5317,8.4908,8.4499,8.3997,8.4939,8.5809,0.0,0.0,0.0,8.7545,8.7545,8.7435,0.0,8.6995,0.0,8.6995,8.6995,8.6995,0.0,8.6995,8.6995,8.6995,8.6995,8.7362,8.8169,8.8977,8.9968,9.1106,9.1583,9.1803,9.1803,9.1803,9.1803,9.1803,9.1803,9.1803,9.1803,0.0,9.1803,9.1803,9.1803,9.1803,9.173,9.0922,9.0115,8.9417,8.9417,8.9417,8.9528,9.0335,9.1143,9.1803,9.1803,9.1803,9.1803,9.1803,9.1803,9.1546,9.0364,8.9135,8.7987,8.6672,8.6053,8.5786,8.6217,8.6516,8.6371,8.4977,8.4058,8.2845,8.068,8.0209,8.0209,8.0209,7.7665,7.5924,7.6748,7.3475,7.1473,7.3384,7.2798,7.2204,7.2174,7.1104,7.062,7.0889,6.9183,6.8076,6.7986,6.6411,6.5029,6.4293,6.3635,6.2124,5.9914,5.9035,5.7302,5.4561,5.1462,4.8997,4.6882,4.4096,4.2196,8.6995,8.6995,8.6995,8.6995,8.6995,8.6811,8.594,8.5793,8.5573,8.4808,8.4688,8.4719,8.4625,8.5317,8.6151,8.6738,8.7545,8.8026,8.8059,8.8059,8.7769,8.7105,8.6995,8.6995,8.6995,8.6995,8.6995,8.6995,8.6995,8.6995,8.6995,8.7105,8.7619,8.8647,8.9344,9.0445,9.195,9.184,9.1803,9.1803,9.1803,9.1803,9.1803,9.1803,9.1803,9.1803,0.0,0.0,9.1803,9.1803,9.1803,9.1693,9.0812,9.0005,8.9417,8.9307,8.9271,8.9381,9.0298,9.1069,9.1657,9.1767,9.1803,9.1803,9.162,9.1546,9.1249,8.9924,8.8754,8.7677,8.6512,8.5412,8.489,8.5852,8.6152,8.5945,8.5185,8.4419,8.3065,8.0647,8.0209,8.0107,7.9972,7.7555,7.5579,7.5348,7.2768,7.0889,7.0889,7.0889,7.0889,7.0889,7.041,7.032,7.0859,6.8585,6.7205,6.7528,6.4814,6.3147,6.2721,6.1657,6.0403,5.8797,5.8044,5.6737,5.4687,5.0226,4.7634,4.6994,4.3116,4.1172,8.6995,8.6995,8.6995,8.6995,8.6995,8.6811,8.6004,8.5778,8.5588,8.4792,8.511,8.539,8.4719,8.582,8.6628,8.6077,8.6701,8.7215,8.7215,8.7215,8.7178,8.7031,8.6995,8.6995,8.6995,8.6995,0.0,0.0,0.0,8.6995,8.6995,8.7619,8.8977,9.1106,9.1326,9.1877,9.2868,9.217,9.1803,9.1803,9.1803,9.1803,9.1803,9.1803,9.1803,9.1803,9.1803,0.0,9.1803,9.1803,9.1803,9.1657,9.0188,8.9528,8.9344,8.8647,8.8426,8.861,9.0078,9.0702,9.0922,9.1583,9.1803,9.162,9.0637,9.0284,8.9842,8.7677,8.6865,8.6414,8.524,8.4819,8.4606,8.489,8.489,8.4687,8.3906,8.2786,8.1495,8.0344,8.0209,7.9836,7.8452,7.686,7.5115,7.3807,7.2078,7.0889,7.0889,7.0889,7.0889,7.0889,7.0799,7.0799,7.0889,6.9004,6.707,6.5211,6.3919,6.2209,5.9634,5.8941,5.8467,5.8052,5.665,5.5602,5.5239,5.0741,4.8276,4.7656,4.3259,4.1172,8.6995,8.6995,8.6995,8.6995,8.6995,8.6701,8.5422,8.5521,8.5478,8.4198,8.5,8.5668,8.5275,8.6155,8.7031,8.7031,8.7031,8.7142,8.7582,8.7252,8.6995,8.6995,8.6995,8.6995,8.6995,8.6995,8.6995,0.0,0.0,8.6995,8.6995,8.8169,8.9968,9.2391,9.2464,9.2684,9.3088,9.2684,9.2244,9.1803,9.1803,9.1803,9.1803,9.1803,9.1803,9.1803,9.1803,0.0,9.1803,9.1803,9.1803,9.1657,9.0041,8.9417,8.9271,8.8023,8.7839,8.839,8.9564,9.0262,9.0739,9.1546,9.1803,9.162,9.0364,9.0006,8.9474,8.7021,8.6414,8.6152,8.489,8.464,8.464,8.464,8.4336,8.3828,8.3084,8.2069,8.1054,8.0344,8.0209,7.9734,7.8131,7.6604,7.5115,7.3443,7.1952,7.0889,7.0889,7.0889,7.0889,7.0889,7.1218,7.1278,7.0919,6.9423,6.739,6.4682,6.2623,6.0357,5.7971,5.7059,5.6868,5.7009,5.6226,5.5666,5.539,5.0857,4.8411,4.779,4.33,4.1172,8.6995,8.6995,8.6995,8.6995,8.6995,8.6591,8.4982,8.5233,8.5411,8.397,8.4792,8.583,8.6013,8.6559,8.7252,8.8059,8.7655,8.7472,8.8096,8.7655,8.7215,8.7031,8.6995,8.6995,8.6995,8.6995,0.0,0.0,0.0,0.0,8.7252,8.8793,9.0739,9.3015,9.3272,9.3455,9.3602,9.3455,9.2941,9.206,9.206,9.1987,9.1803,9.1803,9.1803,9.1803,9.1803,0.0,0.0,9.1803,9.1693,9.14,8.9968,8.9307,8.8977,8.7545,8.7399,8.8096,8.9087,8.9821,9.0519,9.1473,9.162,9.1173,9.0006,8.9474,8.8754,8.6575,8.6053,8.5786,8.489,8.464,8.464,8.464,8.4065,8.3287,8.2577,8.1832,8.1054,8.0344,8.0209,7.9632,7.7773,7.6379,7.4998,7.2984,7.1728,7.0889,7.0889,7.0889,7.0889,7.0889,7.1487,7.1667,7.1158,6.9812,6.7648,6.4339,6.1585,5.9019,5.6667,5.598,5.5892,5.6194,5.6219,5.5942,5.539,5.0857,4.8411,4.779,4.33,4.1172,8.6995,8.6995,8.6995,8.6995,8.6995,8.6591,8.4976,8.5233,8.5527,8.4646,8.5159,8.6004,8.6775,8.6958,8.7252,8.8059,8.8133,8.8133,8.8206,8.8133,8.7839,8.7105,8.6995,8.6995,8.6995,8.6995,0.0,0.0,0.0,0.0,8.8059,8.9638,9.1289,9.3051,9.3822,9.4556,9.529,9.4556,9.3786,9.2978,9.2978,9.2574,9.1803,9.1803,9.1803,9.1803,9.1803,0.0,0.0,9.1803,9.1363,9.0629,8.9748,8.8977,8.8206,8.7325,8.7068,8.7325,8.8904,8.9454,8.9784,9.1289,9.106,8.9924,8.879,8.762,8.6414,8.517,8.4819,8.4713,8.4606,8.464,8.464,8.464,8.4065,8.3287,8.2577,8.1832,8.1054,8.0344,8.0209,7.9288,7.6266,7.5695,7.4526,7.1601,7.1018,7.0889,7.0889,7.0889,7.0889,7.0889,7.1487,7.1876,7.1787,7.0081,6.7284,6.3292,6.1923,5.9344,5.5011,5.6188,5.6671,5.6219,5.6219,5.5942,5.539,5.0857,4.8411,4.779,4.33,4.1172,8.6995,8.6995,8.6995,8.6995,8.6628,8.5967,8.4866,8.5233,8.5563,8.4762,8.5637,8.6628,8.6958,8.6995,8.7435,8.872,8.8536,8.8536,8.9528,8.9234,8.8647,8.7839,8.7729,8.7545,0.0,0.0,0.0,0.0,0.0,0.0,8.8904,9.0005,9.1803,9.4483,9.485,9.518,9.5511,9.518,9.463,9.3822,9.3345,9.2941,9.2574,9.2024,9.1803,9.1803,9.1803,0.0,0.0,9.1803,9.1326,9.0519,8.9711,8.894,8.8096,8.7325,8.6995,8.7252,8.8867,8.9417,8.9674,9.1289,9.0443,8.8841,8.8437,8.7861,8.7056,8.517,8.464,8.464,8.464,8.464,8.464,8.464,8.3727,8.278,8.2475,8.1832,8.1054,8.0344,8.0547,7.979,7.6217,7.5579,7.4526,7.1375,7.0889,7.0889,7.0889,7.0889,7.1038,7.1457,7.2086,7.2325,7.1906,6.947,6.6591,6.3106,6.0648,5.8032,5.4728,5.5842,5.6445,5.6219,5.4647,5.3765,5.3717,4.8742,4.6312,4.5966,4.2705,4.1172,8.7252,8.7178,8.6995,8.6995,8.6407,8.56,8.4792,8.5233,8.549,8.4468,8.5678,8.6921,8.6701,8.6848,8.7472,8.883,8.8793,8.894,9.0115,8.9968,8.9454,8.8647,8.8757,8.85,0.0,0.0,0.0,0.0,0.0,0.0,0.0,9.0776,9.2427,9.474,9.5474,9.5878,9.5878,9.5878,9.5474,9.463,9.3859,9.3345,9.3088,9.2207,9.1803,9.1803,0.0,0.0,0.0,9.1803,9.1179,9.0188,8.9638,8.8757,8.7802,8.7472,8.7362,8.7582,8.9197,8.9784,9.0005,9.1363,9.0443,8.8702,8.8313,8.7677,8.6803,8.5066,8.464,8.464,8.464,8.464,8.464,8.464,8.3659,8.2678,8.2475,8.2002,8.1393,8.0648,8.0578,7.9595,7.6457,7.5391,7.3959,7.1247,7.0889,7.0889,7.0889,7.0889,7.1158,7.1816,7.2505,7.2714,7.2235,6.9588,6.6593,6.3526,6.0607,5.7926,5.5458,5.6369,5.6796,5.647,5.3908,5.2559,5.2249,4.7267,4.4858,4.4558,4.2336,4.1172,8.7729,8.7619,8.6995,8.6995,8.6407,8.56,8.4792,8.5233,8.5343,8.3765,8.5343,8.6775,8.5967,8.6481,8.7288,8.8096,8.8867,8.9417,8.9417,9.0115,9.0298,8.9491,9.0115,8.9968,8.8353,0.0,0.0,0.0,0.0,0.0,0.0,9.217,9.3088,9.3125,9.5437,9.6685,9.6685,9.6685,9.6282,9.5474,9.4666,9.3859,9.3088,9.2207,9.1803,0.0,0.0,0.0,0.0,9.1803,9.0849,8.9417,8.9417,8.8426,8.7105,8.7912,8.8206,8.8426,9.0041,9.0592,9.0739,9.1546,9.102,8.9796,8.8614,8.6512,8.4606,8.4606,8.464,8.464,8.464,8.464,8.464,8.464,8.4031,8.3287,8.2577,8.2408,8.2171,8.1426,8.0114,7.8494,7.6985,7.4791,7.2798,7.1148,7.0889,7.0889,7.0889,7.0889,7.1158,7.1816,7.2505,7.2924,7.2894,7.0536,6.7769,6.4833,6.2507,5.999,5.7047,5.8102,5.8177,5.7047,5.4616,5.275,5.1531,4.7113,4.4689,4.4096,4.2062,4.1172,8.8059,8.8023,8.7692,8.7142,8.5967,8.4903,8.4646,8.4389,8.4168,8.4205,8.527,8.593,8.5123,8.6077,8.7252,8.8059,8.8904,8.9784,9.0886,9.0812,9.0298,8.9528,8.8647,8.7949,0.0,0.0,0.0,0.0,0.0,0.0,0.0,9.3345,9.3932,9.3932,9.5731,9.6685,9.6685,9.6685,9.6575,9.6318,9.496,9.4153,9.3859,9.2464,0.0,0.0,0.0,0.0,0.0,9.0996,9.0041,8.8573,8.8573,8.828,8.7839,8.8096,8.8573,8.9197,9.0225,9.0592,9.0739,9.1546,9.048,8.8702,8.8313,8.7056,8.5719,8.4785,8.464,8.464,8.464,8.464,8.464,8.464,8.4065,8.3422,8.3186,8.3152,8.2915,8.2205,8.169,8.036,7.7197,7.5709,7.3959,7.1247,7.0889,7.0889,7.0889,7.0889,7.1338,7.2475,7.2355,7.2385,7.2864,6.8976,6.6034,6.4693,6.1027,5.8374,5.7072,5.8127,5.8378,5.765,5.481,5.2917,5.2202,4.7267,4.3946,4.2042,4.1463,4.1172,8.8133,8.7766,8.7178,8.6664,8.5343,8.4168,8.4168,8.3544,8.3104,8.3581,8.4315,8.4756,8.4242,8.5453,8.6811,8.7619,8.8683,8.9784,9.0739,9.0739,9.0555,9.0335,0.0,0.0,0.0,0.0,0.0,0.0,0.0,0.0,0.0,9.3859,9.4446,9.474,9.6025,9.6685,9.6685,9.6685,9.6685,9.6685,9.5364,9.4593,9.4226,9.2905,0.0,0.0,0.0,0.0,0.0,9.0408,8.9564,8.861,8.8316,8.8206,8.8243,8.8536,8.916,8.9968,9.0776,9.1069,9.1143,9.1657,9.0204,8.8043,8.7151,8.635,8.5617,8.4785,8.464,8.464,8.464,8.464,8.464,8.464,8.4268,8.3862,8.3558,8.3727,8.3693,8.2949,8.1632,7.9891,7.7584,7.5276,7.3138,7.1148,7.0889,7.0889,7.0889,7.1128,7.1607,7.2445,7.2385,7.194,7.1154,6.7886,6.5071,6.3537,6.0257,5.8353,5.7976,5.8629,5.8755,5.8227,5.5199,5.3299,5.2774,4.7421,4.3659,4.1172,4.1172,4.1172,0.0,8.6958,8.5857,8.582,8.4609,8.3398,8.3398,8.2774,0.0,8.226,8.2884,8.3398,8.3398,8.4719,8.6077,8.6958,8.839,8.9454,8.9491,9.0041,9.0739,9.1546,8.9564,0.0,0.0,0.0,0.0,0.0,0.0,0.0,0.0,9.3932,9.474,9.5584,9.6318,9.6685,9.6685,9.6685,9.6685,9.6685,9.5878,9.5107,9.4373,9.3565,0.0,0.0,0.0,0.0,0.0,9.0041,8.9381,8.9271,8.8573,8.828,8.839,8.9197,9.0005,9.0812,9.1546,9.1803,9.1803,9.162,9.0006,8.7769,8.5344,8.464,8.464,8.464,8.464,8.464,8.464,8.464,8.464,8.464,8.464,8.4437,8.3727,8.4133,8.4403,8.3625,8.0517,7.7896,7.7714,7.4005,7.1018,7.0919,7.0889,7.0919,7.0979,7.1457,7.1846,7.1876,7.2222,7.1317,6.8161,6.6876,6.4908,6.1715,6.0175,5.9483,5.9483,5.9483,5.9282,5.878,5.5863,5.388,5.3005,4.7705,4.3813,4.1172,4.1172,4.1172,8.6151,0.0,8.6591,8.593,8.4609,8.3398,0.0,8.2774,8.237,8.2994,8.3287,8.3398,8.3398,8.4719,8.6261,8.7692,8.8757,8.9638,9.0225,8.9417,8.905,8.9895,8.839,0.0,0.0,0.0,0.0,0.0,0.0,0.0,0.0,9.4777,9.5584,9.6392,9.6612,9.6685,9.6685,9.6685,9.6685,9.6685,9.5878,9.5401,9.518,9.4373,0.0,0.0,0.0,0.0,9.0812,8.9821,8.905,8.8536,8.8977,8.9124,8.9234,9.0041,9.0849,9.1546,9.173,9.1803,9.1509,8.9677,8.8702,8.7804,8.5344,8.464,8.464,8.464,8.464,8.464,8.464,8.464,8.464,8.464,8.464,8.4573,8.4403,8.4505,8.4403,8.3625,8.1358,7.904,7.7222,7.4613,7.2299,7.1018,7.0889,7.1098,7.1577,7.1338,7.1338,7.1846,6.9854,6.7507,6.4912,6.5553,6.4908,6.1715,6.0175,5.9483,5.9483,5.9483,5.9433,5.9307,5.7324,5.4146,4.9752,4.7976,4.5167,4.1172,4.1172,4.1172,8.5013,8.5563,8.5783,8.5343,8.4058,8.2957,8.3324,8.248,8.1966,8.3177,8.3104,8.2957,8.3361,8.5013,8.6775,8.7986,8.9197,9.0115,9.0555,8.9858,8.9601,9.0408,8.9417,0.0,0.0,0.0,0.0,0.0,0.0,0.0,0.0,9.507,9.5878,9.6685,9.6685,9.6685,9.6685,9.6685,9.6685,9.6685,9.6282,9.5658,9.4923,9.4483,9.3859,0.0,0.0,0.0,9.162,8.9674,8.905,8.9271,8.8977,8.9307,9.0005,9.0445,9.1106,9.1803,9.1803,9.1803,9.1435,8.905,8.8259,8.7804,8.5344,8.464,8.464,8.464,8.464,8.464,8.464,8.464,8.464,8.464,8.464,8.464,8.464,8.464,8.4156,8.267,8.1138,7.912,7.6172,7.4307,7.2643,7.1148,7.0889,7.1128,7.1787,7.1577,7.1076,7.0282,6.8672,6.61,6.2283,6.3035,6.263,6.005,5.9617,5.9483,5.9483,5.9483,5.9257,5.878,5.6671,5.3401,4.8636,4.7264,4.471,4.1172,4.1172,4.1172,8.4389,8.4609,8.4646,8.4756,8.3654,8.2737,8.3434,8.2553,8.1929,8.3324,8.303,8.281,8.3618,8.5563,8.7325,8.8243,8.9528,9.0445,9.0445,9.0225,9.0445,9.1473,9.0812,0.0,0.0,0.0,0.0,0.0,0.0,0.0,0.0,9.507,9.5878,9.6685,9.6685,9.6685,9.6685,9.6685,9.6649,9.6539,9.6649,9.5841,9.4299,9.4299,9.3786,0.0,0.0,0.0,9.2501,8.9711,8.9381,9.0482,8.9234,8.9528,9.0629,9.0739,9.1216,9.1803,9.1803,9.1803,9.1435,8.905,8.8223,8.7769,8.5344,8.464,8.464,8.464,8.464,8.464,8.464,8.464,8.464,8.464,8.464,8.464,8.464,8.4291,8.349,8.1414,8.0016,7.8125,7.487,7.354,7.2455,7.1148,7.0889,7.1188,7.1936,7.1493,7.0415,6.8383,6.7494,6.4971,6.0173,6.0026,5.9454,5.8026,5.883,5.9408,5.9483,5.9483,5.8956,5.7801,5.537,5.2272,4.8524,4.616,4.3659,4.1172,4.1172,4.1172,8.4352,8.4609,8.4756,8.5453,8.4903,8.4278,8.4389,8.4242,8.4132,8.4352,8.4315,8.4499,8.527,8.6297,8.7509,8.8977,8.9454,8.9601,0.0,0.0,8.8353,9.0519,0.0,0.0,0.0,0.0,0.0,0.0,0.0,0.0,0.0,9.507,9.5878,9.6685,9.6685,9.6685,9.6685,9.6685,9.6355,9.5694,9.6392,9.5841,9.4299,9.4299,9.3455,0.0,0.0,9.0739,9.0959,9.0445,9.0372,9.0629,9.1069,9.0996,9.0702,9.1363,9.1693,9.1803,9.1803,9.1803,9.1435,8.905,8.8259,8.7804,8.5344,8.464,8.464,8.464,8.464,8.464,8.464,8.464,8.464,8.464,8.464,8.464,8.464,8.3029,8.1414,8.0464,7.7511,7.4961,7.3663,7.2296,7.1148,7.0889,7.0889,7.1368,7.2595,7.0002,6.8026,6.8161,6.3972,6.0535,5.9114,5.8208,5.7646,5.7876,5.8453,5.9006,5.9483,5.9483,5.8755,5.7198,5.5175,5.2084,4.8052,4.5857,4.3659,4.1172,4.1172,4.1172,8.4242,8.4609,8.4792,8.56,8.5196,8.4719,8.5159,8.4903,8.4719,8.5159,8.56,8.5894,8.582,8.7178,8.8573,8.9307,8.9784,8.9931,8.9491,8.916,8.9381,0.0,0.0,0.0,0.0,0.0,0.0,0.0,0.0,0.0,0.0,0.0,9.5217,9.6025,9.5621,9.5621,9.6061,9.5621,9.5437,9.5511,9.5437,9.4777,9.3639,9.3161,9.2537,9.1767,0.0,9.0849,9.1216,9.0776,9.0849,9.1253,9.1179,9.1179,9.1217,9.0987,9.083,9.0716,9.0087,8.9842,8.9558,8.7861,8.7246,8.6995,8.517,8.464,8.464,8.464,8.464,8.464,8.464,8.464,8.464,8.464,8.3926,8.3176,8.2886,8.1228,7.9341,7.7457,7.6268,7.4895,7.2452,7.2078,7.1855,7.1018,7.1218,7.1667,7.2265,6.9676,6.7351,6.6308,6.2415,5.9278,5.7615,5.7111,5.7399,5.8303,5.883,5.9232,5.9483,5.8344,5.6936,5.5477,5.1994,4.8985,4.629,4.3946,4.2242,4.1172,4.1172,4.1172,8.3985,8.4602,8.5006,8.5673,8.549,8.5306,8.593,8.56,8.5343,8.593,8.6591,8.6885,8.6444,8.8023,8.9491,8.9674,8.9895,8.9895,8.9491,0.0,0.0,0.0,0.0,0.0,0.0,0.0,0.0,0.0,0.0,0.0,0.0,0.0,9.4373,9.518,9.463,9.4593,9.5217,9.441,9.4336,9.496,9.4483,9.3749,9.2758,9.2097,9.1583,9.1216,9.0592,9.0665,9.1216,9.0776,9.1069,9.173,9.1106,9.107,9.1249,9.04,8.9878,8.9438,8.8277,8.8082,8.8008,8.656,8.6275,8.6118,8.4995,8.4505,8.4403,8.4573,8.4505,8.4403,8.4573,8.464,8.464,8.464,8.3421,8.2,8.1355,7.9536,7.7263,7.4904,7.4867,7.4342,7.1466,7.1982,7.233,7.1148,7.1338,7.1506,7.108,6.8817,6.6304,6.4052,6.0962,5.8264,5.6214,5.652,5.7223,5.8077,5.888,5.9307,5.9307,5.7061,5.5121,5.368,4.9204,4.6143,4.4774,4.2356,4.1172,4.1172,4.1172,4.1172,8.3464,8.458,8.575,8.5788,8.6339,8.6848,8.6921,8.6885,8.6848,8.6921,8.6958,8.7215,8.7912,8.8793,8.9674,9.0408,8.9307,8.861,0.0,0.0,0.0,0.0,0.0,0.0,0.0,0.0,0.0,0.0,0.0,0.0,0.0,0.0,0.0,9.4373,9.4336,9.4336,9.4373,9.3602,9.3235,9.3272,9.3969,9.3455,9.1877,9.184,9.0996,8.9601,8.9528,8.9528,8.9638,9.0335,9.1069,9.1803,9.173,9.1024,9.0087,9.0006,8.9306,8.8206,8.7498,8.7621,8.7937,8.5968,8.586,8.6118,8.4995,8.4133,8.3727,8.4437,8.4133,8.3727,8.4437,8.464,8.464,8.464,8.3421,8.2,8.1355,7.8171,7.5371,7.4563,7.2723,7.1208,7.0919,7.1018,7.1018,7.0919,7.0949,7.0397,6.8683,6.5827,6.3279,6.13,5.8311,5.6188,5.5491,5.5968,5.6294,5.6394,5.7901,5.878,5.878,5.6163,5.4205,5.2631,4.8543,4.5679,4.4138,4.2216,4.1172,4.1172,4.1172,4.1172,8.3398,8.4948,8.6295,8.5337,8.6811,8.8206,8.7215,8.6995,8.6995,8.6995,8.7399,8.7986,8.8793,8.8793,8.8757,8.905,8.861,0.0,0.0,0.0,0.0,0.0,0.0,0.0,0.0,0.0,0.0,0.0,0.0,0.0,0.0,0.0,0.0,9.3529,9.3015,9.3015,9.3565,9.2721,9.2281,9.2281,9.2611,9.2391,9.1767,9.1289,9.0445,8.9454,8.9931,8.9858,8.9491,9.0298,9.0776,9.1069,9.1069,9.1107,9.0907,8.9474,8.8259,8.7266,8.5471,8.5023,8.513,8.4386,8.4626,8.517,8.4713,8.4437,8.4268,8.4539,8.4403,8.4268,8.4539,8.464,8.464,8.464,8.2572,8.0442,7.9277,7.6305,7.3525,7.2463,7.1556,7.0889,7.0889,7.0889,7.0889,7.0889,7.0889,7.0058,6.7968,6.5215,6.2753,6.0572,5.7764,5.6118,5.5917,5.6093,5.6369,5.6696,5.7323,5.7172,5.6245,5.3655,5.1084,4.8808,4.5566,4.3396,4.235,4.1618,4.1172,4.1172,4.1172,4.1172,8.4168,8.5758,8.7099,8.6004,8.7182,8.839,8.7549,8.7399,8.7325,8.7068,8.7839,8.8683,8.8977,8.8793,8.85,0.0,0.0,0.0,0.0,0.0,0.0,0.0,0.0,0.0,0.0,0.0,0.0,0.0,0.0,0.0,0.0,0.0,0.0,0.0,9.2097,9.2097,9.2684,9.2097,9.1803,9.1803,9.1803,9.1803,9.1767,9.0959,9.0188,8.9454,9.0005,8.9784,8.9087,8.9895,9.0372,9.0629,9.0886,9.0885,9.0443,8.8556,8.7065,8.5645,8.3602,8.3118,8.3456,8.3219,8.3828,8.464,8.464,8.4471,8.4302,8.4539,8.4437,8.4336,8.4573,8.464,8.464,8.464,8.2083,7.9419,7.8098,7.518,7.2505,7.1158,7.0889,7.0889,7.0889,7.0889,7.0829,7.0649,7.0171,6.8738,6.6107,6.3832,6.1534,5.9019,5.7244,5.6143,5.5968,5.5185,5.4991,5.5535,5.4793,5.431,5.4384,5.122,4.8308,4.6121,4.3519,4.1875,4.1172,4.1172,4.1172,4.1172,4.1172,4.1172,8.5752,8.6973,8.8169,8.8214,8.7591,8.7219,8.8029,8.8209,8.7986,8.7178,8.828,8.916,8.8353,8.8867,8.9124,8.8353,0.0,0.0,0.0,0.0,0.0,0.0,0.0,0.0,0.0,0.0,0.0,0.0,0.0,0.0,0.0,0.0,0.0,0.0,9.1803,9.1803,9.1803,9.1803,9.1803,9.1803,9.1803,9.1803,9.1767,9.0959,9.0188,8.9417,8.9417,8.8977,8.828,8.9087,8.9895,9.0702,9.1473,9.0328,8.8117,8.7338,8.5525,8.3253,8.1799,8.2238,8.3355,8.2644,8.3422,8.464,8.464,8.4099,8.3659,8.4403,8.4065,8.3693,8.4403,8.4606,8.464,8.4606,8.2083,7.9419,7.8098,7.518,7.2505,7.1158,7.0889,7.0889,7.0889,7.0889,7.0709,7.0081,6.8415,6.6136,6.2918,6.0989,5.885,5.639,5.6219,5.5993,5.544,5.306,5.1768,5.2292,4.9857,5.0095,5.366,4.8962,4.5922,4.5637,4.3058,4.1582,4.1172,4.1172,4.1172,4.1172,4.1172,4.1172,8.4419,8.6549,8.8647,8.6932,8.8065,8.931,8.8316,8.8169,8.8133,8.7876,8.7766,8.7802,8.8133,8.7949,0.0,0.0,0.0,0.0,0.0,0.0,0.0,0.0,0.0,0.0,0.0,0.0,0.0,0.0,0.0,0.0,0.0,0.0,0.0,0.0,9.1803,9.1803,9.1803,9.1803,9.1803,9.1803,9.1803,9.1803,9.1803,9.1546,9.0702,8.9454,9.0005,8.9491,8.828,8.9087,8.9895,9.0592,9.0262,8.9484,8.8458,8.6873,8.4936,8.3036,8.1698,8.1934,8.2712,8.2475,8.3422,8.464,8.464,8.4471,8.4234,8.393,8.4065,8.42,8.3896,8.4234,8.4285,8.3166,8.1356,7.9144,7.6647,7.4317,7.2505,7.1158,7.0889,7.0889,7.0889,7.0889,7.0709,7.0081,6.8034,6.5049,6.0531,5.8343,5.7073,5.6219,5.657,5.657,5.6018,5.3959,5.2696,5.2862,4.8984,4.7383,4.8929,4.6941,4.5002,4.334,4.2014,4.1308,4.1172,4.1172,4.1172,4.1172,4.1172,4.02,8.6244,8.7762,8.9126,8.7992,8.8432,8.9011,8.8265,8.8146,8.8096,8.7802,8.7582,8.7619,8.8096,8.8059,0.0,0.0,0.0,0.0,0.0,0.0,0.0,0.0,0.0,0.0,0.0,0.0,0.0,0.0,0.0,0.0,0.0,0.0,0.0,0.0,9.1803,9.1803,9.1803,9.1803,9.1803,9.1803,9.1803,9.162,9.1326,9.0996,9.0335,8.9417,8.9271,8.8977,8.872,8.9234,8.9895,9.0555,9.0078,8.9456,8.859,8.6283,8.4472,8.2864,8.173,8.1765,8.2475,8.2746,8.3456,8.4167,8.4167,8.3964,8.3693,8.3524,8.3828,8.4133,8.3998,8.4302,8.4143,8.2572,8.0776,7.8671,7.587,7.3876,7.2176,7.1098,7.0889,7.0889,7.0889,7.0709,7.0032,6.8702,6.5612,6.2042,5.8329,5.6895,5.6219,5.6219,5.652,5.6671,5.6545,5.3672,5.1954,5.214,4.7791,4.5331,4.5596,4.4739,4.3637,4.2422,4.1601,4.1172,4.1172,4.1172,4.1172,4.1172,4.0181,3.9,8.9509,8.9772,8.9522,9.0116,8.8649,8.7268,8.8032,8.8211,8.7989,8.7288,8.7619,8.8096,8.8206,8.8793,0.0,0.0,0.0,0.0,0.0,0.0,0.0,0.0,0.0,0.0,0.0,0.0,0.0,0.0,0.0,0.0,0.0,0.0,0.0,9.1803,9.1803,9.1803,9.1803,9.1803,9.1803,0.0,9.173,9.1326,9.0592,8.9858,8.9454,8.9234,8.7692,8.7876,8.9307,8.9381,8.9895,9.0592,9.0519,8.9784,8.8365,8.5642,8.3946,8.276,8.1696,8.1765,8.2543,8.3253,8.3558,8.3592,8.3524,8.3016,8.2644,8.3219,8.3456,8.3659,8.4336,8.4398,8.39,8.2246,8.0269,7.813,7.5558,7.3381,7.1697,7.1038,7.0889,7.0889,7.0829,7.0221,6.8891,6.6107,6.1822,5.8224,5.6485,5.6219,5.6219,5.6219,5.6244,5.6323,5.66,5.267,5.0277,5.0478,4.6167,4.375,4.3711,4.2871,4.2422,4.2422,4.1601,4.1172,4.1172,4.1172,4.1172,4.0841,3.8632,3.7301,8.6064,8.7631,8.9128,8.8026,8.7802,8.7904,8.8139,8.8635,8.8867,8.8096,8.7582,8.7472,8.8096,0.0,0.0,0.0,0.0,0.0,0.0,0.0,0.0,0.0,0.0,0.0,0.0,0.0,0.0,0.0,0.0,0.0,0.0,0.0,0.0,9.1803,9.1803,9.1803,9.1803,9.1803,9.1803,0.0,9.1179,9.0776,9.0592,9.0445,8.9674,8.839,8.7435,8.7545,8.85,8.916,8.9895,9.0555,8.9931,8.8982,8.7617,8.486,8.3173,8.2034,8.1526,8.1765,8.2543,8.3253,8.3896,8.4268,8.3693,8.3389,8.3186,8.2746,8.305,8.3524,8.3693,8.2878,8.1566,7.9892,7.9203,7.7638,7.354,7.2229,7.1697,7.1038,7.0889,7.0739,7.026,6.8926,6.6356,6.1899,5.9914,5.8224,5.6485,5.6219,5.6219,5.6219,5.6595,5.6104,5.4243,5.2184,5.0202,4.7976,4.5532,4.4082,4.373,4.2871,4.2422,4.2422,4.1601,4.1172,4.1172,4.1172,4.0353,3.8548,3.7813,3.5556,8.6392,8.7558,8.8539,8.7325,8.7252,8.7688,8.8129,8.8466,8.8796,8.8793,8.8463,0.0,0.0,0.0,0.0,0.0,0.0,0.0,0.0,0.0,0.0,0.0,0.0,0.0,0.0,0.0,0.0,0.0,0.0,0.0,0.0,9.1803,9.1803,9.1803,9.1803,9.1803,9.1803,9.1803,9.1803,9.1803,9.0996,9.0188,8.9454,8.9454,8.8793,8.7619,8.7178,8.7472,8.8243,8.8647,8.9307,8.9968,8.916,8.8471,8.7551,8.4634,8.3402,8.3145,8.2169,8.2306,8.2983,8.3389,8.3761,8.3964,8.3219,8.2712,8.2441,8.2408,8.2678,8.2983,8.2983,8.2051,8.0687,7.8356,7.7245,7.5869,7.2621,7.1637,7.1308,7.0979,7.0889,7.0709,7.0081,6.7202,6.3827,6.0048,5.8433,5.7303,5.634,5.6219,5.6219,5.6219,5.6244,5.546,5.3425,5.1707,4.9575,4.7166,4.5408,4.4199,4.373,4.2871,4.2422,4.2422,4.1601,4.1172,4.1172,4.0178,3.8947,3.7607,3.5292,3.2809,8.7372,8.7699,8.7651,8.7142,8.6995,8.7252,8.8173,8.8395,8.8688,8.9603,8.9601,0.0,0.0,0.0,0.0,0.0,0.0,0.0,0.0,0.0,0.0,0.0,0.0,0.0,0.0,0.0,0.0,0.0,0.0,0.0,9.1803,9.1803,9.1803,9.1803,9.1803,9.1803,9.1803,9.1803,9.173,9.1583,9.0629,8.9417,8.7986,8.7986,8.7619,8.6995,8.6995,8.7399,8.7986,8.8133,8.861,8.916,8.8463,8.8206,8.7848,8.4738,8.401,8.4335,8.2881,8.2813,8.3321,8.3456,8.349,8.3321,8.2475,8.1866,8.1596,8.2238,8.2509,8.2472,8.2229,8.1391,7.9872,7.6955,7.5051,7.3409,7.2089,7.1278,7.0889,7.0889,7.045,6.9803,6.8891,6.5013,6.1219,5.8841,5.7159,5.6219,5.6219,5.6219,5.6219,5.6219,5.5792,5.4719,5.2664,5.0894,4.889,4.6295,4.4998,4.416,4.3613,4.2851,4.2363,4.2207,4.1523,4.1133,4.1055,3.8929,3.7432,3.6724,3.238,3.0186,8.4882,8.5504,8.6302,8.6885,8.6995,8.7399,8.894,8.9236,8.9676,0.0,0.0,0.0,0.0,0.0,0.0,0.0,0.0,0.0,0.0,0.0,0.0,0.0,0.0,0.0,0.0,0.0,0.0,0.0,0.0,0.0,9.1803,9.1803,9.1803,9.1803,9.1803,9.1803,9.1803,9.1803,9.1436,9.0739,8.9234,8.8059,8.7178,8.7178,8.7105,8.6995,8.6995,8.7068,8.7215,8.7912,8.828,8.8353,8.8243,8.8206,8.7848,8.4738,8.3656,8.363,8.271,8.2475,8.2644,8.3287,8.349,8.3219,8.1866,8.1832,8.2272,8.2374,8.2881,8.3004,8.168,7.9839,7.7595,7.5302,7.3007,7.1268,7.1038,7.0949,7.0889,7.0889,6.8736,6.6268,6.3954,6.1219,5.8727,5.6895,5.634,5.6219,5.6219,5.6219,5.6219,5.6219,5.6143,5.4181,4.9661,5.0029,4.8345,4.3279,4.3896,4.4023,4.3203,4.2695,4.209,4.1348,4.123,4.0996,4.0605,3.852,3.6393,3.4116,3.1401,2.9066,8.5673,8.6187,8.6559,8.6921,8.6995,8.7435,8.905,8.9383,8.986,9.1473,0.0,0.0,0.0,0.0,0.0,0.0,0.0,0.0,0.0,0.0,0.0,0.0,0.0,0.0,0.0,0.0,0.0,0.0,0.0,9.1803,9.1803,9.1803,9.1803,9.1803,9.1803,9.1803,9.1803,9.1803,9.1179,8.9931,8.8757,8.7766,8.6995,8.6995,8.6995,8.6995,8.6995,8.6995,8.7031,8.7399,8.7545,8.7545,8.7545,8.7545,8.7332,8.5267,8.4373,8.407,8.3045,8.258,8.2408,8.2306,8.2543,8.2678,8.1596,8.1528,8.1765,8.1765,8.2002,8.1825,7.9869,7.8324,7.6569,7.4342,7.2291,7.0889,7.0889,7.1188,7.1338,7.0979,6.8458,6.545,6.3026,6.0504,5.8224,5.6485,5.6219,5.6219,5.6219,5.6219,5.6319,5.6646,5.4745,5.2445,4.9367,4.8189,4.6237,4.2954,4.3555,4.3828,4.3437,4.2558,4.124,3.9711,4.0644,4.0317,3.8756,3.6904,3.4601,3.1841,2.9486,2.7928,8.6619,8.6973,8.7036,8.7252,8.7325,8.7619,8.883,8.9236,8.9786,0.0,0.0,0.0,0.0,0.0,0.0,0.0,0.0,0.0,0.0,0.0,0.0,0.0,0.0,0.0,0.0,0.0,0.0,0.0,0.0,9.151,9.151,9.1289,9.1179,9.1179,9.14,9.151,9.151,9.1289,9.0592,8.9417,8.839,8.7582,8.6995,8.6995,8.6995,8.6995,8.6995,8.6995,8.6995,8.6995,8.6995,8.6995,8.6995,8.6995,8.6856,8.5391,8.4646,8.4246,8.3192,8.2645,8.234,8.1968,8.2103,8.2306,8.1731,8.1426,8.1325,8.1528,8.1322,8.046,7.8234,7.6829,7.5529,7.3139,7.1728,7.0889,7.0889,7.1158,7.1058,6.9981,6.7392,6.4526,6.2096,5.9861,5.7913,5.6541,5.642,5.642,5.642,5.642,5.652,5.6796,5.3984,5.1404,4.9683,4.7195,4.5078,4.3366,4.3535,4.3613,4.3398,4.1959,4.0057,3.7896,3.8929,3.8411,3.6517,3.4709,3.2534,3.0301,2.8094,2.6987,8.6325,8.6925,8.7222,8.7986,8.8133,8.8169,8.8243,8.8867,0.0,0.0,0.0,0.0,0.0,0.0,0.0,0.0,0.0,0.0,0.0,0.0,0.0,0.0,0.0,0.0,0.0,0.0,0.0,0.0,0.0,9.0665,9.0665,8.9968,8.9528,8.9528,9.0262,9.0665,9.0665,8.9931,8.9491,8.9381,8.7839,8.7031,8.6995,8.6995,8.6995,8.6995,8.6995,8.6995,8.6995,8.6995,8.6995,8.6995,8.6995,8.6995,8.6749,8.4532,8.3706,8.3524,8.2741,8.2374,8.2509,8.3186,8.2949,8.2408,8.2374,8.1832,8.1426,8.2171,8.129,7.9603,7.7345,7.5687,7.388,7.1526,7.0889,7.0889,7.0889,7.047,6.9456,6.6999,6.4526,6.1959,5.9455,5.8027,5.7145,5.6997,5.6997,5.6997,5.6997,5.6997,5.6796,5.6319,5.4762,5.2576,4.9643,4.782,4.5879,4.3837,4.3691,4.334,4.2519,4.0409,3.8326,3.6309,3.5226,3.4442,3.4107,3.2211,3.0761,2.9814,2.7776,2.6694,8.6548,8.7601,8.8442,8.8235,8.8206,8.8353,8.8867,8.9197,8.9638,0.0,0.0,0.0,0.0,0.0,0.0,0.0,0.0,0.0,0.0,0.0,0.0,0.0,0.0,0.0,0.0,0.0,0.0,0.0,0.0,0.0,8.9858,8.9564,8.9417,8.9417,8.9711,8.9858,8.9858,8.905,8.8647,8.861,8.7545,8.6995,8.6995,8.6995,8.6995,8.6995,8.6995,8.6995,8.6995,8.6995,8.6995,8.6995,8.6995,8.6571,8.5806,8.4967,8.3755,8.2565,8.2742,8.2306,8.1799,8.2543,8.1968,8.1088,8.1528,8.0851,7.9803,7.9613,7.9107,7.8023,7.5174,7.4092,7.3231,7.1307,7.0889,7.0799,7.041,7.0141,6.9357,6.7302,6.4589,6.1877,5.9766,5.814,5.7173,5.7524,5.76,5.76,5.76,5.7273,5.6626,5.5345,5.2729,5.0072,4.7999,4.5979,4.4634,4.4141,4.3867,4.2925,4.0983,3.9212,3.6463,3.2613,3.2062,3.1709,3.1549,3.1133,3.0056,2.8214,2.7419,2.6854,8.7178,8.8298,8.9183,8.9033,8.8797,8.8625,8.8937,8.9234,8.9564,0.0,0.0,0.0,0.0,0.0,0.0,0.0,0.0,0.0,0.0,0.0,0.0,0.0,0.0,0.0,0.0,0.0,0.0,0.0,0.0,0.0,8.9014,8.8757,8.872,8.9014,8.9014,8.916,8.9417,8.861,8.8206,8.8206,8.7399,8.6995,8.6995,8.6995,8.6995,8.6995,8.6995,8.6995,8.6995,8.6995,8.6749,8.6428,8.6428,8.5731,8.4693,8.4253,8.3155,8.1955,8.2645,8.2271,8.1799,8.2543,8.1765,8.0716,8.1426,8.0479,7.896,7.8444,7.7719,7.6491,7.3928,7.2892,7.2204,7.1148,7.0739,7.0341,6.9346,6.895,6.8165,6.6127,6.3471,6.0989,5.9085,5.8187,5.7725,5.8127,5.8177,5.8177,5.8177,5.7023,5.5795,5.4539,5.1103,4.8243,4.6985,4.5106,4.4062,4.4375,4.3279,4.1673,3.9632,3.7055,3.4095,3.043,2.9574,2.9367,2.9482,2.9684,2.9043,2.7415,2.7308,2.6947,0.0,0.0,0.0,9.0228,8.9858,8.905,8.8341,0.0,0.0,0.0,0.0,0.0,0.0,0.0,0.0,0.0,0.0,0.0,0.0,0.0,0.0,0.0,0.0,0.0,0.0,0.0,0.0,0.0,0.0,8.8169,8.8169,8.7435,8.7362,8.8133,8.8169,8.8536,8.9344,8.8573,8.8169,8.8169,8.7362,8.6995,8.6995,8.6995,8.6995,8.6995,8.6995,8.6995,8.6995,8.6995,8.632,8.5278,8.5278,8.4613,8.345,8.2335,8.1875,8.193,8.2242,8.2408,8.2509,8.3253,8.2475,8.1359,8.2137,8.0818,7.9028,7.8974,7.7268,7.5231,7.3565,7.2048,7.0889,7.0889,7.041,6.9546,6.7667,6.6643,6.5479,6.3026,6.0989,5.9085,5.7318,5.7976,5.873,5.873,5.8755,5.873,5.8577,5.6294,5.4455,5.3803,5.0069,4.7349,4.6769,4.5263,4.4394,4.4394,4.1882,3.9902,3.8688,3.4164,3.1091,2.9784,2.8214,2.7388,2.7669,2.7696,2.7696,2.7696,2.7388,2.6947,8.8332,0.0,0.0,0.0,0.0,0.0,0.0,0.0,0.0,0.0,0.0,0.0,0.0,0.0,0.0,0.0,0.0,0.0,0.0,0.0,0.0,0.0,0.0,0.0,0.0,0.0,0.0,0.0,8.8133,8.7325,8.7325,8.7142,8.7105,8.7325,8.7325,8.7435,8.7692,8.7435,8.7325,8.7325,8.7105,8.6995,8.6995,8.6995,8.6995,8.6995,8.6995,8.6995,8.6995,8.6995,8.632,8.5278,8.5278,8.4088,8.23,8.206,8.1379,8.0845,8.1969,8.2069,8.1799,8.3084,8.1765,7.9938,8.1224,8.004,7.8052,7.6841,7.6085,7.4998,7.2174,7.1247,7.0799,7.035,7.0111,6.9278,6.6506,6.5021,6.35,6.1124,6.0173,5.9215,5.7873,5.8252,5.8855,5.9232,5.9282,5.8768,5.7133,5.553,5.3482,5.0161,4.8264,4.6533,4.5157,4.4651,4.4394,4.4394,4.1602,3.879,3.6148,3.2996,2.9954,2.7457,2.7108,2.6987,2.7068,2.7495,2.7696,2.7682,2.7175,2.6747,8.85,8.9035,8.913,8.8668,0.0,0.0,8.7562,8.7509,0.0,0.0,0.0,0.0,0.0,0.0,0.0,0.0,0.0,0.0,0.0,0.0,0.0,0.0,0.0,0.0,0.0,0.0,0.0,8.8426,8.7545,8.6995,8.6995,8.6995,8.6995,8.6995,8.6995,8.6995,8.6995,8.6995,8.6995,8.6995,8.6995,8.6995,8.6995,8.6995,8.6995,8.6995,8.6995,8.6749,8.632,8.632,8.5619,8.4532,8.4088,8.275,8.1222,8.1222,8.0804,8.0412,8.19,8.19,8.1426,8.2272,8.0987,7.9261,8.0107,7.9261,7.7615,7.6103,7.4644,7.3261,7.1375,7.0889,7.0739,7.0141,6.9782,6.8635,6.525,6.3632,6.237,6.0253,5.9476,5.909,5.8328,5.8679,5.9156,5.9458,5.8681,5.7594,5.6065,5.37,5.1055,4.8286,4.635,4.4987,4.3994,4.3848,4.3419,4.2378,3.9681,3.672,3.3661,3.0884,2.8487,2.6573,2.6734,2.6881,2.7001,2.7348,2.7522,2.7509,2.7161,2.6787,8.894,8.9286,8.9533,8.9032,8.8343,0.0,8.7793,8.7945,0.0,0.0,0.0,0.0,0.0,0.0,0.0,0.0,0.0,0.0,0.0,0.0,0.0,0.0,0.0,0.0,0.0,8.8243,8.7912,8.7215,8.7068,8.6995,8.6995,8.6995,8.6995,8.6995,8.6995,8.6995,8.6995,8.6995,8.6995,8.6995,8.6995,8.6995,8.6995,8.6995,8.6995,8.6995,8.6856,8.6247,8.5278,8.5045,8.437,8.3364,8.2335,8.1256,8.031,8.0242,8.0242,8.0513,8.1832,8.1799,8.119,8.1257,8.031,7.9126,7.9194,7.8587,7.748,7.5765,7.3261,7.0889,7.0889,7.0859,7.0649,7.0021,6.9236,6.7618,6.3995,6.2674,6.1681,5.9958,5.9148,5.873,5.873,5.9156,5.9483,5.9173,5.7534,5.5866,5.5004,5.1065,4.7979,4.7354,4.4764,4.3027,4.2721,4.2644,4.158,3.9032,3.6588,3.4093,3.1163,2.8627,2.7081,2.6774,2.6774,2.6921,2.7215,2.7255,2.7241,2.7215,2.7215,2.6907,9.0364,8.9325,8.7878,8.7943,8.7402,0.0,8.5366,8.6213,0.0,0.0,0.0,0.0,0.0,0.0,0.0,0.0,0.0,0.0,0.0,0.0,0.0,0.0,0.0,0.0,0.0,8.8573,8.8133,8.7986,8.7362,8.6995,8.6995,8.6995,8.6995,8.6995,8.6995,8.6995,8.6995,8.6995,8.6995,8.6995,8.6995,8.6995,8.6995,8.6995,8.6995,8.6925,8.6064,8.5544,8.5123,8.3329,8.2391,8.2244,8.1968,8.1565,8.0987,8.0412,8.0581,8.1122,8.1393,8.1021,8.0513,8.1088,8.031,7.9228,7.9803,7.8551,7.6548,7.4273,7.2299,7.0889,7.0889,7.053,6.9991,6.9333,6.757,6.5404,6.3082,6.1755,6.05,5.9156,5.8858,5.873,5.873,5.9156,5.8837,5.7035,5.6534,5.4696,5.0796,4.8847,4.7028,4.4653,4.3372,4.201,4.0474,3.9921,3.8689,3.6447,3.3608,3.1518,3.031,2.8033,2.6774,2.648,2.6466,2.6613,2.6907,2.7148,2.7148,2.6907,2.6907,2.66,9.0556,8.994,8.9143,8.8453,8.7467,0.0,0.0,0.0,0.0,0.0,0.0,0.0,0.0,0.0,0.0,0.0,0.0,0.0,0.0,0.0,0.0,0.0,0.0,0.0,0.0,8.7839,8.7619,8.7619,8.7252,8.6995,8.6995,8.6995,8.6995,8.6995,8.6995,8.6995,8.6995,8.6995,8.6995,8.6995,8.6995,8.6995,8.6995,8.6995,8.6679,8.6138,8.5544,8.4693,8.3536,8.2718,8.2121,8.1576,8.1576,8.149,8.1257,8.0885,8.075,8.0784,8.1156,8.0818,8.0242,8.0615,8.0006,7.9194,7.9532,7.8059,7.5814,7.3834,7.2048,7.0829,7.053,7.0201,6.9812,6.9153,6.7342,6.5222,6.3611,6.2148,6.0571,5.9287,5.9106,5.9106,5.9106,5.9332,5.8681,5.6558,5.5155,5.2849,4.9149,4.699,4.4778,4.2042,4.0922,3.9682,3.7718,3.7049,3.5825,3.3365,3.1895,3.0307,2.856,2.7442,2.668,2.64,2.6386,2.5964,2.4962,2.5112,2.5673,2.6814,2.668,2.5885,9.1018,9.0902,9.0872,8.9646,8.8129,8.7298,0.0,0.0,0.0,0.0,0.0,0.0,0.0,0.0,0.0,0.0,0.0,0.0,0.0,0.0,0.0,0.0,0.0,0.0,0.0,8.6885,8.6848,8.6995,8.6885,8.6848,8.6995,8.6995,8.6995,8.6995,8.6995,8.6995,8.6995,8.6995,8.6995,8.6995,8.6995,8.6995,8.6995,8.6749,8.6138,8.5278,8.4852,8.3656,8.2152,8.2527,8.233,8.1697,8.1393,8.1393,8.146,8.119,8.0784,8.0479,8.0919,8.0682,8.0209,8.0209,7.9567,7.8859,7.852,7.6878,7.4762,7.323,7.1825,7.0769,7.0141,6.9991,6.9684,6.8713,6.7028,6.5227,6.3911,6.2217,6.0567,5.9691,5.9483,5.9483,5.9483,5.9483,5.8681,5.5895,5.3795,5.141,4.817,4.5443,4.2748,3.9941,3.8834,3.7379,3.4752,3.4262,3.2949,3.0366,3.0277,2.9191,2.676,2.6734,2.6627,2.6386,2.6386,2.5225,2.3058,2.3117,2.39,2.5422,2.5302,2.4049,9.3326,9.2249,9.1171,9.0985,8.931,8.7776,8.7845,0.0,8.7951,8.8082,0.0,0.0,0.0,0.0,0.0,0.0,0.0,0.0,0.0,0.0,0.0,0.0,0.0,0.0,0.0,0.0,8.6224,8.6958,8.6334,8.6261,8.6958,8.6995,8.6995,8.6995,8.6995,8.6995,8.6995,8.6995,8.6995,8.6995,8.6995,8.6995,8.6925,8.5954,8.5468,8.5201,8.3155,8.2535,8.282,8.1862,8.2139,8.3118,8.1799,8.1697,8.2137,8.0818,8.0682,8.1088,8.0513,8.0276,8.0209,8.0209,7.9221,7.775,7.6394,7.4817,7.3292,7.1601,7.1018,7.0769,7.0141,6.9991,6.9397,6.7014,6.5057,6.3306,6.1966,6.0263,5.9161,5.9382,5.9483,5.9483,5.9483,5.9483,5.8006,5.3906,5.3423,5.1514,4.5987,4.4778,4.2978,3.9595,3.8437,3.6333,3.2263,3.1644,3.0351,2.7812,2.7378,2.7094,2.6453,2.644,2.6426,2.6386,2.6386,2.5281,2.2945,2.3023,2.235,2.0748,2.0516,2.0116,9.3249,9.2826,9.2402,9.1441,9.0217,8.933,8.9649,0.0,8.8128,0.0,0.0,0.0,0.0,0.0,0.0,0.0,8.5783,0.0,0.0,0.0,0.0,0.0,0.0,0.0,0.0,0.0,0.0,0.0,0.0,8.6628,8.6995,8.6995,8.6995,8.6995,8.6995,8.6995,8.6995,8.6995,8.6995,8.6995,8.632,8.5991,8.5954,8.4852,8.3922,8.3277,8.2788,8.2301,8.203,8.1936,8.2306,8.278,8.1697,8.1731,8.2272,8.1224,8.075,8.0615,8.031,8.0209,8.0209,8.0209,7.915,7.7665,7.6038,7.4557,7.2922,7.1375,7.0889,7.0769,7.0141,6.9128,6.8035,6.692,6.436,6.2148,6.2059,6.0452,5.9232,5.9458,5.9483,5.9173,5.7849,5.7534,5.6654,5.3822,5.2133,4.9934,4.5832,4.457,4.2212,3.7822,3.6551,3.4327,2.9941,2.9325,2.8537,2.7445,2.6827,2.652,2.6386,2.6386,2.6386,2.6386,2.5092,2.3413,2.121,1.9885,1.817,1.6164,1.8551,1.8808,9.3441,9.3441,9.3364,9.1902,9.0837,9.0364,0.0,0.0,0.0,0.0,0.0,0.0,0.0,0.0,8.6672,8.589,0.0,8.4609,0.0,0.0,0.0,0.0,0.0,0.0,0.0,0.0,0.0,0.0,0.0,0.0,8.6995,8.6995,8.6995,8.6995,8.6995,8.6995,8.6995,8.6679,8.65,8.65,8.5391,8.4852,8.4773,8.367,8.2766,8.2222,8.2431,8.2197,8.1629,8.2171,8.2408,8.234,8.1562,8.1629,8.2002,8.1257,8.0648,8.0209,8.0209,8.0209,8.0074,7.9734,7.8591,7.6971,7.5464,7.3839,7.2455,7.1277,7.0889,7.0769,7.0141,6.8693,6.7199,6.6457,6.3876,6.1616,6.1588,6.0507,5.9483,5.9483,5.9483,5.8837,5.6534,5.6358,5.5579,5.3114,5.1124,4.8908,4.6087,4.4103,4.1101,3.6476,3.449,3.2242,2.8352,2.7749,2.7455,2.7161,2.6667,2.6386,2.6386,2.6386,2.6386,2.6386,2.4271,2.1972,1.9816,1.7575,1.5325,1.3501,1.6385,1.6889,0.0,0.0,0.0,9.2672,0.0,0.0,0.0,0.0,8.9335,9.0872,9.0568,9.0035,9.0035,8.8285,8.6617,8.576,8.3756,0.0,0.0,0.0,0.0,0.0,0.0,0.0,0.0,0.0,0.0,0.0,0.0,0.0,8.6921,8.6995,8.6995,8.6995,8.6995,8.6995,8.6995,8.588,8.5355,8.5355,8.4207,8.367,8.3621,8.2481,8.2291,8.2924,8.1796,8.1697,8.2374,8.2408,8.2408,8.234,8.1562,8.1291,8.1224,8.0513,8.0209,8.0209,8.0209,8.0209,7.9972,7.8452,7.6971,7.5348,7.3839,7.2204,7.1018,7.0889,7.0889,7.0769,7.0141,6.9046,6.7473,6.4861,6.3371,6.179,5.992,5.9483,5.9483,5.9483,5.9483,5.8837,5.651,5.6643,5.532,5.0953,5.0666,4.9609,4.6166,4.312,3.9876,3.6325,3.2968,3.0127,2.7875,2.7442,2.7148,2.6854,2.656,2.6386,2.6386,2.6386,2.6386,2.6386,2.4271,2.2054,1.9743,1.7503,1.5262,1.3173,1.3192,1.3198,0.0,0.0,9.4941,9.2979,0.0,0.0,0.0,0.0,0.0,9.1098,9.0606,9.0116,9.0116,8.879,8.7213,8.5797,8.4125,8.2627,0.0,0.0,0.0,0.0,0.0,0.0,0.0,0.0,0.0,0.0,0.0,0.0,0.0,8.7802,8.7545,8.7031,8.7509,8.7545,8.7031,8.6425,8.582,8.5278,8.3415,8.2481,8.2391,8.1283,8.1214,8.183,8.197,8.2171,8.2408,8.2408,8.2103,8.1596,8.0851,8.0547,8.0547,8.0276,8.0209,8.0209,8.0209,8.0209,7.9972,7.8345,7.686,7.5348,7.3749,7.2204,7.0889,7.0889,7.0889,7.0859,7.0649,6.8345,6.6006,6.5079,6.2645,6.038,5.9637,5.9232,5.8981,5.8981,5.8679,5.7407,5.4003,5.3838,5.328,5.0568,4.8841,4.732,4.5934,4.3953,4.0952,3.6476,3.4262,3.171,2.8027,2.7255,2.6841,2.656,2.644,2.6306,2.6106,2.6293,2.5648,2.4012,2.1927,1.9866,1.7684,1.531,1.398,1.3173,1.3125,1.3125,9.4749,9.5172,0.0,9.3403,9.3326,0.0,9.1979,0.0,9.1672,0.0,9.103,9.0679,9.1253,8.9952,8.8296,8.6724,8.4726,8.2497,0.0,7.925,0.0,0.0,0.0,0.0,0.0,0.0,0.0,0.0,0.0,0.0,0.0,0.0,8.8096,8.7876,8.8096,8.8096,8.7876,8.6805,8.5912,8.5087,8.281,8.1696,8.1696,8.0916,8.1122,8.2069,8.2306,8.2408,8.2408,8.2137,8.1562,8.0851,8.0378,8.0209,8.0209,8.0209,8.0209,8.0209,8.0209,8.0209,7.9836,7.7773,7.6379,7.5231,7.3138,7.1728,7.0889,7.0889,7.0739,7.062,7.0829,6.7881,6.4938,6.5159,6.2211,5.9433,5.9257,5.8956,5.8654,5.8453,5.8303,5.6854,5.2785,5.2421,5.187,4.9176,4.73,4.6094,4.5527,4.2894,3.9736,3.6108,3.3433,3.0483,2.7568,2.6881,2.6587,2.64,2.6386,2.6306,2.6119,2.6293,2.5332,2.2894,2.0964,1.877,1.6647,1.4371,1.32,1.3254,1.32,1.32]},{"header":{"parameterUnit":"m.s-1","parameterCategory":1,"la1":30.6,"la2":29.2853,"lo1":-89.7004,"lo2":-87.6739,"dx":0.0162,"dy":0.0183,"nx":112,"ny":82,"refTime":"2022-11-11T18:00:00:Z","depth":0,"parameterNumber":3,"parameterNumberName":"V-component_of_WINDS"},"data":[0.0,0.0,0.0,0.0,0.0,0.0,0.0,0.0,0.0,0.0,0.0,0.0,0.0,0.0,0.0,0.0,0.0,0.0,0.0,0.0,0.0,0.0,0.0,0.0,0.0,0.0,0.0,0.0,0.0,0.0,0.0,0.0,0.0,0.0,0.0,0.0,0.0,0.0,0.0,0.0,0.0,0.0,0.0,0.0,0.0,0.0,0.0,0.0,0.0,0.0,0.0,0.0,0.0,0.0,0.0,0.0,0.0,0.0,0.0,0.0,0.0,0.0,0.0,0.0,0.0,0.0,0.0,0.0,0.0,0.0,0.0,0.0,0.0,0.0,0.0,0.0,0.0,0.0,0.0,0.0,0.0,0.0,0.0,0.0,0.0,0.0,0.0,0.0,0.0,0.0,0.0,-2.7108,-2.8564,-2.9726,-3.0314,-3.0127,-2.974,-2.9152,0.0,0.0,0.0,0.0,0.0,0.0,0.0,0.0,0.0,0.0,0.0,0.0,0.0,0.0,0.0,0.0,0.0,0.0,0.0,0.0,0.0,0.0,0.0,0.0,0.0,0.0,0.0,0.0,0.0,0.0,0.0,0.0,0.0,0.0,0.0,0.0,0.0,0.0,0.0,0.0,0.0,0.0,0.0,0.0,0.0,0.0,0.0,0.0,0.0,0.0,0.0,0.0,0.0,0.0,0.0,0.0,0.0,0.0,0.0,0.0,0.0,0.0,0.0,0.0,0.0,0.0,0.0,0.0,0.0,0.0,0.0,0.0,0.0,0.0,0.0,0.0,0.0,0.0,0.0,0.0,0.0,0.0,0.0,0.0,0.0,0.0,0.0,0.0,0.0,0.0,0.0,0.0,0.0,0.0,0.0,0.0,0.0,0.0,0.0,0.0,0.0,0.0,0.0,0.0,-2.6987,-2.8537,-2.9179,-2.9726,-3.0314,-3.0314,-3.0047,-2.9459,0.0,0.0,0.0,0.0,0.0,0.0,0.0,0.0,0.0,0.0,0.0,0.0,0.0,0.0,0.0,0.0,0.0,0.0,0.0,0.0,0.0,0.0,0.0,0.0,0.0,0.0,0.0,0.0,0.0,0.0,0.0,0.0,0.0,0.0,0.0,0.0,0.0,0.0,0.0,0.0,0.0,0.0,0.0,0.0,0.0,0.0,0.0,0.0,0.0,0.0,0.0,0.0,0.0,0.0,0.0,0.0,0.0,0.0,0.0,0.0,0.0,0.0,0.0,0.0,0.0,0.0,0.0,0.0,0.0,0.0,0.0,0.0,0.0,0.0,0.0,0.0,0.0,0.0,0.0,0.0,0.0,0.0,0.0,0.0,0.0,0.0,0.0,0.0,0.0,0.0,0.0,0.0,0.0,0.0,0.0,0.0,0.0,0.0,0.0,0.0,0.0,0.0,0.0,-2.7121,-2.8083,-2.9379,-2.9927,-3.0434,-3.1022,-3.0915,-3.0581,-2.9993,-2.9745,0.0,0.0,0.0,0.0,0.0,0.0,0.0,0.0,0.0,0.0,0.0,0.0,0.0,0.0,0.0,0.0,0.0,0.0,0.0,0.0,0.0,0.0,0.0,0.0,0.0,0.0,0.0,0.0,0.0,0.0,0.0,0.0,0.0,0.0,0.0,0.0,0.0,0.0,0.0,0.0,0.0,0.0,0.0,0.0,0.0,0.0,0.0,0.0,0.0,0.0,0.0,0.0,0.0,0.0,0.0,0.0,0.0,0.0,0.0,0.0,0.0,0.0,0.0,0.0,0.0,0.0,0.0,0.0,0.0,0.0,0.0,0.0,0.0,0.0,0.0,0.0,0.0,0.0,0.0,0.0,0.0,0.0,0.0,0.0,0.0,0.0,0.0,0.0,0.0,0.0,0.0,0.0,0.0,0.0,0.0,0.0,0.0,0.0,0.0,0.0,0.0,0.0,-2.8056,-2.8965,-2.9913,-3.0488,-3.1036,-3.1623,-3.1463,-3.1089,-3.0501,-3.2033,0.0,0.0,0.0,0.0,0.0,0.0,0.0,0.0,0.0,0.0,0.0,0.0,0.0,0.0,0.0,0.0,0.0,0.0,0.0,0.0,0.0,0.0,0.0,0.0,0.0,0.0,0.0,0.0,0.0,0.0,0.0,0.0,0.0,0.0,0.0,0.0,0.0,0.0,0.0,0.0,0.0,0.0,0.0,0.0,0.0,0.0,0.0,0.0,0.0,0.0,0.0,0.0,0.0,0.0,0.0,0.0,0.0,0.0,0.0,0.0,0.0,0.0,0.0,0.0,0.0,0.0,0.0,0.0,0.0,0.0,0.0,0.0,0.0,0.0,0.0,0.0,0.0,0.0,0.0,0.0,0.0,0.0,0.0,0.0,0.0,0.0,0.0,0.0,0.0,0.0,0.0,0.0,0.0,0.0,0.0,0.0,0.0,0.0,0.0,0.0,0.0,0.0,-2.8056,-2.9045,-3.0207,-3.0608,-3.1036,-3.1623,-3.165,-3.1383,-3.0795,-3.4195,0.0,0.0,0.0,0.0,0.0,0.0,0.0,0.0,0.0,0.0,0.0,0.0,0.0,0.0,0.0,0.0,0.0,0.0,0.0,0.0,0.0,0.0,0.0,0.0,0.0,0.0,0.0,0.0,0.0,0.0,0.0,0.0,0.0,0.0,0.0,0.0,0.0,0.0,0.0,0.0,0.0,0.0,0.0,0.0,0.0,0.0,0.0,0.0,0.0,0.0,0.0,0.0,0.0,0.0,0.0,0.0,0.0,0.0,0.0,0.0,0.0,0.0,0.0,0.0,0.0,0.0,0.0,0.0,0.0,0.0,0.0,0.0,0.0,0.0,0.0,0.0,0.0,0.0,0.0,0.0,0.0,0.0,0.0,0.0,0.0,0.0,0.0,0.0,0.0,0.0,0.0,0.0,0.0,0.0,0.0,0.0,0.0,0.0,0.0,0.0,0.0,0.0,-2.8377,-2.9459,0.0,-3.0782,-3.1223,-3.1637,-3.1664,-3.149,-3.1089,0.0,0.0,0.0,0.0,0.0,0.0,0.0,0.0,0.0,0.0,0.0,0.0,0.0,0.0,0.0,0.0,0.0,0.0,0.0,0.0,0.0,0.0,0.0,0.0,0.0,0.0,0.0,0.0,0.0,0.0,0.0,0.0,0.0,0.0,0.0,0.0,0.0,0.0,0.0,0.0,0.0,0.0,0.0,0.0,0.0,0.0,0.0,0.0,0.0,0.0,0.0,0.0,0.0,0.0,0.0,0.0,0.0,0.0,0.0,0.0,0.0,0.0,0.0,0.0,0.0,0.0,0.0,0.0,0.0,0.0,0.0,0.0,0.0,0.0,0.0,0.0,0.0,0.0,0.0,0.0,0.0,0.0,0.0,0.0,0.0,0.0,0.0,0.0,0.0,0.0,0.0,0.0,0.0,0.0,0.0,0.0,0.0,0.0,0.0,0.0,0.0,0.0,-2.7485,-2.8617,-2.974,0.0,-3.0929,-3.1343,-3.1637,-3.1757,-3.1557,-3.0982,0.0,0.0,0.0,0.0,0.0,0.0,0.0,0.0,0.0,0.0,0.0,0.0,0.0,0.0,0.0,0.0,0.0,0.0,0.0,0.0,0.0,0.0,0.0,0.0,0.0,0.0,0.0,0.0,0.0,0.0,0.0,0.0,0.0,0.0,0.0,0.0,0.0,0.0,0.0,0.0,0.0,0.0,0.0,0.0,0.0,0.0,0.0,0.0,0.0,0.0,0.0,0.0,0.0,0.0,0.0,0.0,0.0,0.0,0.0,0.0,0.0,0.0,0.0,0.0,0.0,0.0,0.0,0.0,0.0,0.0,0.0,0.0,0.0,0.0,0.0,0.0,0.0,0.0,0.0,0.0,0.0,0.0,0.0,0.0,0.0,0.0,0.0,0.0,0.0,0.0,0.0,0.0,0.0,0.0,0.0,0.0,0.0,0.0,0.0,0.0,0.0,0.0,-2.7906,-2.8738,-2.982,-3.0688,-3.1049,-3.1343,-3.1637,-3.1931,-3.1597,0.0,0.0,0.0,0.0,0.0,0.0,0.0,0.0,0.0,0.0,0.0,0.0,0.0,0.0,0.0,0.0,0.0,0.0,0.0,0.0,0.0,0.0,0.0,0.0,0.0,0.0,0.0,0.0,0.0,0.0,0.0,0.0,0.0,0.0,0.0,0.0,0.0,0.0,0.0,0.0,0.0,0.0,0.0,0.0,0.0,0.0,0.0,0.0,0.0,0.0,0.0,0.0,0.0,0.0,0.0,0.0,0.0,0.0,0.0,0.0,0.0,0.0,0.0,0.0,0.0,0.0,0.0,0.0,0.0,0.0,0.0,0.0,0.0,0.0,0.0,0.0,0.0,0.0,0.0,0.0,0.0,0.0,0.0,0.0,0.0,0.0,0.0,0.0,0.0,0.0,0.0,0.0,0.0,0.0,0.0,0.0,0.0,0.0,0.0,0.0,0.0,0.0,0.0,-2.7568,-2.843,-2.9513,-3.0394,-3.0742,-3.1036,-3.133,-3.1623,-3.1476,-3.0715,0.0,0.0,0.0,0.0,0.0,0.0,0.0,0.0,0.0,0.0,0.0,0.0,0.0,0.0,0.0,0.0,0.0,0.0,0.0,0.0,0.0,0.0,0.0,0.0,0.0,0.0,0.0,0.0,0.0,0.0,0.0,0.0,0.0,0.0,0.0,0.0,0.0,0.0,0.0,0.0,0.0,0.0,0.0,0.0,0.0,0.0,0.0,0.0,0.0,0.0,0.0,0.0,0.0,0.0,0.0,0.0,0.0,0.0,0.0,0.0,0.0,0.0,0.0,0.0,0.0,0.0,0.0,0.0,0.0,0.0,0.0,0.0,0.0,0.0,0.0,0.0,0.0,0.0,0.0,0.0,0.0,0.0,0.0,0.0,0.0,0.0,0.0,0.0,0.0,0.0,0.0,0.0,0.0,0.0,0.0,0.0,0.0,0.0,0.0,0.0,0.0,0.0,-2.7459,-2.8404,-2.9513,-3.0274,-3.0515,-3.0782,-3.1196,-3.1383,-3.1236,-3.0662,0.0,0.0,0.0,0.0,0.0,0.0,0.0,0.0,0.0,0.0,0.0,0.0,0.0,0.0,0.0,0.0,0.0,0.0,0.0,0.0,0.0,0.0,0.0,0.0,0.0,0.0,0.0,0.0,0.0,0.0,0.0,0.0,0.0,0.0,0.0,0.0,0.0,0.0,0.0,0.0,0.0,0.0,0.0,0.0,0.0,0.0,0.0,0.0,0.0,0.0,0.0,0.0,0.0,0.0,0.0,0.0,0.0,0.0,0.0,0.0,0.0,0.0,0.0,0.0,0.0,0.0,0.0,0.0,0.0,0.0,0.0,0.0,0.0,0.0,0.0,0.0,0.0,0.0,0.0,0.0,0.0,0.0,0.0,0.0,0.0,0.0,0.0,0.0,0.0,0.0,0.0,0.0,0.0,0.0,0.0,0.0,0.0,0.0,0.0,0.0,0.0,0.0,-2.7703,-2.8577,-2.97,-3.0261,-3.0341,-3.0581,-3.1142,-3.1209,-3.0996,-3.0474,0.0,0.0,0.0,0.0,0.0,0.0,0.0,0.0,0.0,0.0,0.0,0.0,0.0,0.0,0.0,0.0,0.0,0.0,0.0,0.0,0.0,0.0,0.0,0.0,0.0,0.0,0.0,0.0,0.0,0.0,0.0,0.0,0.0,0.0,0.0,0.0,0.0,0.0,0.0,0.0,0.0,0.0,0.0,0.0,0.0,0.0,0.0,0.0,0.0,0.0,0.0,0.0,0.0,0.0,0.0,0.0,0.0,0.0,0.0,0.0,-1.1782,0.0,0.0,0.0,0.0,0.0,0.0,0.0,0.0,0.0,0.0,0.0,0.0,0.0,0.0,0.0,0.0,0.0,0.0,0.0,0.0,0.0,0.0,0.0,0.0,0.0,0.0,0.0,0.0,0.0,0.0,0.0,0.0,0.0,0.0,0.0,0.0,0.0,0.0,0.0,0.0,0.0,-2.7948,-2.8711,-2.9619,-2.9967,-3.0221,-3.0501,-3.0849,-3.1089,-3.1169,-3.1049,-3.0274,0.0,0.0,0.0,0.0,0.0,0.0,0.0,0.0,0.0,0.0,0.0,0.0,0.0,0.0,0.0,0.0,0.0,0.0,0.0,0.0,0.0,0.0,0.0,0.0,0.0,0.0,0.0,0.0,0.0,0.0,0.0,0.0,0.0,0.0,0.0,0.0,0.0,0.0,0.0,0.0,0.0,0.0,0.0,0.0,0.0,0.0,0.0,0.0,0.0,0.0,0.0,0.0,0.0,0.0,0.0,0.0,0.0,0.0,0.0,0.0,-1.2081,0.0,0.0,0.0,0.0,0.0,0.0,0.0,0.0,0.0,0.0,0.0,0.0,0.0,0.0,0.0,0.0,0.0,0.0,0.0,0.0,0.0,0.0,0.0,0.0,0.0,0.0,0.0,0.0,0.0,0.0,0.0,0.0,0.0,0.0,0.0,0.0,0.0,0.0,0.0,0.0,-2.7906,-2.8871,-2.9753,-2.99,-3.006,-3.0327,-3.0755,-3.0929,-3.1076,-3.1223,-3.1457,0.0,0.0,0.0,0.0,0.0,0.0,0.0,0.0,0.0,0.0,0.0,0.0,0.0,0.0,0.0,0.0,0.0,0.0,0.0,0.0,0.0,0.0,0.0,0.0,0.0,0.0,0.0,0.0,0.0,0.0,0.0,0.0,0.0,0.0,0.0,0.0,0.0,0.0,0.0,0.0,0.0,0.0,0.0,0.0,0.0,0.0,0.0,0.0,0.0,0.0,0.0,0.0,0.0,0.0,-1.7575,-1.3796,-1.3288,-1.3193,-1.3315,-1.3071,-1.2888,-1.2752,0.0,0.0,0.0,0.0,0.0,0.0,0.0,0.0,0.0,0.0,0.0,0.0,0.0,0.0,0.0,0.0,0.0,0.0,0.0,0.0,0.0,0.0,0.0,0.0,0.0,-2.6573,-2.6266,0.0,0.0,0.0,0.0,0.0,0.0,0.0,0.0,0.0,0.0,0.0,0.0,-2.7942,-2.9058,-2.9913,-2.9913,-2.9967,-3.0207,-3.0755,-3.0889,-3.1049,-3.1289,-3.235,-3.3535,0.0,0.0,0.0,0.0,0.0,0.0,0.0,0.0,0.0,0.0,0.0,0.0,0.0,0.0,0.0,0.0,0.0,0.0,0.0,0.0,0.0,0.0,0.0,0.0,0.0,0.0,0.0,0.0,0.0,0.0,0.0,0.0,-2.322,-2.326,0.0,0.0,0.0,0.0,0.0,0.0,0.0,0.0,0.0,0.0,0.0,0.0,0.0,0.0,-2.5398,-2.6199,-2.543,-2.2947,-2.128,-1.9342,-1.7136,-1.4791,-1.381,-1.3953,-1.3912,0.0,-1.2935,-1.3024,0.0,0.0,0.0,0.0,0.0,0.0,0.0,0.0,0.0,0.0,0.0,0.0,0.0,0.0,0.0,0.0,0.0,0.0,0.0,0.0,0.0,0.0,-2.7522,-2.7522,-2.7335,-2.7041,0.0,-2.5705,-2.4943,-2.4863,0.0,0.0,0.0,0.0,0.0,0.0,0.0,0.0,-2.8574,-2.9325,-2.9913,-2.9913,-3.0154,-3.0434,-3.0768,-3.1263,-3.157,-3.161,-3.1624,-3.2966,-3.5978,-3.5097,0.0,0.0,0.0,0.0,0.0,0.0,0.0,0.0,0.0,0.0,0.0,0.0,0.0,0.0,0.0,0.0,0.0,0.0,0.0,0.0,0.0,0.0,0.0,0.0,0.0,0.0,0.0,0.0,0.0,-2.3794,-2.4128,-2.4289,-2.4022,-2.3754,0.0,0.0,0.0,0.0,0.0,0.0,0.0,0.0,0.0,-2.5798,-2.6092,-2.6333,-2.6493,-2.6881,-2.6066,-2.3739,-2.1652,-1.9609,-1.7484,-1.5024,-1.4007,-1.4075,-1.4075,-1.3933,-1.3695,-1.3417,-1.3173,-1.2956,0.0,0.0,0.0,0.0,0.0,-1.4553,-1.6436,-1.7052,0.0,0.0,0.0,0.0,0.0,0.0,0.0,0.0,0.0,0.0,0.0,0.0,0.0,-2.8698,-2.8604,-2.843,-2.8136,-2.7535,-2.6814,0.0,-2.5571,-2.5384,-2.5384,0.0,0.0,0.0,0.0,-2.9091,-2.8722,-2.9379,-2.998,-3.0154,-3.0287,-3.0541,-3.0996,-3.1423,-3.1744,-3.1904,-3.2766,-3.4394,-3.6947,-3.6879,-3.7647,0.0,0.0,0.0,0.0,0.0,0.0,0.0,0.0,0.0,0.0,0.0,0.0,0.0,0.0,0.0,0.0,0.0,0.0,0.0,0.0,0.0,0.0,0.0,0.0,0.0,0.0,0.0,0.0,-2.4649,-2.5024,-2.517,-2.493,-2.4596,0.0,0.0,0.0,0.0,0.0,0.0,-2.5411,-2.5905,-2.6386,-2.6827,-2.7121,-2.7388,-2.7602,-2.7615,-2.6581,-2.4209,-2.2012,-1.9895,-1.7704,-1.5286,-1.4265,-1.4299,-1.4299,-1.4407,-1.4536,-1.3933,-1.362,-1.3485,-1.3146,-1.2969,-1.2935,-1.3207,-1.3665,-1.4614,-1.78,-1.8786,-1.9578,-2.4094,0.0,-2.533,-2.6659,0.0,0.0,0.0,0.0,-2.8511,-2.9112,-2.9432,-2.9593,-2.9593,-2.9539,-2.9419,-2.9205,-2.8858,-2.8257,0.0,-2.66,-2.6531,-2.7065,0.0,0.0,0.0,0.0,-2.9029,-2.8671,-2.9486,-3.0114,-3.0341,-3.0488,-3.0755,-3.1196,-3.1637,-3.2327,-3.3023,-3.4262,-3.5989,-3.8602,-3.9137,-3.9677,-4.041,0.0,0.0,0.0,0.0,0.0,0.0,0.0,0.0,0.0,0.0,0.0,0.0,0.0,0.0,0.0,0.0,0.0,0.0,0.0,0.0,0.0,0.0,0.0,0.0,0.0,0.0,0.0,0.0,0.0,-2.5531,-2.5959,0.0,0.0,0.0,0.0,-2.5037,-2.5304,-2.5732,-2.6293,-2.6613,-2.7175,-2.803,-2.835,-2.8524,-2.8537,-2.8537,-2.7298,-2.5008,-2.2574,-2.0223,-1.8279,-1.5774,-1.4787,-1.4923,-1.4923,-1.5086,-1.5309,-1.4706,-1.4448,-1.4441,-1.4421,-1.4238,-1.4014,-1.4177,-1.5518,-1.7501,-2.0705,-2.1828,-2.259,-2.7649,-2.8818,-2.826,-2.7829,-2.7856,0.0,0.0,-2.8537,-2.9125,-2.9713,-2.9887,-2.99,-2.99,-2.9686,-2.9486,-2.9459,-2.9018,-2.8497,0.0,-2.7816,-2.8153,-2.9924,0.0,-3.0465,-3.0794,-3.1256,-3.0991,-2.9138,-2.9793,-3.0341,-3.0354,-3.0849,-3.1196,-3.1223,-3.2011,-3.3519,-3.5658,-3.5613,-3.7502,-4.1515,-4.0665,-4.0639,-4.1719,-4.3933,0.0,0.0,0.0,0.0,0.0,0.0,0.0,0.0,0.0,0.0,0.0,0.0,0.0,0.0,0.0,0.0,0.0,0.0,0.0,0.0,0.0,0.0,0.0,0.0,0.0,0.0,0.0,0.0,-2.6881,-2.6934,0.0,0.0,-2.664,-2.6881,-2.6774,-2.7575,-2.807,-2.8096,-2.8551,-2.8791,-2.8724,-2.9018,-2.9085,-2.8885,-2.8885,-2.8525,-2.7631,-2.3545,-2.1284,-2.0459,-1.6529,-1.4828,-1.497,-1.497,-1.514,-1.5398,-1.5181,-1.4977,-1.4801,-1.4699,-1.4536,-1.4544,-1.6293,-1.7445,-1.8783,-2.3263,-2.4958,-2.5491,-2.8899,-2.9646,-2.9125,-2.8911,-2.8791,-2.8764,-2.8951,-2.9432,-2.994,-3.014,-3.0621,-3.0902,-3.0341,-3.0261,-3.0221,-2.9847,-2.9593,-2.9366,-2.9058,-2.8617,-2.8892,-3.1061,-3.1707,-3.2312,-3.3672,-3.4622,-3.4922,-3.4204,-3.3531,-3.3024,-3.3225,-3.2005,-3.1838,-3.3687,-3.4564,-3.5985,-3.8068,-3.8015,-3.896,-4.1709,-4.089,-4.0842,-4.2226,-4.4741,-4.4901,0.0,0.0,0.0,0.0,0.0,0.0,0.0,0.0,0.0,0.0,0.0,0.0,0.0,0.0,0.0,0.0,0.0,0.0,0.0,0.0,0.0,0.0,0.0,0.0,0.0,0.0,-2.7228,-2.7522,-2.7655,-2.7602,-2.7295,-2.7722,-2.8043,-2.815,-2.8885,-2.9245,-2.9045,-2.9499,-2.9593,-2.9205,-2.9379,-2.9392,-2.9192,-2.9085,-2.8683,-2.7785,-2.393,-2.1462,-2.0573,-1.6735,-1.5052,-1.5201,-1.5248,-1.5411,-1.5635,-1.5635,-1.5493,-1.5255,-1.5099,-1.4984,-1.5271,-1.7732,-1.8769,-1.9648,-2.5129,-2.7667,-2.8856,-3.049,-3.0635,-3.0087,-3.0194,-2.9873,-2.9553,-2.9847,-3.0207,-3.0528,-3.0621,-3.1089,-3.137,-3.0795,-3.0728,-3.0742,-3.0555,-3.0354,-3.0207,-3.0221,-3.0192,-3.0695,-3.2892,-3.4071,-3.5125,-3.6396,-3.7364,-3.7674,-3.682,-3.6163,-3.5723,-3.6064,-3.4766,-3.4544,-3.6406,-3.7117,-3.829,-4.0644,-4.0288,-4.1064,-4.3162,-4.2326,-4.2122,-4.3105,-4.5873,-4.6352,-4.4619,0.0,0.0,0.0,0.0,0.0,0.0,0.0,0.0,0.0,0.0,0.0,0.0,0.0,0.0,0.0,0.0,0.0,0.0,0.0,0.0,0.0,0.0,0.0,-2.6012,-2.6987,-2.7615,-2.7348,-2.8096,-2.8511,-2.8217,-2.847,-2.8778,-2.9058,-2.9085,-2.9085,-2.9085,-2.9352,-2.9499,-2.9499,-2.9499,-2.9499,-2.9499,-2.9219,-2.7998,-2.5678,-2.3221,-2.0982,-1.8643,-1.6408,-1.5513,-1.5669,-1.5805,-1.5954,-1.6289,-1.6289,-1.6206,-1.6048,-1.571,-1.5649,-1.6029,-1.868,-1.9811,-2.0619,-2.623,-2.9884,-3.2144,-3.2438,-3.1944,-3.1289,-3.157,-3.1049,-3.0434,-3.0715,-3.0808,-3.0889,-3.1156,-3.1236,-3.1249,-3.1223,-3.1009,-3.0955,-3.1517,-3.1196,-3.0969,-3.1719,-3.2446,-3.369,-3.5504,-3.777,-3.9141,-3.8761,-3.9359,0.0,-3.6844,-3.7434,-3.823,-3.8562,-3.8745,-3.8977,-3.9159,-3.929,-4.061,-4.3217,-4.2838,-4.3727,-4.6094,-4.5058,-4.4542,-4.4651,-4.7076,-4.8817,-4.9665,0.0,0.0,0.0,0.0,0.0,0.0,0.0,0.0,0.0,0.0,0.0,0.0,0.0,0.0,0.0,0.0,0.0,0.0,0.0,0.0,0.0,0.0,-2.6734,-2.7161,-2.7682,-2.815,-2.8511,-2.8965,-2.9205,-2.9125,-2.9579,-2.9913,-2.9993,-3.0194,-3.0221,-3.0007,-3.0074,-3.002,-2.9806,-2.9793,-2.9793,-2.9793,-2.9927,-2.962,-2.9067,-2.4877,-2.2646,-2.1859,-1.7604,-1.5872,-1.613,-1.6164,-1.7457,-1.9388,-1.9388,-2.0551,-2.1858,-1.762,-1.7057,-1.8866,-2.1348,-2.4683,-2.801,-2.9912,-3.1133,-3.1837,-3.2131,-3.1917,-3.1517,-3.1383,-3.1036,-3.0688,-3.0768,-3.1102,-3.1396,-3.1263,-3.1543,-3.1757,-3.133,-3.1169,-3.1089,-3.1049,-3.1076,-3.1634,-3.3384,-3.5346,-3.6773,-3.6855,-3.8576,-4.0565,-4.1998,-4.2787,0.0,-4.2293,-4.1341,-4.0737,-4.0579,-3.9278,-3.9138,-4.0946,-4.1476,-4.2784,-4.5369,-4.5274,-4.5434,-4.5859,-4.636,-4.7559,-4.944,-4.9845,-5.0436,0.0,0.0,0.0,0.0,0.0,0.0,0.0,0.0,0.0,0.0,0.0,0.0,0.0,0.0,0.0,0.0,0.0,0.0,0.0,0.0,0.0,0.0,-2.6881,-2.7589,-2.8177,-2.831,-2.8511,-2.8978,-2.9192,-2.9392,-2.9646,-2.986,-3.01,-3.0341,-3.0394,-3.0354,-3.0181,-3.0287,-3.0287,-3.0114,-3.0221,-2.9716,-2.8597,-2.8762,-2.8457,-2.7337,-2.3341,-2.161,-2.1624,-1.7659,-1.6083,0.0,-1.6374,-1.8045,-2.0536,-2.0536,-2.2333,0.0,0.0,0.0,0.0,0.0,-2.7902,-3.141,-3.1877,-3.2118,-3.2251,-3.2412,-3.2278,-3.1984,-3.1677,-3.1303,-3.0996,-3.1129,-3.1316,-3.1476,-3.1423,-3.1664,-3.1837,-3.149,-3.141,-3.1396,-3.1356,-3.1383,-3.2121,-3.4426,-3.6703,0.0,-3.914,-4.0718,-4.2367,-4.3565,-4.3926,-4.4101,-4.4101,-4.3614,-4.3224,-4.3149,-4.2238,-4.2297,-4.3746,-4.4793,0.0,0.0,0.0,-4.8918,-4.8482,-4.9081,0.0,0.0,0.0,0.0,0.0,0.0,0.0,0.0,-5.4594,-5.5545,0.0,0.0,0.0,0.0,0.0,0.0,0.0,0.0,0.0,0.0,0.0,0.0,0.0,0.0,0.0,0.0,-2.7856,-2.8444,-2.9005,-2.8898,-2.8845,-2.9058,-2.9125,-2.9339,-2.986,-2.9713,-2.9793,-3.0314,-3.014,-3.002,-3.002,0.0,0.0,0.0,0.0,-2.9263,-2.6981,-2.7016,-2.5705,-2.3442,-2.1028,-2.0001,-1.9987,-1.7261,-1.6239,-1.6395,-1.6925,-1.8587,-2.1203,-2.1397,-2.3203,-2.5808,-2.5356,-2.5012,-2.5001,-2.7557,-2.9972,-3.2198,-3.2492,0.0,0.0,-3.2973,-3.2799,-3.2532,-3.2198,-3.1744,-3.137,-3.1597,-3.1503,-3.1383,-3.165,-3.1717,-3.1717,-3.1717,-3.169,-3.1744,-3.1998,-3.1877,-3.2707,-3.5539,-3.7328,-3.9267,-4.194,-4.3557,-4.4258,-4.3848,-4.373,-4.3711,-4.3711,-4.4473,-4.5156,-4.5488,0.0,0.0,-4.623,-4.8209,-4.9574,-4.9616,-5.1594,-5.2861,-5.2714,-5.2691,-5.3428,-5.5004,-5.4525,-5.4762,-5.5666,-5.8562,-5.9421,-5.8419,-5.668,-5.7212,0.0,0.0,0.0,0.0,0.0,0.0,0.0,0.0,0.0,0.0,0.0,0.0,0.0,0.0,0.0,-2.7856,-2.847,-2.8991,-2.9352,-2.9553,-2.9593,-2.9419,-2.9606,-2.9793,-2.99,-3.0087,-3.0234,-3.0354,-3.0528,-3.0621,-3.0621,-3.0675,0.0,-3.0715,-2.8669,-2.7366,-2.6981,-2.7204,-2.6932,-2.6364,0.0,0.0,-2.3154,-1.8564,-1.6707,-1.7058,-1.9137,-2.181,-2.447,-2.6713,-2.9166,-3.1552,-2.8907,-2.7916,-2.8067,-3.0802,-3.201,-3.2505,-3.2799,-3.2933,-3.2973,-3.2973,-3.2933,-3.2799,-3.2265,-3.2024,0.0,-3.1717,-3.1797,-3.1944,-3.2011,-3.2024,-3.2024,-3.2024,-3.1837,-3.1677,-3.1744,-3.1891,-3.3267,-3.7486,-3.884,-4.0504,-4.4769,-4.4834,-4.4375,-4.4277,-4.3945,-4.3711,-4.3711,-4.4473,-4.4922,-4.4668,-4.5332,-4.5801,-4.5801,-4.776,-4.9238,-4.9595,-5.1594,-5.3538,-5.4821,-5.4798,-5.553,-5.7272,-5.7148,-5.7149,-5.7399,-6.0382,-6.1709,-6.154,-6.0961,-6.1507,0.0,0.0,0.0,0.0,0.0,0.0,0.0,0.0,0.0,0.0,0.0,-2.6226,0.0,0.0,-2.7949,-2.8698,-2.9058,-2.9419,-2.986,-3.0047,-3.0087,-2.994,-3.0181,-3.0354,-3.0354,-3.0488,-3.0581,-3.0581,-3.0715,-3.0795,-3.0795,-3.0929,-3.1009,-3.1009,-2.9994,-2.8137,-2.5458,-2.5578,-2.4349,-2.1753,-2.0768,-2.0209,-2.0477,-1.7938,-1.7654,-1.9044,-2.0488,-2.3362,-2.7465,-3.0141,-3.2183,-3.3173,-3.1662,-3.1061,-3.0935,-3.2194,-3.2545,-3.2585,-3.2879,-3.2973,-3.2973,-3.2973,-3.2973,-3.2866,-3.2278,-3.2104,-3.2078,-3.1931,-3.1984,-3.2104,-3.2104,-3.2104,-3.2064,-3.1917,-3.177,-3.1664,-3.1664,-3.1784,-3.3317,-3.8111,-3.9125,-4.0669,-4.5431,-4.5605,-4.4961,-4.4746,-4.4336,-4.3965,-4.373,-4.4297,-4.4629,-4.4414,-4.5156,-4.5683,-4.5683,-4.8986,-5.1994,-5.4372,-5.555,-5.6574,-5.7482,-5.7458,-5.7826,-5.8704,-5.8453,-5.8731,-5.9676,-6.1858,-6.3193,-6.3799,-6.3965,-6.434,0.0,0.0,0.0,0.0,0.0,0.0,0.0,0.0,-2.6186,-2.6787,-2.6907,-2.7215,-2.8217,-2.8404,-2.8657,-2.9446,-2.9619,-2.982,-3.0301,-3.0461,-3.0528,-3.0528,-3.0688,-3.0795,-3.0795,-3.0849,-3.0875,-3.0875,-3.0929,-3.0969,-3.0969,-3.1183,-3.1316,-3.1316,-3.1152,-2.8931,-2.4657,-2.4115,-2.1882,-1.7896,-1.7365,-1.7319,-1.7362,-1.6982,-1.8299,-2.1103,-2.2131,-2.542,-3.0343,-3.2384,-3.3414,-3.3414,-3.3414,-3.3267,-3.3026,-3.2799,-3.2719,-3.2746,-3.2986,-3.3066,-3.3066,-3.3066,-3.3066,-3.2959,-3.2438,-3.2278,-3.2265,-3.2211,-3.2185,-3.2185,-3.2185,-3.2185,-3.2118,-3.1824,-3.1757,-3.1744,-3.1677,-3.2043,-3.3685,-3.8079,-3.9358,-4.1169,-4.5568,-4.6016,-4.5644,-4.5215,-4.4785,-4.4394,-4.4004,-4.4355,-4.4609,-4.4531,-4.5215,-4.6009,-4.6997,-5.0999,-5.5228,-5.9328,-5.9583,-5.9608,-5.9508,-5.9608,-5.9608,-5.9483,-5.9081,-5.9868,-6.1674,-6.2905,-6.4295,-6.5679,-6.6001,-6.6129,-2.6718,-2.6947,-2.6841,-2.7335,-2.7255,-2.7348,0.0,0.0,-2.8016,-2.8617,-2.8738,-2.8858,-2.9259,-2.9339,-2.9446,-2.9806,-3.0087,-3.0287,-3.0354,-3.0808,-3.1129,-3.1129,-3.0929,-3.0795,-3.0795,-3.1022,-3.1183,-3.1183,-3.1423,-3.157,-3.157,-3.1597,-3.1623,-3.1623,-2.9504,-2.7972,-2.7384,-2.5257,-2.3799,-2.3236,-2.1194,-2.0159,-1.9995,-1.7919,-1.841,-2.131,-2.624,-3.0129,-3.3,-3.3213,-3.3414,-3.3414,-3.3414,-3.3387,-3.336,-3.332,-3.332,-3.332,-3.3347,-3.336,-3.336,-3.336,-3.336,-3.3307,-3.2973,-3.2879,-3.2826,-3.2572,-3.2492,-3.2492,-3.2492,-3.2492,-3.2425,-3.2131,-3.2051,-3.1984,-3.1717,-3.3309,-3.5695,-3.8445,-4.0808,-4.2996,-4.5763,-4.6269,-4.6094,-4.5664,-4.5234,-4.4941,-4.4883,-4.5254,-4.5391,-4.5,-4.5391,-4.7318,-5.1224,-5.4257,-5.6852,-5.9328,-5.996,-6.001,-5.9508,-5.996,-6.001,-5.9508,-5.9433,-6.0431,-6.2307,-6.353,-6.4999,-6.6949,-6.6854,-6.6886,-2.801,-2.8203,-2.8177,-2.8417,-2.839,-2.843,-2.8925,-2.8845,-2.8791,-2.9205,-2.9299,-2.9392,-2.9686,-2.974,-2.9833,0.0,-3.0274,-3.0474,-3.0822,-3.1076,-3.1289,-3.1463,-3.137,-3.1303,-3.1303,-3.141,-3.149,-3.149,-3.1597,-3.1664,-3.1664,-3.1664,-3.1664,-3.1664,-3.07,-2.9413,-2.8003,-2.6928,-2.5927,-2.4598,-2.3567,-2.3109,-2.3231,-2.0654,-2.0903,-2.3775,-2.768,-3.1049,-3.3681,-3.3494,-3.3521,-3.3668,-3.348,-3.3414,-3.3387,-3.3213,-3.3267,-3.3387,-3.3213,-3.3267,-3.3414,-3.3414,-3.3414,-3.336,-3.3066,-3.2973,-3.2959,-3.2826,-3.2799,-3.2799,-3.2799,-3.2799,-3.2679,-3.2211,-3.2104,-3.2024,-3.173,-3.3685,-3.6051,-3.8445,-4.0988,-4.3371,-4.5939,-4.6308,-4.625,-4.6074,-4.5683,-4.5312,-4.5058,-4.5176,-4.5707,-4.6649,-4.8505,-5.0839,-5.4211,-5.5593,-5.7314,-5.9804,-5.9608,-5.9433,-5.9483,-5.9433,-5.9433,-5.9483,-6.066,-6.1931,-6.3434,-6.514,-6.606,-6.6509,-6.6869,-6.6527,-2.9005,-2.9098,-2.9165,-2.9165,-2.9219,-2.9285,-2.9285,-2.9285,-2.9339,-2.9553,-2.9606,-2.9673,-2.9873,-2.998,-3.0114,-3.0327,-3.0488,-3.0742,-3.1169,-3.1289,-3.1423,-3.1637,-3.1664,-3.1664,-3.1664,-3.1664,-3.1664,-3.1664,-3.1664,-3.1664,-3.1664,-3.1664,-3.1664,-3.1664,-3.1664,-3.0829,-2.9335,-2.8617,-2.7486,-2.6084,-2.5348,-2.5053,-2.5215,-2.3981,-2.4392,-2.6444,-2.9319,-3.1744,-3.3855,-3.3547,-3.3601,-3.3855,-3.3534,-3.3414,-3.3374,-3.3,-3.3093,-3.3374,-3.308,-3.3173,-3.3414,-3.3414,-3.3414,-3.3374,-3.316,-3.3093,-3.3291,-3.4055,-3.4253,-3.4253,-3.4253,-3.4253,-3.3932,-3.2646,-3.2278,-3.2324,-3.2776,-3.4666,-3.6975,-3.9523,-4.1905,-4.4277,-4.5939,-4.6308,-4.6308,-4.6308,-4.6055,-4.5742,-4.541,-4.5766,-4.6663,-4.8275,-5.133,-5.4026,-5.6144,-5.6574,-5.7873,-5.9904,-5.9232,-5.883,-5.9056,-5.9131,-5.9489,-5.9973,-6.1744,-6.3404,-6.5,-6.6058,-6.63,-6.5981,-6.6488,-6.6079,-2.9112,-2.9245,-2.9472,-2.9472,-2.9686,-2.9887,-2.9887,-2.9887,-2.9887,-2.99,-2.99,-2.99,-2.9913,-3.0154,-3.0354,-3.0354,-3.0835,-3.1209,-3.1223,-3.1476,-3.1664,-3.1664,-3.1664,-3.1664,0.0,-3.1664,-3.1664,-3.1664,-3.1664,-3.1664,-3.1664,-3.1664,-3.1664,-3.1664,-3.1664,-3.181,-3.1899,-2.9591,-2.8451,-2.8708,-2.6317,-2.5204,-2.5215,-2.7884,-2.9116,-2.9319,-3.2183,-3.3587,-3.3855,-3.3547,-3.3601,-3.3855,-3.3534,-3.3414,-3.3347,-3.2772,-3.2919,-3.3374,-3.308,-3.3173,-3.3414,-3.3414,-3.3414,-3.3414,-3.34,-3.34,-3.3987,-3.6495,-3.707,-3.707,-3.707,-3.707,-3.6407,-3.3592,-3.2732,-3.3201,-3.5134,-3.7396,-3.9523,-4.2085,-4.4454,-4.6289,-4.6308,-4.6308,-4.6308,-4.6308,-4.6289,-4.6289,-4.6269,-4.7711,-4.8924,-4.8924,-5.283,-5.5803,-5.6327,-5.772,-5.8802,-5.9483,-5.9006,-5.8478,-5.7976,-5.9433,-6.0635,-6.1395,-6.265,-6.4364,-6.6969,-6.5733,-6.5426,-6.5951,-6.5933,-6.5586,-2.9887,-2.9993,-3.0114,-3.0301,-3.0421,-3.0501,-3.0501,-3.0354,-3.0261,-3.0461,-3.0181,-2.998,-3.0181,-3.0287,-3.0421,-3.0621,-3.0969,-3.1289,-3.149,-3.161,-3.1664,-3.1664,-3.1664,0.0,0.0,0.0,0.0,-3.1664,-3.1664,-3.1664,-3.1664,-3.1664,-3.1664,-3.1664,-3.1851,-3.2104,-3.2398,-3.1868,-3.1547,-3.1829,-3.1101,-2.9724,-2.7884,-2.8913,-2.9319,-2.9319,-3.0343,-3.1946,-3.3855,-3.3547,-3.3601,-3.3855,-3.3534,-3.3293,-3.308,-3.2692,-3.2786,-3.308,-3.2786,-3.3013,-3.3414,-3.3414,-3.3414,-3.3414,-3.3414,-3.3414,-3.36,-3.4372,-3.5932,-3.7282,-3.7282,-3.7282,-3.7011,-3.5919,-3.4088,-3.3229,-3.5338,-3.7411,-3.9704,-4.2085,-4.4649,-4.6308,-4.6308,-4.6308,-4.6308,-4.6308,-4.6308,-4.6308,-4.6308,-4.9321,-5.141,-5.1082,-5.5398,-5.8303,-5.8476,-5.8544,-5.8956,-5.9458,-5.8303,-5.77,-5.7901,-5.8428,-5.9386,-6.0816,-6.2812,-6.4276,-6.5101,-6.5914,-6.6071,-6.5381,-6.6217,-6.6574,-3.0341,-3.0434,-3.0555,-3.0742,-3.0795,-3.0795,-3.0795,-3.0648,-3.0555,-3.0742,-3.0408,-3.014,-3.0119,-3.0434,-3.0608,-3.0902,-3.1276,-3.161,-3.1797,-3.1824,-3.1784,-3.1677,-3.1664,-3.1664,0.0,0.0,0.0,-3.1664,-3.1664,-3.1664,-3.1664,-3.1664,-3.1664,-3.1664,-3.1944,-3.2251,-3.2545,-3.2839,-3.312,-3.3414,-3.3414,-3.2384,-3.0748,-3.0748,-3.0748,-3.0748,-3.0748,-3.1946,-3.3855,-3.3547,-3.3601,-3.3855,-3.3534,-3.324,-3.2959,-3.2772,-3.2826,-3.2933,-3.2652,-3.2919,-3.3414,-3.3414,-3.3414,-3.3414,-3.3414,-3.3414,-3.36,-3.4571,-3.6706,-3.8636,-3.8636,-3.9399,-3.953,-3.7597,-3.5579,-3.4696,-3.6814,-3.8328,-4.0055,-4.3389,-4.5197,-4.6308,-4.6308,-4.6967,-4.7468,-4.7468,-4.8118,-4.829,-4.7641,-5.1282,-5.3955,-5.3634,-5.6988,-5.9382,-5.9759,-5.8755,-5.8428,-5.9182,-5.765,-5.6922,-5.7273,-5.7675,-5.8917,-6.1326,-6.2996,-6.4319,-6.5105,-6.64,-6.6345,-6.5111,-6.6703,-6.7265,-3.0474,-3.0608,-3.0822,-3.0835,-3.0835,-3.0835,-3.0835,-3.0624,-3.0597,-3.0597,-3.0568,-3.0381,0.0,0.0,-3.0902,-3.1156,-3.1704,-3.2078,-3.2078,-3.2078,-3.1984,0.0,0.0,0.0,0.0,0.0,0.0,-3.1664,0.0,-3.1664,-3.1664,-3.1664,-3.1677,-3.169,-3.1971,-3.2265,-3.2559,-3.2853,-3.3133,-3.3414,-3.3414,-3.3414,-3.3414,-3.3414,-3.3414,-3.3414,-3.3414,-3.3587,-3.3841,-3.3534,-3.3587,-3.3828,-3.3507,-3.3213,-3.2959,-3.2959,-3.2959,-3.2919,-3.2652,-3.2933,-3.3414,-3.3414,-3.3414,-3.3414,-3.3414,-3.3414,-3.4,-3.6509,-3.9221,-4.1156,-4.1332,-4.3262,-4.3832,-3.8816,-3.7417,-3.7663,-3.9584,-3.9785,-4.0892,-4.5469,-4.6308,-4.6308,-4.6308,-4.829,-4.9786,-4.9616,-5.1594,-5.2425,-5.0125,-5.3579,-5.6239,-5.6239,-5.7745,-5.9182,-6.0186,-5.8303,-5.7524,-5.8579,-5.7097,-5.6194,-5.6118,-5.7346,-5.9341,-6.2424,-6.3032,-6.4538,-6.6879,-6.7035,-6.6443,-6.5219,-6.7195,-6.7834,-3.0969,-3.1062,-3.1169,-3.1396,-3.145,-3.145,-3.145,-3.1263,-3.0916,-3.0916,-3.0875,-3.0621,-3.0381,-3.036,0.0,-3.0915,-3.1396,0.0,-3.1784,-3.1784,0.0,-3.1677,0.0,-3.1664,-3.1664,-3.1664,0.0,0.0,-3.1664,-3.1664,-3.1664,-3.1664,-3.177,-3.1984,-3.2278,-3.2572,-3.2866,-3.316,-3.3334,-3.3414,-3.3414,-3.3414,-3.3414,-3.3414,-3.3414,-3.3414,-3.3414,-3.3454,-3.3521,-3.344,-3.3454,-3.3507,-3.32,-3.2906,-3.2652,-3.2652,-3.2652,-3.2679,-3.2826,-3.3106,-3.3414,-3.3414,-3.3414,-3.3414,-3.3414,-3.3414,-3.4,-3.6509,-3.9221,-4.154,-4.3452,-4.4589,-4.4607,-4.3434,-4.1431,-4.0306,-4.2389,-4.2573,-4.3108,-4.5821,-4.6308,-4.6308,-4.6308,-4.9446,-5.1449,-4.9786,-5.4232,-5.6375,-5.2591,-5.4418,-5.6215,-5.6191,-5.8065,-5.9408,-5.9684,-5.8453,-5.7625,-5.7474,-5.6671,-5.5842,-5.5013,-5.7292,-5.9368,-6.1181,-6.2962,-6.4422,-6.5533,-6.6576,-6.6964,-6.6647,-6.8209,-6.9362,-3.137,-3.1423,-3.1463,-3.1623,-3.1664,-3.1637,-3.1719,-3.1558,-3.1396,-3.1475,-3.1114,-3.0755,-3.0988,-3.0915,-3.0808,0.0,0.0,0.0,-3.1864,-3.1864,-3.1824,0.0,-3.1664,0.0,-3.1664,-3.1664,-3.1664,0.0,-3.1664,-3.1664,-3.1664,-3.1664,-3.1797,-3.2091,-3.2385,-3.2746,-3.316,-3.3334,-3.3414,-3.3414,-3.3414,-3.3414,-3.3414,-3.3414,-3.3414,-3.3414,0.0,-3.3414,-3.3414,-3.3414,-3.3414,-3.3387,-3.3093,-3.2799,-3.2545,-3.2545,-3.2545,-3.2585,-3.2879,-3.3173,-3.3414,-3.3414,-3.3414,-3.3414,-3.3414,-3.3414,-3.4,-3.6509,-3.9221,-4.1732,-4.44,-4.5755,-4.6336,-4.5361,-4.3845,-4.2828,-4.3766,-4.3758,-4.405,-4.5879,-4.6308,-4.6308,-4.6308,-4.9955,-5.2425,-5.1282,-5.5871,-5.8656,-5.6055,-5.6876,-5.7692,-5.7667,-5.8613,-5.9257,-5.9483,-5.8052,-5.7123,-5.7047,-5.6972,-5.6778,-5.6136,-5.8567,-6.0783,-6.2314,-6.3308,-6.4202,-6.5024,-6.6765,-6.7439,-6.7266,-6.9217,-7.0574,-3.1664,-3.1664,-3.1664,-3.1664,-3.1664,-3.1597,-3.1705,-3.1651,-3.157,-3.1498,-3.1033,-3.0835,-3.143,-3.1475,-3.1356,-3.157,-3.1864,-3.2256,-3.2051,-3.2051,-3.2162,-3.1704,-3.1664,-3.1664,-3.1664,-3.1664,-3.1664,-3.1664,-3.1664,-3.1664,-3.1664,-3.1704,-3.1891,-3.2265,-3.2519,-3.2919,-3.3467,-3.3427,-3.3414,-3.3414,-3.3414,-3.3414,-3.3414,-3.3414,-3.3414,-3.3414,0.0,0.0,-3.3414,-3.3414,-3.3414,-3.3374,-3.3053,-3.2759,-3.2545,-3.2505,-3.2492,-3.2532,-3.2866,-3.3146,-3.336,-3.34,-3.3414,-3.3414,-3.38,-3.4,-3.4571,-3.7478,-3.9981,-4.229,-4.4796,-4.7102,-4.8273,-4.613,-4.5567,-4.5458,-4.5056,-4.4415,-4.4632,-4.6094,-4.6308,-4.6483,-4.6638,-5.0125,-5.2921,-5.3251,-5.6852,-5.9483,-5.9483,-5.9483,-5.9483,-5.9483,-5.9081,-5.9006,-5.9458,-5.7549,-5.6642,-5.7167,-5.7848,-5.8117,-5.8233,-6.059,-6.2549,-6.4166,-6.3901,-6.4129,-6.5173,-6.7261,-6.8028,-6.7427,-7.0016,-7.1312,-3.1664,-3.1664,-3.1664,-3.1664,-3.1664,-3.1597,-3.1303,-3.1009,-3.0729,-3.0862,-3.0558,-3.0238,-3.0835,-3.1236,-3.153,-3.133,-3.1557,-3.1744,-3.1744,-3.1744,-3.173,-3.1677,-3.1664,-3.1664,-3.1664,-3.1664,0.0,0.0,0.0,-3.1664,-3.1664,-3.1891,-3.2385,-3.316,-3.324,-3.344,-3.3801,-3.3547,-3.3414,-3.3414,-3.3414,-3.3414,-3.3414,-3.3414,-3.3414,-3.3414,-3.3414,0.0,-3.3414,-3.3414,-3.3414,-3.336,-3.2826,-3.2585,-3.2519,-3.2265,-3.2185,-3.2251,-3.2786,-3.3013,-3.3093,-3.3334,-3.3414,-3.38,-3.5932,-3.6706,-3.7674,-4.229,-4.4021,-4.4984,-4.7493,-4.8478,-4.8848,-4.8273,-4.8273,-4.8158,-4.7713,-4.6838,-4.6343,-4.6387,-4.6308,-4.6793,-4.8784,-5.1114,-5.3579,-5.5366,-5.7849,-5.9483,-5.9483,-5.9483,-5.9483,-5.9483,-5.9408,-5.9408,-5.9483,-5.7901,-5.7283,-5.8459,-5.8315,-5.8265,-5.8859,-6.157,-6.3249,-6.363,-6.4882,-6.568,-6.5832,-6.795,-6.8627,-6.806,-7.0248,-7.1312,-3.1664,-3.1664,-3.1664,-3.1664,-3.1664,-3.1557,-3.1302,-3.0916,-3.069,-3.0438,-3.0518,-3.0969,-3.1248,-3.1571,-3.1677,-3.1677,-3.1677,-3.1717,-3.1877,-3.1757,-3.1664,-3.1664,-3.1664,-3.1664,-3.1664,-3.1664,-3.1664,0.0,0.0,-3.1664,-3.1664,-3.2091,-3.2746,-3.3627,-3.3654,-3.3734,-3.3881,-3.3734,-3.3574,-3.3414,-3.3414,-3.3414,-3.3414,-3.3414,-3.3414,-3.3414,-3.3414,0.0,-3.3414,-3.3414,-3.3414,-3.336,-3.2772,-3.2545,-3.2492,-3.2038,-3.1971,-3.2171,-3.2599,-3.2853,-3.3026,-3.332,-3.3414,-3.38,-3.6509,-3.7282,-3.8441,-4.3624,-4.4984,-4.5567,-4.8273,-4.8867,-4.8867,-4.8867,-4.8691,-4.8398,-4.7969,-4.7383,-4.6797,-4.6387,-4.6308,-4.6967,-4.9297,-5.1427,-5.3579,-5.5848,-5.8006,-5.9483,-5.9483,-5.9483,-5.9483,-5.9483,-5.9759,-5.9809,-5.9508,-5.8252,-5.7811,-5.8753,-5.891,-5.9572,-6.0822,-6.337,-6.4846,-6.5294,-6.6124,-6.634,-6.6011,-6.8106,-6.8818,-6.8252,-7.0315,-7.1312,-3.1664,-3.1664,-3.1664,-3.1664,-3.1664,-3.1517,-3.1141,-3.1022,-3.0876,-3.0148,-3.0862,-3.1664,-3.1732,-3.1719,-3.1757,-3.2051,-3.1904,-3.1837,-3.2064,-3.1904,-3.1744,-3.1677,-3.1664,-3.1664,-3.1664,-3.1664,0.0,0.0,0.0,0.0,-3.1757,-3.2318,-3.3026,-3.3855,-3.3948,-3.4015,-3.4068,-3.4015,-3.3828,-3.3507,-3.3507,-3.348,-3.3414,-3.3414,-3.3414,-3.3414,-3.3414,0.0,0.0,-3.3414,-3.3374,-3.3267,-3.2746,-3.2505,-3.2385,-3.1864,-3.181,-3.2064,-3.2425,-3.2692,-3.2946,-3.3293,-3.38,-3.477,-3.7282,-3.8441,-3.9981,-4.4589,-4.5755,-4.6336,-4.8273,-4.8867,-4.8867,-4.8867,-4.8535,-4.8086,-4.7676,-4.7246,-4.6797,-4.6387,-4.6308,-4.7141,-4.9786,-5.1761,-5.3743,-5.651,-5.8344,-5.9483,-5.9483,-5.9483,-5.9483,-5.9483,-5.9985,-6.0136,-5.9709,-5.8579,-5.8289,-5.9474,-5.9993,-6.1116,-6.2935,-6.5255,-6.661,-6.6969,-6.6999,-6.667,-6.6011,-6.8106,-6.8818,-6.8252,-7.0315,-7.1312,-3.1664,-3.1664,-3.1664,-3.1664,-3.1664,-3.1517,-3.0929,-3.1022,-3.1129,-3.0808,-3.0996,-3.1303,-3.1583,-3.165,-3.1757,-3.2051,-3.2078,-3.2078,-3.2104,-3.2078,-3.1971,-3.1704,-3.1664,-3.1664,-3.1664,-3.1664,0.0,0.0,0.0,0.0,-3.2051,-3.2625,-3.3227,-3.3868,-3.4148,-3.4416,-3.4683,-3.4416,-3.4135,-3.3841,-3.3841,-3.3694,-3.3414,-3.3414,-3.3414,-3.3414,-3.3414,0.0,0.0,-3.3414,-3.3253,-3.2986,-3.2666,-3.2385,-3.2104,-3.1784,-3.169,-3.1784,-3.2358,-3.2559,-3.2679,-3.3227,-3.4955,-3.7478,-3.9997,-4.2499,-4.4984,-4.7698,-4.8478,-4.8663,-4.8848,-4.8867,-4.8867,-4.8867,-4.8535,-4.8086,-4.7676,-4.7246,-4.6797,-4.6387,-4.6308,-4.7641,-5.1927,-5.2756,-5.4395,-5.85,-5.9328,-5.9483,-5.9483,-5.9483,-5.9483,-5.9483,-5.9985,-6.0311,-6.0236,-5.8805,-5.9006,-6.1656,-6.1654,-6.2535,-6.4695,-6.6667,-6.7537,-6.6999,-6.6999,-6.667,-6.6011,-6.8106,-6.8818,-6.8252,-7.0315,-7.1312,-3.1664,-3.1664,-3.1664,-3.1664,-3.153,-3.1289,-3.0889,-3.1022,-3.1142,-3.106,-3.1169,-3.153,-3.165,-3.1664,-3.1824,-3.2291,-3.2225,-3.2225,-3.2585,-3.2478,-3.2265,-3.1971,-3.1931,-3.1864,0.0,0.0,0.0,0.0,0.0,0.0,-3.2358,-3.2759,-3.3414,-3.4389,-3.4523,-3.4643,-3.4763,-3.4643,-3.4442,-3.4148,-3.3975,-3.3828,-3.3694,-3.3494,-3.3414,-3.3414,-3.3414,0.0,0.0,-3.3414,-3.324,-3.2946,-3.2652,-3.2372,-3.2064,-3.1784,-3.1664,-3.1757,-3.2345,-3.2545,-3.2639,-3.3227,-3.6312,-3.9787,-4.077,-4.1907,-4.3642,-4.7698,-4.8867,-4.8867,-4.8867,-4.8867,-4.8867,-4.8867,-4.834,-4.7793,-4.7617,-4.7246,-4.6797,-4.6387,-4.6504,-4.7943,-5.2138,-5.2921,-5.4395,-5.8837,-5.9483,-5.9483,-5.9483,-5.9483,-5.9608,-5.996,-6.0487,-6.0688,-6.0337,-6.0124,-6.0487,-6.2014,-6.2529,-6.3331,-6.4935,-6.655,-6.7268,-6.6999,-6.7484,-6.7592,-6.723,-6.8968,-6.9639,-6.9447,-7.0724,-7.1312,-3.1757,-3.173,-3.1664,-3.1664,-3.145,-3.1156,-3.0862,-3.1022,-3.1116,-3.0953,-3.1396,-3.1637,-3.1557,-3.161,-3.1837,-3.2332,-3.2318,-3.2372,-3.2799,-3.2746,-3.2559,-3.2265,-3.2305,-3.2211,0.0,0.0,0.0,0.0,0.0,0.0,0.0,-3.304,-3.3641,-3.4482,-3.475,-3.4897,-3.4897,-3.4897,-3.475,-3.4442,-3.4162,-3.3975,-3.3881,-3.3561,-3.3414,-3.3414,0.0,0.0,0.0,-3.3414,-3.3187,-3.2826,-3.2625,-3.2305,-3.1957,-3.1837,-3.1797,-3.1877,-3.2465,-3.2679,-3.2759,-3.3253,-3.6312,-4.019,-4.0947,-4.229,-4.4229,-4.7883,-4.8867,-4.8867,-4.8867,-4.8867,-4.8867,-4.8867,-4.8301,-4.7734,-4.7617,-4.7344,-4.6992,-4.6562,-4.7228,-4.9015,-5.2547,-5.3528,-5.5228,-5.8993,-5.9483,-5.9483,-5.9483,-5.9483,-5.9709,-6.0261,-6.0839,-6.1014,-6.0613,-6.1296,-6.2099,-6.27,-6.3867,-6.4901,-6.5801,-6.7178,-6.7687,-6.7298,-6.8076,-6.8188,-6.7786,-6.942,-7.0075,-6.9942,-7.0809,-7.1312,-3.1931,-3.1891,-3.1664,-3.1664,-3.145,-3.1156,-3.0862,-3.1022,-3.1062,-3.0488,-3.1062,-3.1583,-3.1289,-3.1476,-3.177,-3.2064,-3.2345,-3.2545,-3.2545,-3.2799,-3.2866,-3.2572,-3.2799,-3.2746,-3.2158,0.0,0.0,0.0,0.0,0.0,0.0,-3.3547,-3.3881,-3.3895,-3.4736,-3.5191,-3.5191,-3.5191,-3.5044,-3.475,-3.4456,-3.4162,-3.3881,-3.3561,-3.3414,0.0,0.0,0.0,0.0,-3.3414,-3.3066,-3.2545,-3.2545,-3.2185,-3.1704,-3.1998,-3.2104,-3.2185,-3.2772,-3.2973,-3.3026,-3.332,-3.5167,-3.7885,-4.0384,-4.4796,-4.8848,-4.8848,-4.8867,-4.8867,-4.8867,-4.8867,-4.8867,-4.8867,-4.8516,-4.8086,-4.7676,-4.7578,-4.7441,-4.7012,-4.8615,-5.0975,-5.3158,-5.509,-5.6876,-5.9173,-5.9483,-5.9483,-5.9483,-5.9483,-5.9709,-6.0261,-6.0839,-6.119,-6.1165,-6.2405,-6.3472,-6.399,-6.6157,-6.7509,-6.7986,-6.9243,-6.9333,-6.7986,-6.8661,-6.8436,-6.7156,-6.9194,-6.9812,-6.9217,-7.0699,-7.1312,-3.2051,-3.2038,-3.1917,-3.1717,-3.1289,-3.0902,-3.0808,-3.0715,-3.0635,-3.0648,-3.1036,-3.1276,-3.0982,-3.133,-3.1757,-3.2051,-3.2358,-3.2679,-3.308,-3.3053,-3.2866,-3.2585,-3.2265,-3.2011,0.0,0.0,0.0,0.0,0.0,0.0,0.0,-3.3975,-3.4189,-3.4189,-3.4843,-3.5191,-3.5191,-3.5191,-3.5151,-3.5057,-3.4563,-3.4269,-3.4162,-3.3654,0.0,0.0,0.0,0.0,0.0,-3.312,-3.2772,-3.2238,-3.2238,-3.2131,-3.1971,-3.2064,-3.2238,-3.2465,-3.2839,-3.2973,-3.3026,-3.332,-3.6327,-4.019,-4.0947,-4.3642,-4.6542,-4.8459,-4.8867,-4.8867,-4.8867,-4.8867,-4.8867,-4.8867,-4.8535,-4.8164,-4.8027,-4.8008,-4.7871,-4.7461,-4.7879,-4.9486,-5.3056,-5.3754,-5.5228,-5.8993,-5.9483,-5.9483,-5.9483,-5.9483,-5.9859,-6.0814,-6.0713,-6.0738,-6.114,-6.3204,-6.4327,-6.4131,-6.6891,-6.8347,-6.8016,-6.9273,-6.9572,-6.8704,-6.8906,-6.8652,-6.7724,-6.942,-7.0328,-7.0666,-7.1098,-7.1312,-3.2078,-3.1944,-3.173,-3.1543,-3.1062,-3.0635,-3.0635,-3.0408,-3.0247,-3.0421,-3.0688,-3.0849,-3.0662,-3.1102,-3.1597,-3.1891,-3.2278,-3.2679,-3.3026,-3.3026,-3.2959,-3.2879,0.0,0.0,0.0,0.0,0.0,0.0,0.0,0.0,0.0,-3.4162,-3.4376,-3.4482,-3.495,-3.5191,-3.5191,-3.5191,-3.5191,-3.5191,-3.471,-3.4429,-3.4295,-3.3814,0.0,0.0,0.0,0.0,0.0,-3.2906,-3.2599,-3.2251,-3.2144,-3.2104,-3.2118,-3.2225,-3.2452,-3.2746,-3.304,-3.3146,-3.3173,-3.336,-3.6903,-4.1524,-4.3452,-4.5191,-4.6728,-4.8459,-4.8867,-4.8867,-4.8867,-4.8867,-4.8867,-4.8867,-4.8652,-4.8418,-4.8242,-4.834,-4.832,-4.7891,-4.9049,-5.0896,-5.3322,-5.4691,-5.6375,-5.9173,-5.9483,-5.9483,-5.9483,-5.9684,-6.0085,-6.0788,-6.0738,-6.0902,-6.1581,-6.3861,-6.5356,-6.5222,-6.8108,-6.9542,-6.9093,-6.9871,-7.0021,-6.9393,-6.9395,-6.9147,-6.8467,-6.9646,-7.0552,-7.1312,-7.1312,-7.1312,0.0,-3.165,-3.1249,-3.1236,-3.0795,-3.0354,-3.0354,-3.0127,0.0,-2.994,-3.0167,-3.0354,-3.0354,-3.0835,-3.133,-3.165,-3.2171,-3.2559,-3.2572,-3.2772,-3.3026,-3.332,-3.2599,0.0,0.0,0.0,0.0,0.0,0.0,0.0,0.0,-3.4189,-3.4482,-3.479,-3.5057,-3.5191,-3.5191,-3.5191,-3.5191,-3.5191,-3.4897,-3.4616,-3.4349,-3.4055,0.0,0.0,0.0,0.0,0.0,-3.2772,-3.2532,-3.2492,-3.2238,-3.2131,-3.2171,-3.2465,-3.2759,-3.3053,-3.332,-3.3414,-3.3414,-3.38,-3.7282,-4.2099,-4.7307,-4.8867,-4.8867,-4.8867,-4.8867,-4.8867,-4.8867,-4.8867,-4.8867,-4.8867,-4.8867,-4.875,-4.834,-4.8574,-4.873,-4.8281,-5.1295,-5.4038,-5.4163,-5.7043,-5.9328,-5.9508,-5.9483,-5.9508,-5.9558,-5.996,-6.0286,-6.0311,-6.0871,-6.1451,-6.2185,-6.4581,-6.634,-6.7056,-6.9529,-7.0889,-7.0889,-7.0889,-7.0649,-7.0051,-6.9915,-6.9587,-6.9077,-6.9736,-7.0457,-7.1312,-7.1312,-7.1312,-3.1356,0.0,-3.1517,-3.1276,-3.0795,-3.0354,0.0,-3.0127,-2.998,-3.0207,-3.0314,-3.0354,-3.0354,-3.0835,-3.1396,-3.1917,-3.2305,-3.2625,-3.2839,-3.2545,-3.2412,-3.2719,-3.2171,0.0,0.0,0.0,0.0,0.0,0.0,0.0,0.0,-3.4496,-3.479,-3.5084,-3.5164,-3.5191,-3.5191,-3.5191,-3.5191,-3.5191,-3.4897,-3.4723,-3.4643,-3.4349,0.0,0.0,0.0,0.0,-3.3053,-3.2692,-3.2412,-3.2225,-3.2385,-3.2438,-3.2478,-3.2772,-3.3066,-3.332,-3.3387,-3.3414,-3.3987,-3.8066,-4.019,-4.2116,-4.7307,-4.8867,-4.8867,-4.8867,-4.8867,-4.8867,-4.8867,-4.8867,-4.8867,-4.8867,-4.8867,-4.8828,-4.873,-4.8789,-4.873,-4.8281,-5.0101,-5.2068,-5.3571,-5.5463,-5.751,-5.9328,-5.9483,-5.9659,-6.006,-5.9859,-5.9859,-6.0286,-6.0992,-6.1859,-6.2959,-6.4984,-6.634,-6.7056,-6.9529,-7.0889,-7.0889,-7.0889,-7.0829,-7.0679,-6.9231,-6.8684,-6.911,-6.8837,-6.9551,-7.1312,-7.1312,-7.1312,-3.0942,-3.1142,-3.1223,-3.1062,-3.0595,-3.0194,-3.0327,-3.002,-2.9833,-3.0274,-3.0247,-3.0194,-3.0341,-3.0942,-3.1583,-3.2024,-3.2465,-3.2799,-3.2959,-3.2706,-3.2612,-3.2906,-3.2545,0.0,0.0,0.0,0.0,0.0,0.0,0.0,0.0,-3.4603,-3.4897,-3.5191,-3.5191,-3.5191,-3.5191,-3.5191,-3.5191,-3.5191,-3.5044,-3.4817,-3.4549,-3.4389,-3.4162,0.0,0.0,0.0,-3.3347,-3.2639,-3.2412,-3.2492,-3.2385,-3.2505,-3.2759,-3.2919,-3.316,-3.3414,-3.3414,-3.3414,-3.4186,-3.9415,-4.1156,-4.2116,-4.7307,-4.8867,-4.8867,-4.8867,-4.8867,-4.8867,-4.8867,-4.8867,-4.8867,-4.8867,-4.8867,-4.8867,-4.8867,-4.8867,-4.9078,-4.9673,-5.0455,-5.1874,-5.4584,-5.5741,-5.7011,-5.9173,-5.9483,-5.9684,-6.0236,-6.006,-6.017,-6.1095,-6.1562,-6.2453,-6.3935,-6.5274,-6.6578,-6.7874,-6.9803,-7.0889,-7.0889,-7.0889,-7.062,-7.0051,-6.9362,-6.8969,-6.9138,-6.9091,-6.9845,-7.1312,-7.1312,-7.1312,-3.0715,-3.0795,-3.0808,-3.0849,-3.0448,-3.0114,-3.0368,-3.0047,-2.982,-3.0327,-3.0221,-3.014,-3.0434,-3.1142,-3.1784,-3.2118,-3.2585,-3.2919,-3.2919,-3.2839,-3.2919,-3.3293,-3.3053,0.0,0.0,0.0,0.0,0.0,0.0,0.0,0.0,-3.4603,-3.4897,-3.5191,-3.5191,-3.5191,-3.5191,-3.5191,-3.5177,-3.5137,-3.5177,-3.4883,-3.4322,-3.4322,-3.4135,0.0,0.0,0.0,-3.3668,-3.2652,-3.2532,-3.2933,-3.2478,-3.2585,-3.2986,-3.3026,-3.32,-3.3414,-3.3414,-3.3414,-3.4186,-3.9415,-4.1139,-4.2099,-4.7307,-4.8867,-4.8867,-4.8867,-4.8867,-4.8867,-4.8867,-4.8867,-4.8867,-4.8867,-4.8867,-4.8867,-4.8867,-4.9157,-4.9671,-5.112,-5.1715,-5.2944,-5.6163,-5.6685,-5.7376,-5.9173,-5.9483,-5.9734,-6.0362,-6.0524,-6.0942,-6.2115,-6.2391,-6.3292,-6.481,-6.5795,-6.7201,-6.8847,-7.0111,-7.0799,-7.0889,-7.0889,-7.026,-6.8884,-6.9609,-6.9683,-6.8978,-6.974,-7.0552,-7.1312,-7.1312,-7.1312,-3.0702,-3.0795,-3.0849,-3.1102,-3.0902,-3.0675,-3.0715,-3.0662,-3.0621,-3.0702,-3.0688,-3.0755,-3.1036,-3.141,-3.1851,-3.2385,-3.2559,-3.2612,0.0,0.0,-3.2158,-3.2946,0.0,0.0,0.0,0.0,0.0,0.0,0.0,0.0,0.0,-3.4603,-3.4897,-3.5191,-3.5191,-3.5191,-3.5191,-3.5191,-3.507,-3.483,-3.5084,-3.4883,-3.4322,-3.4322,-3.4015,0.0,0.0,-3.3026,-3.3106,-3.2919,-3.2893,-3.2986,-3.3146,-3.312,-3.3013,-3.3253,-3.3374,-3.3414,-3.3414,-3.3414,-3.4186,-3.9415,-4.1156,-4.2116,-4.7307,-4.8867,-4.8867,-4.8867,-4.8867,-4.8867,-4.8867,-4.8867,-4.8867,-4.8867,-4.8867,-4.8867,-4.8867,-5.0136,-5.112,-5.1015,-5.3771,-5.5976,-5.6269,-5.7765,-5.9173,-5.9483,-5.9483,-5.9885,-6.0914,-6.112,-6.152,-6.2185,-6.3693,-6.4633,-6.4512,-6.6373,-6.8094,-6.8974,-6.9662,-7.032,-7.0889,-7.0889,-7.0021,-6.8166,-6.9365,-6.9433,-6.8307,-6.9612,-7.0552,-7.1312,-7.1312,-7.1312,-3.0662,-3.0795,-3.0862,-3.1156,-3.1009,-3.0835,-3.0996,-3.0902,-3.0835,-3.0996,-3.1156,-3.1263,-3.1236,-3.173,-3.2238,-3.2505,-3.2679,-3.2732,-3.2572,-3.2452,-3.2532,0.0,0.0,0.0,0.0,0.0,0.0,0.0,0.0,0.0,0.0,0.0,-3.4656,-3.495,-3.4803,-3.4803,-3.4963,-3.4803,-3.4736,-3.4763,-3.4736,-3.4496,-3.4082,-3.3908,-3.3681,-3.34,0.0,-3.3066,-3.32,-3.304,-3.3066,-3.3213,-3.3187,-3.3187,-3.3426,-3.4927,-3.555,-3.5734,-3.7085,-3.7674,-3.8246,-4.1907,-4.3262,-4.3849,-4.7698,-4.8867,-4.8867,-4.8867,-4.8867,-4.8867,-4.8867,-4.8867,-4.8867,-4.8867,-4.9931,-5.0721,-5.0297,-5.1997,-5.3516,-5.3985,-5.4653,-5.5672,-5.7631,-5.7849,-5.8187,-5.9328,-5.9759,-6.0136,-6.0638,-6.1373,-6.2259,-6.3199,-6.4352,-6.526,-6.5698,-6.7165,-6.8405,-6.9482,-7.0111,-7.059,-7.0889,-7.1728,-7.1258,-6.9123,-7.091,-7.0942,-6.9278,-7.0328,-7.1002,-7.1312,-7.1312,-7.1312,-3.0568,-3.0584,-3.073,-3.1183,-3.1116,-3.1049,-3.1276,-3.1156,-3.1062,-3.1276,-3.1517,-3.1623,-3.1463,-3.2038,-3.2572,-3.2639,-3.2719,-3.2719,-3.2572,0.0,0.0,0.0,0.0,0.0,0.0,0.0,0.0,0.0,0.0,0.0,0.0,0.0,-3.4349,-3.4643,-3.4442,-3.4429,-3.4656,-3.4362,-3.4336,-3.4563,-3.4389,-3.4122,-3.3761,-3.3521,-3.3334,-3.32,-3.2973,-3.3,-3.32,-3.304,-3.3146,-3.3387,-3.316,-3.3598,-3.4571,-3.6524,-3.7689,-3.8426,-4.0463,-4.1073,-4.1507,-4.4104,-4.4912,-4.5549,-4.8088,-4.8789,-4.873,-4.8828,-4.8789,-4.873,-4.8828,-4.8867,-4.8867,-4.8867,-5.0621,-5.224,-5.158,-5.3647,-5.5878,-5.6701,-5.5906,-5.602,-5.8912,-5.8031,-5.7534,-5.9173,-5.9859,-6.0267,-6.0708,-6.1692,-6.292,-6.4332,-6.5089,-6.5855,-6.6697,-6.7358,-6.8196,-6.9213,-7.0171,-7.0679,-7.0679,-7.2057,-7.1835,-6.9642,-7.1929,-7.2082,-6.9943,-7.0842,-7.1312,-7.1312,-7.1312,-7.1312,-3.0172,-2.9951,-3.0155,-3.1437,-3.1638,-3.161,-3.1637,-3.1623,-3.161,-3.1637,-3.165,-3.1744,-3.1998,-3.2318,-3.2639,-3.2906,-3.2505,-3.2251,0.0,0.0,0.0,0.0,0.0,0.0,0.0,0.0,0.0,0.0,0.0,0.0,0.0,0.0,0.0,-3.4349,-3.4336,-3.4336,-3.4349,-3.4068,-3.3935,-3.3948,-3.4202,-3.4015,-3.344,-3.3427,-3.312,-3.2612,-3.2585,-3.2585,-3.2625,-3.2879,-3.3146,-3.3414,-3.3387,-3.4941,-3.7085,-3.7282,-3.8831,-4.0897,-4.0569,-4.0859,-4.1474,-4.3803,-4.4696,-4.5549,-4.8088,-4.8574,-4.834,-4.875,-4.8574,-4.834,-4.875,-4.8867,-4.8867,-4.8867,-5.0621,-5.224,-5.158,-5.4736,-5.7314,-5.6956,-5.8106,-5.9223,-5.9508,-5.9328,-5.9328,-5.9508,-5.9533,-6.0125,-6.1842,-6.2741,-6.3833,-6.5736,-6.6491,-6.6667,-6.6131,-6.67,-6.7089,-6.7208,-6.9004,-7.0051,-7.0051,-7.0924,-7.0323,-6.8281,-7.0961,-7.1358,-6.9283,-7.0608,-7.1312,-7.1312,-7.1312,-7.1312,-3.0354,-3.0082,-3.0136,-3.0849,-3.1597,-3.2104,-3.1744,-3.1664,-3.1664,-3.1664,-3.181,-3.2024,-3.2318,-3.2318,-3.2305,-3.2412,-3.2251,0.0,0.0,0.0,0.0,0.0,0.0,0.0,0.0,0.0,0.0,0.0,0.0,0.0,0.0,0.0,0.0,-3.4042,-3.3855,-3.3855,-3.4055,-3.3748,-3.3587,-3.3587,-3.3708,-3.3627,-3.34,-3.3227,-3.2919,-3.2559,-3.2732,-3.2706,-3.2572,-3.2866,-3.304,-3.3146,-3.3146,-3.3837,-3.5352,-3.8441,-4.0222,-4.1157,-4.4257,-4.5445,-4.5742,-4.6536,-4.7151,-4.7698,-4.8663,-4.875,-4.8652,-4.8808,-4.873,-4.8652,-4.8808,-4.8867,-4.8867,-4.8867,-5.1847,-5.4259,-5.3473,-5.6721,-5.9539,-5.8679,-5.8986,-5.9483,-5.9483,-5.9483,-5.9483,-5.9483,-5.9483,-6.01,-6.1468,-6.2703,-6.3858,-6.524,-6.645,-6.6879,-6.664,-6.6849,-6.7178,-6.7567,-6.8315,-6.9356,-7.071,-7.1526,-7.1617,-7.0685,-7.2217,-7.2223,-7.0482,-7.1007,-7.1312,-7.1312,-7.1312,-7.1312,-3.0635,-3.0369,-3.0203,-3.1303,-3.1947,-3.2171,-3.2082,-3.181,-3.1784,-3.169,-3.1971,-3.2278,-3.2385,-3.2318,-3.2211,0.0,0.0,0.0,0.0,0.0,0.0,0.0,0.0,0.0,0.0,0.0,0.0,0.0,0.0,0.0,0.0,0.0,0.0,0.0,-3.3521,-3.3521,-3.3734,-3.3521,-3.3414,-3.3414,-3.3414,-3.3414,-3.34,-3.3106,-3.2826,-3.2559,-3.2759,-3.2679,-3.2425,-3.2719,-3.2893,-3.2986,-3.308,-3.4207,-3.6312,-3.9659,-4.1761,-4.3403,-4.658,-4.7988,-4.8183,-4.8047,-4.8398,-4.8867,-4.8867,-4.8769,-4.8672,-4.8808,-4.875,-4.8691,-4.8828,-4.8867,-4.8867,-4.8867,-5.2545,-5.561,-5.4431,-5.7949,-6.0839,-5.9709,-5.9483,-5.9483,-5.9483,-5.9483,-5.9433,-5.9282,-5.9667,-6.0547,-6.1646,-6.3002,-6.4279,-6.5548,-6.6435,-6.6909,-6.67,-6.6944,-6.7305,-6.7971,-6.827,-6.9202,-7.0875,-7.1807,-7.2299,-7.2049,-7.2787,-7.2529,-7.1312,-7.1312,-7.1312,-7.1312,-7.1312,-7.1312,-3.1423,-3.0799,-3.0574,-3.2763,-3.2531,-3.1961,-3.2475,-3.2324,-3.2024,-3.173,-3.2131,-3.2452,-3.2158,-3.2345,-3.2438,-3.2158,0.0,0.0,0.0,0.0,0.0,0.0,0.0,0.0,0.0,0.0,0.0,0.0,0.0,0.0,0.0,0.0,0.0,0.0,-3.3414,-3.3414,-3.3414,-3.3414,-3.3414,-3.3414,-3.3414,-3.3414,-3.34,-3.3106,-3.2826,-3.2545,-3.2545,-3.2385,-3.2131,-3.2425,-3.2719,-3.3013,-3.3293,-3.6495,-4.109,-4.0726,-4.3812,-4.8066,-4.7226,-4.748,-4.8125,-4.7715,-4.8164,-4.8867,-4.8867,-4.8555,-4.8301,-4.873,-4.8535,-4.832,-4.873,-4.8848,-4.8867,-4.8848,-5.2545,-5.561,-5.4431,-5.7949,-6.0839,-5.9709,-5.9483,-5.9483,-5.9483,-5.9483,-5.9332,-5.8805,-6.0263,-6.1673,-6.2371,-6.3989,-6.5647,-6.6906,-6.6999,-6.6729,-6.6071,-6.6705,-6.7466,-6.8148,-6.8938,-6.9586,-7.0248,-7.1574,-7.2083,-7.1292,-7.2016,-7.2022,-7.1312,-7.1312,-7.1312,-7.1312,-7.1312,-7.1312,-3.0517,-3.1288,-3.2265,-3.2287,-3.2489,-3.2727,-3.2144,-3.2091,-3.2078,-3.1984,-3.1944,-3.1957,-3.2078,-3.2011,0.0,0.0,0.0,0.0,0.0,0.0,0.0,0.0,0.0,0.0,0.0,0.0,0.0,0.0,0.0,0.0,0.0,0.0,0.0,0.0,-3.3414,-3.3414,-3.3414,-3.3414,-3.3414,-3.3414,-3.3414,-3.3414,-3.3414,-3.332,-3.3013,-3.2559,-3.2759,-3.2572,-3.2131,-3.2425,-3.2719,-3.2973,-3.2853,-3.5023,-3.8233,-3.959,-4.2116,-4.4851,-4.6458,-4.7305,-4.7754,-4.7617,-4.8164,-4.8867,-4.8867,-4.8769,-4.8633,-4.8457,-4.8535,-4.8613,-4.8437,-4.8633,-4.94,-5.0964,-5.3593,-5.5933,-5.6457,-5.9114,-6.0839,-5.9709,-5.9483,-5.9483,-5.9483,-5.9483,-5.9332,-5.8805,-5.9927,-6.146,-6.3508,-6.5367,-6.653,-6.6999,-6.7418,-6.7418,-6.6759,-6.7836,-6.8674,-6.8891,-7.061,-7.1928,-7.2541,-7.1938,-7.2018,-7.2848,-7.2042,-7.1548,-7.1312,-7.1312,-7.1312,-7.1312,-7.1312,-7.1416,-3.0752,-3.1726,-3.266,-3.2462,-3.2624,-3.2177,-3.0177,-3.0998,-3.2064,-3.1957,-3.1877,-3.1891,-3.2064,-3.2051,0.0,0.0,0.0,0.0,0.0,0.0,0.0,0.0,0.0,0.0,0.0,0.0,0.0,0.0,0.0,0.0,0.0,0.0,0.0,0.0,-3.3414,-3.3414,-3.3414,-3.3414,-3.3414,-3.3414,-3.3414,-3.3347,-3.324,-3.312,-3.2879,-3.2545,-3.2492,-3.2385,-3.2291,-3.2478,-3.2719,-3.2959,-3.2786,-3.4339,-3.6922,-3.9094,-4.12,-4.3597,-4.6006,-4.7207,-4.7617,-4.7773,-4.8183,-4.8594,-4.8594,-4.8476,-4.832,-4.8223,-4.8398,-4.8574,-4.8496,-4.8672,-4.9564,-5.1847,-5.3973,-5.5857,-5.7432,-5.9291,-6.0563,-5.9659,-5.9483,-5.9483,-5.9483,-5.9332,-5.9287,-5.9459,-6.0917,-6.2859,-6.5065,-6.6322,-6.6999,-6.6999,-6.7358,-6.7537,-6.7388,-6.9006,-7.0212,-7.0463,-7.2548,-7.3973,-7.4406,-7.3007,-7.2625,-7.3477,-7.2056,-7.1312,-7.1312,-7.1312,-7.1312,-7.1312,-7.1382,-7.1456,-3.1477,-3.179,-3.2142,-3.3023,-3.2485,-3.0903,-2.7756,-2.9729,-3.2243,-3.177,-3.1891,-3.2064,-3.2104,-3.2318,0.0,0.0,0.0,0.0,0.0,0.0,0.0,0.0,0.0,0.0,0.0,0.0,0.0,0.0,0.0,0.0,0.0,0.0,0.0,-3.3414,-3.3414,-3.3414,-3.3414,-3.3414,-3.3414,0.0,-3.3387,-3.324,-3.2973,-3.2706,-3.2559,-3.2478,-3.1917,-3.1984,-3.2505,-3.2532,-3.2719,-3.2973,-3.2946,-3.4465,-3.7055,-3.8804,-4.0943,-4.3542,-4.5986,-4.7207,-4.7656,-4.8066,-4.8242,-4.8262,-4.8223,-4.793,-4.7715,-4.8047,-4.8183,-4.8301,-4.8691,-4.8973,-4.9668,-5.2144,-5.3887,-5.5473,-5.7456,-5.9158,-6.0161,-5.9608,-5.9483,-5.9483,-5.9433,-5.9184,-5.936,-6.0842,-6.2911,-6.4949,-6.6723,-6.6999,-6.6999,-6.6999,-6.7029,-6.7421,-6.8054,-7.0214,-7.1804,-7.2426,-7.4605,-7.5777,-7.5709,-7.4255,-7.3477,-7.3477,-7.2056,-7.1312,-7.1312,-7.1312,-7.1312,-7.1457,-7.1523,-7.1654,-3.3037,-3.2982,-3.2881,-3.2256,-3.1957,-3.1561,-3.078,-3.1605,-3.2345,-3.2064,-3.1877,-3.1837,-3.2064,0.0,0.0,0.0,0.0,0.0,0.0,0.0,0.0,0.0,0.0,0.0,0.0,0.0,0.0,0.0,0.0,0.0,0.0,0.0,0.0,-3.3414,-3.3414,-3.3414,-3.3414,-3.3414,-3.3414,0.0,-3.3187,-3.304,-3.2973,-3.2919,-3.2639,-3.2171,-3.1824,-3.1864,-3.2211,-3.2452,-3.2719,-3.2959,-3.2732,-3.4157,-3.6516,-3.8449,-4.0566,-4.316,-4.5891,-4.7207,-4.7656,-4.8066,-4.8437,-4.8652,-4.832,-4.8144,-4.8027,-4.7773,-4.7949,-4.8223,-4.832,-4.9553,-5.1465,-5.3888,-5.4689,-5.5892,-5.9022,-6.0072,-6.0161,-5.9608,-5.9483,-5.9357,-5.8956,-5.9917,-6.1608,-6.3819,-6.425,-6.4949,-6.6723,-6.6999,-6.6999,-6.6999,-6.7448,-6.806,-6.8807,-7.1497,-7.3044,-7.3175,-7.5405,-7.6352,-7.5743,-7.4255,-7.3477,-7.3477,-7.2056,-7.1312,-7.1312,-7.1312,-7.1688,-7.2498,-7.1871,-7.21,-3.3163,-3.2955,-3.2445,-3.1784,-3.1757,-3.1699,-3.1859,-3.2418,-3.2539,-3.2318,-3.2198,0.0,0.0,0.0,0.0,0.0,0.0,0.0,0.0,0.0,0.0,0.0,0.0,0.0,0.0,0.0,0.0,0.0,0.0,0.0,0.0,-3.3414,-3.3414,-3.3414,-3.3414,-3.3414,-3.3414,-3.3414,-3.3414,-3.3414,-3.312,-3.2826,-3.2559,-3.2559,-3.2318,-3.1891,-3.173,-3.1837,-3.2118,-3.2265,-3.2505,-3.2746,-3.2452,-3.3078,-3.4708,-3.7903,-4.0004,-4.1681,-4.5782,-4.7519,-4.791,-4.8144,-4.8359,-4.8476,-4.8047,-4.7754,-4.7598,-4.7578,-4.7734,-4.791,-4.791,-4.979,-5.19,-5.3853,-5.5099,-5.6654,-5.9598,-6.0111,-5.9834,-5.9558,-5.9483,-5.9332,-5.8805,-6.0509,-6.245,-6.4393,-6.5182,-6.5919,-6.6846,-6.6999,-6.6999,-6.6999,-6.7029,-6.7578,-6.9,-7.1168,-7.2811,-7.3328,-7.5571,-7.6555,-7.5743,-7.4255,-7.3477,-7.3477,-7.2056,-7.1312,-7.1312,-7.1742,-7.2107,-7.2243,-7.236,-7.2834,-3.245,-3.2354,-3.1686,-3.1717,-3.1664,-3.1757,-3.231,-3.2611,-3.2719,-3.2834,-3.2612,0.0,0.0,0.0,0.0,0.0,0.0,0.0,0.0,0.0,0.0,0.0,0.0,0.0,0.0,0.0,0.0,0.0,0.0,0.0,-3.3414,-3.3414,-3.3414,-3.3414,-3.3414,-3.3414,-3.3414,-3.3414,-3.3387,-3.3334,-3.2986,-3.2545,-3.2024,-3.2024,-3.1891,-3.1664,-3.1664,-3.181,-3.2024,-3.2078,-3.2251,-3.2452,-3.2198,-3.2104,-3.2627,-3.7285,-3.9175,-4.0226,-4.5706,-4.7812,-4.8105,-4.8183,-4.8203,-4.8105,-4.7617,-4.7266,-4.7109,-4.748,-4.7637,-4.7856,-4.8195,-5.0121,-5.2366,-5.3885,-5.5789,-5.7871,-5.969,-5.9809,-5.9483,-5.9483,-5.964,-5.9617,-5.936,-6.1158,-6.3118,-6.4496,-6.6044,-6.6999,-6.6999,-6.6999,-6.6999,-6.6999,-6.649,-6.6973,-6.8945,-7.0696,-7.2143,-7.3373,-7.5634,-7.6487,-7.554,-7.4221,-7.3375,-7.3105,-7.1921,-7.1244,-7.1109,-7.2072,-7.229,-7.1688,-7.2727,-7.3327,-3.1525,-3.1756,-3.1625,-3.1623,-3.1664,-3.181,-3.2372,-3.27,-3.2861,0.0,0.0,0.0,0.0,0.0,0.0,0.0,0.0,0.0,0.0,0.0,0.0,0.0,0.0,0.0,0.0,0.0,0.0,0.0,0.0,0.0,-3.3414,-3.3414,-3.3414,-3.3414,-3.3414,-3.3414,-3.3414,-3.3414,-3.328,-3.3026,-3.2478,-3.2051,-3.173,-3.173,-3.1704,-3.1664,-3.1664,-3.169,-3.1744,-3.1998,-3.2131,-3.2158,-3.2118,-3.2104,-3.2627,-3.7285,-3.901,-3.9889,-4.5611,-4.7617,-4.7715,-4.8086,-4.8203,-4.8047,-4.7266,-4.7246,-4.75,-4.7558,-4.7851,-4.865,-5.0545,-5.2345,-5.4333,-5.5975,-5.7812,-5.9273,-5.9608,-5.9533,-5.9483,-5.9483,-6.0015,-6.0724,-6.1759,-6.3118,-6.4653,-6.6322,-6.6846,-6.6999,-6.6999,-6.6999,-6.6999,-6.6999,-6.6909,-6.7509,-6.8984,-7.1119,-7.2697,-7.3474,-7.5648,-7.6251,-7.483,-7.395,-7.2902,-7.1616,-7.1413,-7.1007,-7.0331,-7.1316,-7.1812,-7.1929,-7.2218,-7.2853,-3.1183,-3.137,-3.1719,-3.1637,-3.1664,-3.1824,-3.2412,-3.2754,-3.2928,-3.3293,0.0,0.0,0.0,0.0,0.0,0.0,0.0,0.0,0.0,0.0,0.0,0.0,0.0,0.0,0.0,0.0,0.0,0.0,0.0,-3.3414,-3.3414,-3.3414,-3.3414,-3.3414,-3.3414,-3.3414,-3.3414,-3.3414,-3.3187,-3.2732,-3.2305,-3.1944,-3.1664,-3.1664,-3.1664,-3.1664,-3.1664,-3.1664,-3.1677,-3.181,-3.1864,-3.1864,-3.1864,-3.1864,-3.2219,-3.5756,-3.8007,-3.9874,-4.3923,-4.6247,-4.7578,-4.7519,-4.7656,-4.7734,-4.7109,-4.707,-4.7207,-4.7207,-4.7344,-4.7958,-4.9908,-5.2087,-5.4365,-5.602,-5.802,-5.9483,-5.9483,-5.9734,-5.9859,-5.9558,-6.0036,-6.1033,-6.2206,-6.348,-6.4949,-6.6723,-6.6999,-6.6999,-6.6999,-6.6999,-6.7119,-6.7508,-6.7304,-6.7734,-6.953,-7.1108,-7.2578,-7.4026,-7.5439,-7.5912,-7.5236,-7.3713,-7.2892,-7.2759,-7.1838,-7.126,-7.101,-7.2429,-7.2952,-7.2794,-7.3442,-7.3715,-3.0037,-3.0799,-3.1894,-3.1757,-3.1784,-3.1891,-3.2332,-3.27,-3.2902,0.0,0.0,0.0,0.0,0.0,0.0,0.0,0.0,0.0,0.0,0.0,0.0,0.0,0.0,0.0,0.0,0.0,0.0,0.0,0.0,-3.3307,-3.3307,-3.3227,-3.3187,-3.3187,-3.3267,-3.3307,-3.3307,-3.3227,-3.2973,-3.2545,-3.2171,-3.1877,-3.1664,-3.1664,-3.1664,-3.1664,-3.1664,-3.1664,-3.1664,-3.1664,-3.1664,-3.1664,-3.1664,-3.1664,-3.2043,-3.5152,-3.7687,-3.9958,-4.3307,-4.5811,-4.7539,-4.7324,-4.7402,-4.7519,-4.7187,-4.7012,-4.6953,-4.707,-4.7425,-4.8345,-5.0081,-5.2557,-5.4875,-5.663,-5.8344,-5.9483,-5.9483,-5.9709,-5.9889,-5.9769,-6.0415,-6.1501,-6.264,-6.4193,-6.5748,-6.7085,-6.7238,-6.7238,-6.7238,-6.7238,-6.7358,-6.7687,-6.7867,-6.8527,-6.9976,-7.1304,-7.2844,-7.4735,-7.5405,-7.554,-7.5168,-7.3787,-7.3015,-7.2797,-7.2072,-7.1863,-7.2056,-7.3593,-7.394,-7.3152,-7.4153,-7.4147,-2.784,-2.9507,-3.2178,-3.2024,-3.2078,-3.2091,-3.2118,-3.2345,0.0,0.0,0.0,0.0,0.0,0.0,0.0,0.0,0.0,0.0,0.0,0.0,0.0,0.0,0.0,0.0,0.0,0.0,0.0,0.0,0.0,-3.3,-3.3,-3.2746,-3.2585,-3.2585,-3.2853,-3.3,-3.3,-3.2732,-3.2572,-3.2532,-3.1971,-3.1677,-3.1664,-3.1664,-3.1664,-3.1664,-3.1664,-3.1664,-3.1664,-3.1664,-3.1664,-3.1664,-3.1664,-3.1664,-3.2219,-3.6975,-3.8811,-3.9839,-4.5393,-4.7558,-4.7637,-4.8027,-4.7891,-4.7578,-4.7558,-4.7246,-4.7012,-4.7441,-4.9086,-5.1202,-5.291,-5.499,-5.7204,-5.8961,-5.9483,-5.9483,-5.9483,-5.9131,-5.906,-6.0326,-6.1501,-6.2776,-6.4037,-6.6168,-6.7802,-6.7926,-6.7926,-6.7926,-6.7926,-6.7926,-6.7687,-6.7119,-6.8845,-7.0089,-7.0244,-7.2248,-7.414,-7.5546,-7.5676,-7.5067,-7.3646,-7.4425,-7.3233,-6.9748,-7.1827,-7.3028,-7.3142,-7.4081,-7.3807,-7.2424,-7.3313,-7.334,-2.6874,-2.8463,-3.0022,-3.168,-3.2104,-3.2158,-3.2345,-3.2465,-3.2625,0.0,0.0,0.0,0.0,0.0,0.0,0.0,0.0,0.0,0.0,0.0,0.0,0.0,0.0,0.0,0.0,0.0,0.0,0.0,0.0,0.0,-3.2706,-3.2599,-3.2545,-3.2545,-3.2652,-3.2706,-3.2706,-3.2412,-3.2265,-3.2251,-3.1864,-3.1664,-3.1664,-3.1664,-3.1664,-3.1664,-3.1664,-3.1664,-3.1664,-3.1664,-3.1664,-3.1664,-3.1664,-3.2583,-3.4233,-3.6066,-3.8611,-4.1616,-4.3995,-4.5858,-4.7226,-4.7656,-4.7324,-4.6816,-4.707,-4.668,-4.654,-4.8311,-4.9431,-5.0911,-5.4367,-5.5832,-5.6957,-5.9043,-5.9483,-5.9408,-5.9081,-5.8855,-5.9237,-6.0865,-6.1831,-6.2966,-6.4655,-6.6588,-6.8136,-6.8555,-6.8645,-6.8645,-6.8645,-6.8256,-6.8388,-6.9579,-6.9974,-7.085,-7.2176,-7.394,-7.5396,-7.6454,-7.598,-7.5485,-7.5091,-7.4136,-7.3133,-7.1979,-7.2867,-7.3362,-7.3431,-7.4244,-7.4392,-7.3982,-7.4322,-7.378,-2.4177,-2.5946,-2.7479,-3.0223,-3.0792,-3.1166,-3.2151,-3.2478,-3.2599,0.0,0.0,0.0,0.0,0.0,0.0,0.0,0.0,0.0,0.0,0.0,0.0,0.0,0.0,0.0,0.0,0.0,0.0,0.0,0.0,0.0,-3.2398,-3.2305,-3.2291,-3.2398,-3.2398,-3.2452,-3.2545,-3.2251,-3.2104,-3.2104,-3.181,-3.1664,-3.1664,-3.1664,-3.1664,-3.1664,-3.1664,-3.1664,-3.1664,-3.1664,-3.2219,-3.296,-3.296,-3.442,-3.6606,-3.7512,-3.9886,-4.2891,-4.4175,-4.5839,-4.7226,-4.7656,-4.7207,-4.6601,-4.7012,-4.6465,-4.6279,-4.9017,-5.0231,-5.1594,-5.5205,-5.6693,-5.7692,-5.9173,-5.9357,-5.9285,-5.949,-5.9411,-5.9779,-6.1395,-6.2645,-6.3989,-6.5909,-6.753,-6.8794,-6.9273,-6.9333,-6.9333,-6.9333,-6.9175,-6.9519,-7.0756,-7.1314,-7.2201,-7.3398,-7.5069,-7.6318,-7.686,-7.6496,-7.596,-7.5327,-7.4321,-7.3535,-7.3014,-7.366,-7.4079,-7.4369,-7.4877,-7.517,-7.5322,-7.5028,-7.4037,0.0,0.0,0.0,-2.7801,-2.8332,-2.8934,-3.15,0.0,0.0,0.0,0.0,0.0,0.0,0.0,0.0,0.0,0.0,0.0,0.0,0.0,0.0,0.0,0.0,0.0,0.0,0.0,0.0,0.0,0.0,-3.2091,-3.2091,-3.1824,-3.1797,-3.2078,-3.2091,-3.2225,-3.2519,-3.2238,-3.2091,-3.2091,-3.1797,-3.1664,-3.1664,-3.1664,-3.1664,-3.1664,-3.1664,-3.1664,-3.1664,-3.1664,-3.3135,-3.5323,-3.5323,-3.6791,-3.9358,-4.1726,-4.2621,-4.3106,-4.653,-4.7578,-4.7637,-4.8066,-4.7617,-4.6973,-4.7422,-4.666,-4.6319,-4.9349,-5.1629,-5.3415,-5.5687,-5.7824,-5.9483,-5.9483,-5.9081,-5.9136,-6.0927,-6.1067,-6.106,-6.2206,-6.3989,-6.5909,-6.7707,-6.9093,-6.9991,-6.9991,-7.0021,-6.9991,-7.0119,-7.0771,-7.0968,-7.0435,-7.2851,-7.4324,-7.3767,-7.5704,-7.6893,-7.6893,-7.7137,-7.6244,-7.3926,-7.4965,-7.46,-7.2351,-7.3982,-7.5249,-7.6019,-7.6093,-7.6093,-7.6093,-7.5249,-7.4037,-1.9179,0.0,0.0,0.0,0.0,0.0,0.0,0.0,0.0,0.0,0.0,0.0,0.0,0.0,0.0,0.0,0.0,0.0,0.0,0.0,0.0,0.0,0.0,0.0,0.0,0.0,0.0,0.0,-3.2078,-3.1784,-3.1784,-3.1717,-3.1704,-3.1784,-3.1784,-3.1824,-3.1917,-3.1824,-3.1784,-3.1784,-3.1704,-3.1664,-3.1664,-3.1664,-3.1664,-3.1664,-3.1664,-3.1664,-3.1664,-3.1664,-3.3135,-3.5323,-3.5323,-3.7879,-4.1708,-4.2264,-4.3727,-4.5507,-4.7087,-4.7383,-4.7226,-4.7969,-4.7207,-4.6152,-4.6894,-4.6211,-4.6206,-5.086,-5.2536,-5.3743,-5.7667,-5.8993,-5.9408,-5.9031,-5.883,-5.8908,-5.9882,-6.1434,-6.2949,-6.413,-6.481,-6.6054,-6.8363,-6.9423,-7.0141,-7.059,-7.0649,-7.0976,-7.2149,-7.1718,-7.1948,-7.4018,-7.3966,-7.4469,-7.5903,-7.6564,-7.6893,-7.6893,-7.6622,-7.5721,-7.4115,-7.4547,-7.4138,-7.2473,-7.3479,-7.4147,-7.4368,-7.5542,-7.6093,-7.6056,-7.4661,-7.3487,-1.7604,-1.8114,-1.9556,-2.4798,0.0,0.0,-3.1007,-3.1851,0.0,0.0,0.0,0.0,0.0,0.0,0.0,0.0,0.0,0.0,0.0,0.0,0.0,0.0,0.0,0.0,0.0,0.0,0.0,-3.2185,-3.1864,-3.1664,-3.1664,-3.1664,-3.1664,-3.1664,-3.1664,-3.1664,-3.1664,-3.1664,-3.1664,-3.1664,-3.1664,-3.1664,-3.1664,-3.1664,-3.1664,-3.1664,-3.1664,-3.2219,-3.3135,-3.3135,-3.4592,-3.6975,-3.7879,-4.0808,-4.41,-4.41,-4.5021,-4.6426,-4.7285,-4.7285,-4.7012,-4.75,-4.6758,-4.5762,-4.625,-4.5762,-4.6176,-5.1332,-5.4232,-5.6215,-5.8837,-5.9483,-5.9357,-5.8855,-5.8554,-5.8879,-6.0847,-6.2259,-6.3468,-6.4896,-6.6345,-6.7677,-6.9206,-6.9931,-7.05,-7.0859,-7.1503,-7.2082,-7.2736,-7.2904,-7.3595,-7.5069,-7.4537,-7.4502,-7.5817,-7.5946,-7.5967,-7.6061,-7.6227,-7.5705,-7.4292,-7.456,-7.4212,-7.301,-7.345,-7.3854,-7.4184,-7.5139,-7.5616,-7.5579,-7.4625,-7.3597,-1.5683,-1.5744,-1.6998,-2.2198,-2.3465,0.0,-3.0229,-3.1792,0.0,0.0,0.0,0.0,0.0,0.0,0.0,0.0,0.0,0.0,0.0,0.0,0.0,0.0,0.0,0.0,0.0,-3.2118,-3.1998,-3.1744,-3.169,-3.1664,-3.1664,-3.1664,-3.1664,-3.1664,-3.1664,-3.1664,-3.1664,-3.1664,-3.1664,-3.1664,-3.1664,-3.1664,-3.1664,-3.1664,-3.1664,-3.1664,-3.2043,-3.3323,-3.5323,-3.5881,-3.7344,-3.954,-4.1726,-4.4118,-4.6367,-4.6328,-4.6328,-4.6484,-4.7246,-4.7226,-4.6875,-4.6914,-4.6367,-4.5683,-4.5723,-4.5601,-4.6555,-5.1829,-5.6215,-5.9483,-5.9483,-5.9458,-5.9282,-5.8755,-5.8353,-5.9039,-6.2614,-6.3223,-6.3594,-6.5433,-6.8042,-6.9991,-6.9991,-7.05,-7.0889,-7.1148,-7.233,-7.3135,-7.2662,-7.43,-7.5312,-7.4691,-7.45,-7.4525,-7.4746,-7.4611,-7.4628,-7.498,-7.5856,-7.5683,-7.4316,-7.4577,-7.4404,-7.356,-7.356,-7.3964,-7.4771,-7.4882,-7.4845,-7.4771,-7.4771,-7.3927,-1.5934,-1.575,-1.6287,-1.9496,-2.1792,0.0,-2.7121,-2.9896,0.0,0.0,0.0,0.0,0.0,0.0,0.0,0.0,0.0,0.0,0.0,0.0,0.0,0.0,0.0,0.0,0.0,-3.2238,-3.2078,-3.2024,-3.1797,-3.1664,-3.1664,-3.1664,-3.1664,-3.1664,-3.1664,-3.1664,-3.1664,-3.1664,-3.1664,-3.1664,-3.1664,-3.1664,-3.1664,-3.1664,-3.1664,-3.1853,-3.3685,-3.4779,-3.5695,-3.9523,-4.1529,-4.1905,-4.2443,-4.4286,-4.6758,-4.6426,-4.6523,-4.6836,-4.6992,-4.6777,-4.6484,-4.6816,-4.6367,-4.5742,-4.6074,-4.7198,-4.9237,-5.4211,-5.751,-5.9483,-5.9483,-5.9182,-5.873,-5.8177,-5.8738,-5.9932,-6.2261,-6.4229,-6.6314,-6.8654,-6.9526,-6.9991,-6.9991,-7.05,-7.1375,-7.2674,-7.3015,-7.3917,-7.5663,-7.5218,-7.4897,-7.543,-7.4371,-7.4252,-7.5721,-7.4688,-7.4322,-7.5143,-7.5044,-7.4251,-7.2725,-7.3508,-7.356,-7.2753,-7.2716,-7.312,-7.3927,-7.4588,-7.4588,-7.3927,-7.3927,-7.3083,-1.5967,-1.5859,-1.6321,-1.8801,-2.1201,0.0,0.0,0.0,0.0,0.0,0.0,0.0,0.0,0.0,0.0,0.0,0.0,0.0,0.0,0.0,0.0,0.0,0.0,0.0,0.0,-3.1971,-3.1891,-3.1891,-3.1757,-3.1664,-3.1664,-3.1664,-3.1664,-3.1664,-3.1664,-3.1664,-3.1664,-3.1664,-3.1664,-3.1664,-3.1664,-3.1664,-3.1664,-3.1664,-3.2408,-3.3497,-3.4779,-3.6606,-3.9175,-4.192,-4.3664,-4.4754,-4.4754,-4.5636,-4.6914,-4.6699,-4.6621,-4.6641,-4.6855,-4.666,-4.6328,-4.6543,-4.6191,-4.5723,-4.5918,-4.8305,-5.162,-5.5135,-5.7824,-5.9433,-5.9182,-5.8905,-5.8579,-5.8027,-5.9058,-6.082,-6.3059,-6.5205,-6.7567,-7.0032,-7.044,-7.044,-7.044,-7.0709,-7.1503,-7.3046,-7.3526,-7.4435,-7.6046,-7.5566,-7.5265,-7.5846,-7.459,-7.424,-7.565,-7.4717,-7.4272,-7.4939,-7.4685,-7.4079,-7.2969,-7.3397,-7.3303,-7.2532,-7.2496,-7.2814,-7.3535,-7.3979,-7.4034,-7.367,-7.3303,-7.2593,-1.6049,-1.6029,-1.6637,-1.8442,-2.0955,-2.2984,0.0,0.0,0.0,0.0,0.0,0.0,0.0,0.0,0.0,0.0,0.0,0.0,0.0,0.0,0.0,0.0,0.0,0.0,0.0,-3.1623,-3.161,-3.1664,-3.1623,-3.161,-3.1664,-3.1664,-3.1664,-3.1664,-3.1664,-3.1664,-3.1664,-3.1664,-3.1664,-3.1664,-3.1664,-3.1664,-3.1664,-3.2219,-3.3497,-3.5323,-3.6236,-3.901,-4.2766,-4.365,-4.5168,-4.7168,-4.6992,-4.6992,-4.7031,-4.6875,-4.6641,-4.6465,-4.6719,-4.6582,-4.6308,-4.6308,-4.6402,-4.6452,-4.6947,-5.0164,-5.4069,-5.6191,-5.8163,-5.9382,-5.8855,-5.873,-5.8731,-5.8427,-5.9825,-6.1898,-6.4471,-6.6429,-6.8459,-7.0509,-7.0889,-7.0889,-7.0889,-7.0889,-7.1503,-7.3506,-7.4383,-7.5153,-7.5977,-7.6005,-7.5943,-7.5915,-7.4599,-7.4159,-7.5383,-7.4748,-7.444,-7.4688,-7.4471,-7.4106,-7.3523,-7.345,-7.3156,-7.2496,-7.2496,-7.2743,-7.3131,-7.3317,-7.3558,-7.3832,-7.2964,-7.2399,-1.6456,-1.6266,-1.6076,-1.6453,-2.0004,-2.27,-2.0281,0.0,-2.7099,-2.4427,0.0,0.0,0.0,0.0,0.0,0.0,0.0,0.0,0.0,0.0,0.0,0.0,0.0,0.0,0.0,0.0,-3.1383,-3.165,-3.1423,-3.1396,-3.165,-3.1664,-3.1664,-3.1664,-3.1664,-3.1664,-3.1664,-3.1664,-3.1664,-3.1664,-3.1664,-3.1664,-3.1853,-3.3858,-3.4966,-3.5509,-3.9886,-4.2281,-4.3343,-4.5611,-4.7184,-4.7988,-4.7226,-4.7168,-4.7422,-4.666,-4.6582,-4.6816,-4.6484,-4.6348,-4.6308,-4.6308,-4.7601,-4.9532,-5.1529,-5.386,-5.6239,-5.85,-5.9328,-5.9382,-5.8855,-5.873,-5.9009,-6.0076,-6.1737,-6.3861,-6.645,-6.8415,-6.9883,-7.0769,-7.0889,-7.0889,-7.0889,-7.0889,-7.1952,-7.488,-7.5943,-7.6734,-7.7682,-7.7168,-7.6352,-7.5258,-7.3837,-7.3677,-7.5548,-7.5004,-7.4652,-7.4885,-7.4212,-7.3443,-7.2679,-7.2642,-7.2606,-7.2496,-7.2496,-7.2392,-7.2224,-7.3019,-7.3677,-7.4184,-7.3357,-7.2536,-1.6442,-1.6368,-1.6293,-1.6123,-1.8765,-2.0623,-1.8036,0.0,-2.2586,0.0,0.0,0.0,0.0,0.0,0.0,0.0,-3.1223,0.0,0.0,0.0,0.0,0.0,0.0,0.0,0.0,0.0,0.0,0.0,0.0,-3.153,-3.1664,-3.1664,-3.1664,-3.1664,-3.1664,-3.1664,-3.1664,-3.1664,-3.1664,-3.1664,-3.3135,-3.3873,-3.3858,-3.6236,-3.8246,-3.9721,-4.1955,-4.3991,-4.547,-4.683,-4.7519,-4.7793,-4.7168,-4.7187,-4.75,-4.6894,-4.6621,-4.6543,-4.6367,-4.6308,-4.6308,-4.6308,-4.7794,-4.9955,-5.226,-5.4418,-5.6717,-5.8837,-5.9483,-5.9382,-5.8855,-5.9564,-6.0457,-6.1053,-6.3523,-6.6065,-6.7429,-6.9237,-7.059,-7.0859,-7.0889,-7.1148,-7.2078,-7.233,-7.317,-7.5805,-7.6928,-7.7632,-7.8589,-7.7198,-7.6153,-7.5859,-7.4527,-7.446,-7.6498,-7.5899,-7.5322,-7.4895,-7.3707,-7.2863,-7.2496,-7.2496,-7.2496,-7.2496,-7.2871,-7.3141,-7.3363,-7.3571,-7.4254,-7.5236,-7.3717,-7.2724,-1.6476,-1.6476,-1.6463,-1.6205,-1.8069,-1.9207,0.0,0.0,0.0,0.0,0.0,0.0,0.0,0.0,-3.0479,-2.9994,0.0,-3.0795,0.0,0.0,0.0,0.0,0.0,0.0,0.0,0.0,0.0,0.0,0.0,0.0,-3.1664,-3.1664,-3.1664,-3.1664,-3.1664,-3.1664,-3.1664,-3.2408,-3.2772,-3.2772,-3.5152,-3.6236,-3.6421,-3.8794,-4.104,-4.2802,-4.3829,-4.5328,-4.7129,-4.7441,-4.7578,-4.7539,-4.709,-4.7129,-4.7344,-4.6914,-4.6562,-4.6308,-4.6308,-4.6308,-4.6464,-4.6967,-4.8634,-5.0946,-5.3086,-5.5389,-5.7376,-5.9018,-5.9483,-5.9382,-5.8855,-6.0242,-6.1847,-6.2244,-6.5,-6.7834,-6.8701,-6.9913,-7.0889,-7.0889,-7.0889,-7.1375,-7.3015,-7.3447,-7.4429,-7.6921,-7.7977,-7.8651,-7.9027,-7.7556,-7.6493,-7.6473,-7.5245,-7.5046,-7.6851,-7.624,-7.5432,-7.4625,-7.3266,-7.2496,-7.2496,-7.2496,-7.2496,-7.2496,-7.3066,-7.3586,-7.3954,-7.3916,-7.4494,-7.5601,-7.3908,-7.3154,0.0,0.0,0.0,-1.6341,0.0,0.0,0.0,0.0,-1.8785,-1.6637,-1.8221,-2.0166,-2.0166,-2.4276,-2.731,-2.704,-2.8635,0.0,0.0,0.0,0.0,0.0,0.0,0.0,0.0,0.0,0.0,0.0,0.0,0.0,-3.1637,-3.1664,-3.1664,-3.1664,-3.1664,-3.1664,-3.1664,-3.4046,-3.5137,-3.5137,-3.7712,-3.8794,-3.8993,-4.1349,-4.2838,-4.3398,-4.5808,-4.7168,-4.7558,-4.7578,-4.7578,-4.7539,-4.709,-4.6933,-4.6894,-4.6484,-4.6308,-4.6308,-4.6308,-4.6308,-4.6638,-4.8784,-5.0946,-5.3251,-5.5389,-5.7692,-5.9328,-5.9483,-5.9483,-5.9382,-5.8855,-6.0551,-6.2645,-6.4017,-6.6198,-6.8625,-7.0468,-7.0889,-7.0889,-7.0889,-7.0889,-7.1375,-7.2984,-7.3819,-7.5446,-7.8461,-7.9529,-7.9778,-7.9162,-7.8597,-7.7841,-7.6587,-7.5371,-7.5037,-7.6069,-7.5395,-7.4588,-7.378,-7.2973,-7.2496,-7.2496,-7.2496,-7.2496,-7.2496,-7.3066,-7.3276,-7.3043,-7.3612,-7.4188,-7.4707,-7.387,-7.3909,0.0,0.0,-1.6741,-1.6395,0.0,0.0,0.0,0.0,0.0,-1.6268,-1.8228,-1.9978,-1.9978,-2.4207,-2.7498,-2.7052,-2.8762,-3.0074,0.0,0.0,0.0,0.0,0.0,0.0,0.0,0.0,0.0,0.0,0.0,0.0,0.0,-3.1957,-3.1864,-3.1677,-3.1851,-3.1864,-3.1677,-3.4262,-3.5548,-3.5323,-3.9341,-4.1349,-4.1529,-4.3904,-4.5249,-4.5827,-4.685,-4.7441,-4.7578,-4.7578,-4.7402,-4.7109,-4.668,-4.6504,-4.6504,-4.6348,-4.6308,-4.6308,-4.6308,-4.6308,-4.6638,-4.8955,-5.1114,-5.3251,-5.5574,-5.7692,-5.9483,-5.9483,-5.9483,-5.9458,-5.9282,-6.1808,-6.43,-6.4796,-6.7473,-7.0075,-7.0759,-7.059,-7.029,-7.029,-6.9931,-7.0577,-7.3651,-7.4785,-7.6091,-7.8617,-7.9702,-7.9934,-7.9161,-7.7686,-7.6617,-7.6473,-7.4748,-7.4254,-7.5971,-7.4882,-7.3744,-7.2973,-7.2642,-7.2275,-7.1725,-7.2239,-7.2429,-7.2288,-7.3437,-7.4142,-7.4372,-7.4418,-7.452,-7.4707,-7.4437,-7.4437,-1.6707,-1.6781,0.0,-1.6469,-1.6456,0.0,-1.6218,0.0,-1.6164,0.0,-1.7489,-1.8655,-1.8773,-2.2219,-2.511,-2.5483,-2.7325,-2.8809,0.0,-2.8845,0.0,0.0,0.0,0.0,0.0,0.0,0.0,0.0,0.0,0.0,0.0,0.0,-3.2064,-3.1984,-3.2064,-3.2064,-3.1984,-3.5513,-3.7133,-3.6777,-4.174,-4.4127,-4.4127,-4.578,-4.6836,-4.7383,-4.7519,-4.7578,-4.7578,-4.7422,-4.709,-4.668,-4.6406,-4.6308,-4.6308,-4.6308,-4.6308,-4.6308,-4.6308,-4.6308,-4.6793,-4.9786,-5.1761,-5.3415,-5.6375,-5.8344,-5.9483,-5.9483,-5.9357,-5.9257,-5.9433,-6.2202,-6.4938,-6.5159,-6.819,-7.0829,-7.062,-7.026,-6.9901,-6.9662,-6.9482,-7.0523,-7.4002,-7.5214,-7.654,-7.9082,-7.99,-7.9837,-7.8855,-7.7383,-7.6331,-7.6129,-7.4652,-7.4049,-7.4725,-7.3854,-7.3046,-7.2532,-7.2496,-7.2275,-7.1762,-7.2239,-7.254,-7.2609,-7.3717,-7.4588,-7.5091,-7.4804,-7.4861,-7.5168,-7.4861,-7.4861]}]]